     2.11           OBSERVATION DATA    G (GPS)             RINEX VERSION / TYPE
teqc 2010Oct21 OPUS Account 20111025 20:33:59UTC            PGM / RUN BY / DATE
A 1522                                                      MARKER NAME
1157                                                        MARKER NUMBER
CSMIDDLETON NGS                                             OBSERVER / AGENCY
4624K01631 TRIMBLE NETR5 4.41                               REC # / TYPE / VERS
12481390 TRM41249.00 NONE                                   ANT # / TYPE
  -739486.7427 -5488705.0781  3153177.5033                  APPROX POSITION XYZ
        2.0000        0.0000        0.0000                  ANTENNA: DELTA H/E/N
     1     1                                                WAVELENGTH FACT L1/2
     5    L1    L2    C1    P1    P2                        # / TYPES OF OBSERV
    15                                                      LEAP SECONDS
  2011     7    29     0     0    0.0000000     GPS         TIME OF FIRST OBS
                                                            END OF HEADER
 11  7 29  0  0  0.0000000  0  8G10G17G28G09G02G04G27G20
 122999967.901 7  95844224.50744  23406115.258                    23406126.762
 112627299.913 8  87761611.668 7  21432247.859
 114953330.212 7  89574118.55845  21874888.117                    21874896.555
 116422210.056 7  90718691.06845  22154415.359                    22154424.930
 116762250.829 8  90983663.56745  22219097.406                    22219104.801
 104548379.566 8  81466411.88446  19894877.250                    19894885.754
 117760818.327 7  91761751.40345  22409139.563                    22409148.953
 127586015.949 6  99417542.27043  24278768.977                    24278778.121
 11  7 29  0  0 30.0000000  0  8G10G17G28G09G02G04G27G20
 122906804.090 6  95771629.48544  23388386.336                    23388397.848
 112658824.642 8  87786176.369 7  21438246.930
 115006031.596 7  89615184.52845  21884916.641                    21884925.176
 116398603.655 7  90700296.48245  22149923.031                    22149932.266
 116684926.138 8  90923410.62845  22204382.664                    22204390.449
 104538424.726 8  81458654.88446  19892982.945                    19892991.418
 117753358.254 7  91755938.36345  22407720.109                    22407729.598
 127624674.042 6  99447665.46943  24286124.984                    24286134.469
 11  7 29  0  1  0.0000000  0  8G10G17G28G09G02G04G27G20
 122813709.218 7  95699088.13844  23370670.906                    23370682.039
 112690438.958 8  87810810.907 7  21444262.648
 115059106.190 7  89656541.32645  21895016.500                    21895025.055
 116375634.225 7  90682398.23345  22145551.945                    22145561.223
 116607902.946 8  90863392.62145  22189726.070                    22189732.848
 104529039.556 8  81451341.76846  19891196.734                    19891205.750
 117746388.869 7  91750507.66845  22406393.859                    22406403.188
 127663819.734 6  99478168.60042  24293574.641                    24293583.930
 11  7 29  0  1 30.0000000  0  8G10G17G28G09G02G04G27G20
 122720687.181 7  95626603.52743  23352969.391                    23352980.453
 112722142.950 8  87835515.297 7  21450295.727
 115112554.147 8  89698189.05145  21905187.453                    21905195.762
 116353302.728 7  90664997.05945  22141302.234                    22141311.809
 116531182.330 8  90803610.38445  22175126.375                    22175133.594
 104520224.122 8  81444472.60446  19889519.352                    19889527.824
 117739910.243 7  91745459.37245  22405160.781                    22405170.398
 127703452.633 6  99509051.37842  24301116.281                    24301125.703
 11  7 29  0  2  0.0000000  0  8G10G17G28G09G02G04G27G20
 122627740.893 7  95554177.98243  23335281.906                    23335293.250
 112753935.713 8  87860288.868 7  21456346.141
 115166375.306 7  89740127.58345  21915429.523                    21915437.910
 116331609.227 7  90648093.04245  22137174.234                    22137184.137
 116454765.389 8  90744064.78345  22160584.227                    22160592.277
 104511977.316 8  81438046.53746  19887949.555                    19887958.426
 117733921.977 7  91740793.18445  22404020.875                    22404030.652
 127743571.298 6  99540312.72942  24308749.602                    24308759.961
 11  7 29  0  2 30.0000000  0  8G10G17G28G09G02G04G27G20
 122534873.483 6  95481813.87243  23317610.617                    23317621.410
 112785817.573 8  87885131.868 7  21462412.836
 115220569.432 7  89782356.75145  21925742.258                    21925750.695
 116310554.395 7  90631686.68945  22133167.508                    22133177.008
 116378653.590 8  90684756.95645  22146100.492                    22146108.117
 104504299.059 8  81432063.49046  19886488.781                    19886497.441
 117728424.034 7  91736509.04945  22402975.055                    22402984.750
 127784175.499 6  99571952.33842  24316476.820                    24316487.129
 11  7 29  0  3  0.0000000  0  8G10G17G28G09G02G04G27G20
 122442088.085 6  95409513.67344  23299953.734                    23299964.582
 112817788.288 7  87910044.108 7  21468496.828
 115275136.603 7  89824876.57645  21936126.250                    21936134.598
 116290138.278 7  90615778.02345  22129282.922                    22129292.051
 116302848.196 8  90625687.86845  22131675.359                    22131682.547
 104497188.452 8  81426522.77246  19885135.742                    19885144.262
 117723416.030 7  91732606.71045  22402022.383                    22402031.234
 127825264.099 6  99603969.44542  24324296.172                    24324305.473
 11  7 29  0  3 30.0000000  0  8G10G17G28G09G02G04G27G20
 122349387.932 6  95337279.89444  23282312.891                    23282324.035
 112849847.860 8  87935025.586 7  21474597.641
 115330077.001 7  89867687.25545  21946580.656                    21946589.160
 116270361.175 7  90600367.30045  22125519.242                    22125528.457
 116227350.357 8  90566858.43245  22117308.813                    22117316.316
 104490645.104 8  81421424.07546  19883890.641                    19883899.184
 117718897.620 7  91729085.85545  22401162.477                    22401171.625
 127866836.363 6  99636363.41142  24332207.133                    24332216.637
 11  7 29  0  4  0.0000000  0  8G10G17G28G09G02G04G27G20
 122256776.047 6  95265114.94844  23264689.086                    23264700.750
 112881995.086 8  87960075.359 7  21480714.680
 115385390.173 7  89910788.38845  21957106.352                    21957115.414
 116251223.612 7  90585454.92045  22121877.625                    22121886.406
 116152161.248 8  90508269.57545  22103000.602                    22103008.227
 104484668.239 8  81416766.79146  19882753.125                    19882761.742
 117714868.670 7  91725946.39745  22400395.656                    22400405.020
 127908891.363 6  99669133.49542  24340209.617                    24340219.328
 11  7 29  0  4 30.0000000  0  8G10G17G28G09G02G04G27G20
 122164255.886 6  95193021.48544  23247083.125                    23247094.617
 112914230.317 8  87985193.714 7  21486848.711
 115441076.134 7  89954180.01145  21967703.430                    21967711.871
 116232725.690 7  90571040.94845  22118357.430                    22118366.129
 116077282.202 8  90449922.31845  22088751.508                    22088758.660
 104479257.413 8  81412550.57346  19881723.313                    19881731.992
 117711328.893 7  91723188.11345  22399722.414                    22399731.387
 127951428.255 5  99702279.11342  24348303.773                    24348314.336
 11  7 29  0  5  0.0000000  0  8G10G17G28G09G02G04G27G20
 122071830.748 6  95121002.03044  23229495.375                    23229506.500
 112946553.111 8  88010380.284 7  21492999.859
 115497134.688 7  89997861.98045  21978371.219                    21978379.566
 116214867.911 7  90557125.81745  22114959.297                    22114968.230
 116002714.642 8  90391817.78145  22074561.664                    22074569.289
 104474412.128 8  81408775.04046  19880801.516                    19880810.242
 117708277.926 7  91720810.72245  22399141.711                    22399150.727
 127994445.991 6  99735799.38742  24356489.766                    24356500.031
 11  7 29  0  5 30.0000000  0  8G10G17G28G09G02G04G27G20
 121979503.620 6  95049058.98644  23211925.891                    23211937.160
 112978963.243 8  88035634.917 7  21499167.313
 115553565.340 7  90041833.87845  21989109.422                    21989117.543
 116197650.053 7  90543709.31145  22111682.625                    22111691.383
 115928459.264 8  90333956.49745  22060431.227                    22060438.953
 104470131.318 8  81405439.35646  19879986.633                    19879995.242
 117705715.116 7  91718813.72245  22398654.070                    22398663.141
 128037943.529 5  99769693.58742  24364765.969                    24364777.309
 11  7 29  0  6  0.0000000  0  8G10G17G28G09G02G04G27G20
 121887278.150 6  94977195.10744  23194376.219                    23194387.328
 113011460.957 8  88060957.805 7  21505351.422
 115610368.479 7  90086096.04345  21999918.953                    21999926.969
 116181072.798 7  90530791.98045  22108528.227                    22108536.938
 115854517.918 8  90276339.91345  22046360.773                    22046368.246
 104466414.862 8  81402543.43546  19879279.641                    19879288.316
 117703640.795 7  91717197.34745  22398259.227                    22398268.023
 128081920.083 6  99803960.99842  24373135.781                    24373146.066
 11  7 29  0  6 30.0000000  0  8G10G17G28G09G02G04G27G20
 121795157.250 6  94905412.76244  23176845.461                    23176857.402
 113044045.712 8  88086348.511 7  21511552.016
 115667543.886 7  90130648.27245  22010798.828                    22010807.285
 116165136.250 7  90518373.88245  22105495.789                    22105504.867
 115780891.329 8  90218968.59245  22032349.852                    22032357.332
 104463261.889 8  81400086.57946  19878679.500                    19878688.109
 117702054.052 7  91715960.91245  22397957.250                    22397966.535
 128126374.594 5  99838600.84642  24381594.742                    24381605.246
 11  7 29  0  7  0.0000000  0  8G10G17G28G09G02G04G27G20
 121703144.309 7  94833714.49244  23159336.070                    23159347.230
 113076717.031 7  88111806.669 7  21517769.336
 115725090.657 7  90175489.89545  22021750.008                    22021758.434
 116149840.226 7  90506454.91145  22102585.148                    22102593.719
 115707580.564 8  90161843.37145  22018399.516                    22018407.004
 104460671.198 8  81398067.87146  19878186.375                    19878195.031
 117700954.280 7  91715103.91845  22397748.195                    22397757.223
 128171305.874 5  99873612.19042  24390145.094                    24390154.914
 11  7 29  0  7 30.0000000  0  8G10G17G28G09G02G04G27G20
 121611242.174 7  94762102.58644  23141848.422                    23141858.715
 113109475.001 7  88137332.355 7  21524002.922
 115783008.967 7  90220620.99945  22032771.031                    22032779.039
 116135184.612 7  90495034.95645  22099795.961                    22099804.578
 115634586.728 8  90104965.10145  22004509.117                    22004516.465
 104458642.240 8  81396486.88046  19877800.516                    19877809.168
 117700341.193 7  91714626.17045  22397630.766                    22397640.707
 128216712.923 6  99908994.29442  24398787.180                    24398795.969
 11  7 29  0  8  0.0000000  0  8G10G17G28G09G02G04G27G20
 121519454.536 7  94690579.88344  23124381.406                    23124392.324
 113142319.556 7  88162925.504 7  21530253.211
 115841298.622 7  90266041.47745  22043863.586                    22043871.457
 116121169.747 7  90484114.27945  22097129.313                    22097137.980
 115561911.211 8  90048334.87545  21990679.508                    21990686.781
 104457174.514 8  81395343.20746  19877520.992                    19877529.527
 117700214.621 7  91714527.52845  22397607.281                    22397616.152
 128262595.006 5  99944746.53742  24407517.195                    24407527.559
 11  7 29  0  8 30.0000000  0  8G10G17G28G09G02G04G27G20
 121427784.509 7  94619148.82644  23106936.969                    23106947.891
 113175250.181 7  88188585.718 7  21536519.156
 115899958.974 7  90311750.81945  22055026.359                    22055033.977
 116107795.432 7  90473692.74245  22094583.914                    22094593.180
 115489554.803 8  89991953.30945  21976910.336                    21976917.793
 104456266.662 8  81394635.80046  19877348.570                    19877357.348
 117700573.677 7  91714807.29045  22397675.320                    22397684.121
 128308950.330 6  99980867.56842  24416338.266                    24416348.301
 11  7 29  0  9  0.0000000  0  8G10G17G28G09G02G04G27G20
 121336235.305 7  94547811.93844  23089515.063                    23089526.531
 113208266.547 7  88214312.741 7  21542802.031
 115958989.918 7  90357748.90845  22066259.273                    22066267.891
 116095061.786 7  90463770.41345  22092161.016                    22092170.098
 115417518.771 8  89935821.37745  21963202.617                    21963210.469
 104455917.974 8  81394364.10346  19877281.844                    19877290.680
 117701417.997 7  91715465.18445  22397836.164                    22397845.492
 128355778.188 6 100017356.77043  24425249.930                    24425258.770
 11  7 29  0  9 30.0000000  0  9G10G17G28G09G12G02G04G27G20
 121244810.287 7  94476571.79444  23072117.656                    23072128.418
 113241368.793 7  88240106.692 7  21549101.641
 116018391.278 7  90404035.64745  22077562.883                    22077571.461
 116082968.617 7  90454347.15745  22089859.703                    22089868.441
 129515276.29516 100921019.90116  24645940.148
 115345803.947 8  89879939.75345  21949555.727                    21949562.449
 104456127.814 8  81394527.62446  19877322.031                    19877330.859
 117702747.033 7  91716500.78545  22398088.891                    22398097.867
 128403077.645 6 100054213.51343  24434250.563                    24434259.832
 11  7 29  0 10  0.0000000  0  9G10G17G28G09G12G02G04G27G20
 121153512.781 7  94405430.96544  23054744.609                    23054755.129
 113274557.044 7  88265967.653 7  21555417.148
 116078163.263 7  90450611.18145  22088937.625                    22088945.852
 116071516.161 7  90445423.18345  22087680.313                    22087689.207
 129418425.129 6 100845551.538 5  24627510.031
 115274412.079 8  89824309.75845  21935970.500                    21935977.621
 104456895.537 8  81395125.86446  19877468.008                    19877476.699
 117704560.564 7  91717913.90845  22398434.039                    22398443.969
 128450847.646 6 100091436.85443  24443341.195                    24443350.906
 11  7 29  0 10 30.0000000  0  9G10G17G28G09G12G02G04G27G20
 121062345.811 6  94334391.93144  23037395.945                    23037406.602
 113307830.678 7  88291895.150 7  21561748.852
 116138304.934 7  90497474.79045  22100381.828                    22100390.582
 116060704.054 7  90436998.14745  22085622.633                    22085631.707
 129321551.976 6 100770066.052 6  24609075.484
 115203343.727 8  89768931.87746  21922445.859                    21922453.504
 104458219.873 7  81396157.82246  19877720.008                    19877728.867
 117706857.670 7  91719703.83345  22398871.586                    22398880.828
 128499086.838 6 100129025.84343  24452520.531                    24452530.063
 11  7 29  0 11  0.0000000  0  9G10G17G28G09G12G02G04G27G20
 120971312.804 6  94263457.23844  23020072.766                    23020083.133
 113341189.752 7  88317889.219 7  21568096.797
 116198815.895 7  90544626.14945  22111896.703                    22111905.117
 116050532.100 7  90429071.94445  22083687.555                    22083697.039
 129224658.521 6 100694564.714 5  24590636.633
 115132600.096 8  89713807.02846  21908983.977                    21908991.375
 104460099.934 8  81397622.82046  19878077.859                    19878086.531
 117709637.844 7  91721870.20045  22399400.195                    22399409.836
 128547793.961 6 100166979.45743  24461789.156                    24461798.762
 11  7 29  0 11 30.0000000  0  9G10G17G28G09G12G02G04G27G20
 120880417.352 6  94192629.74244  23002775.594                    23002786.359
 113374633.916 7  88343949.586 7  21574461.336
 116259695.981 7  90592065.14445  22123481.750                    22123490.605
 116041000.400 7  90421644.63745  22081873.375                    22081882.102
 129127746.503 6 100619048.886 6  24572195.328
 115062182.302 8  89658936.06645  21895583.938                    21895591.316
 104462534.976 8  81399520.26346  19878541.391                    19878549.930
 117712900.559 7  91724412.56445  22400021.102                    22400030.863
 128596967.944 6 100205296.81943  24471147.164                    24471156.426
 11  7 29  0 12  0.0000000  0  9G10G17G28G09G12G02G04G27G20
 120789662.503 6  94121911.76644  22985505.047                    22985515.855
 113408163.304 7  88370076.377 7  21580841.289
 116320944.732 7  90639791.39345  22135136.875                    22135145.957
 116032108.482 7  90414715.86045  22080181.695                    22080190.754
 129030817.393 6 100543519.795 6  24553750.836
 114992091.197 8  89604319.67346  21882246.078                    21882253.488
 104465523.713 8  81401849.15546  19879109.703                    19879118.516
 117716644.941 7  91727330.23645  22400734.016                    22400743.379
 128646607.327 6 100243976.88243  24480593.289                    24480602.590
 11  7 29  0 12 30.0000000  0  9G10G17G28G09G12G02G04G27G20
 120699051.487 7  94051305.91344  22968262.211                    22968273.711
 113441777.856 8  88396269.503 7  21587238.141
 116382561.880 7  90687804.72745  22146862.328                    22146871.051
 116023856.229 7  90408285.52445  22078611.117                    22078620.293
 128933873.207 6 100467978.953 6  24535302.250
 114922328.040 8  89549958.81845  21868970.625                    21868977.598
 104469065.421 8  81404608.93746  19879783.898                    19879792.586
 117720870.465 7  91730622.82945  22401538.094                    22401547.215
 128696711.123 6 100283018.76543  24490126.789                    24490137.016
 11  7 29  0 13  0.0000000  0  9G10G17G28G09G12G02G04G27G20
 120608587.711 6  93980814.75044  22951047.500                    22951058.598
 113475477.356 8  88422528.849 7  21593650.930
 116444547.279 7  90736104.98345  22158657.492                    22158666.313
 116016243.614 7  90402353.60245  22077162.609                    22077171.504
 128836915.404 6 100392427.455 6  24516852.352
 114852893.941 8  89495854.37945  21855757.242                    21855764.613
 104473159.370 8  81407799.03746  19880562.953                    19880571.484
 117725576.672 7  91734289.98445  22402433.820                    22402442.965
 128747278.322 6 100322421.75944  24499749.797                    24499759.379
 11  7 29  0 13 30.0000000  0  9G10G17G28G09G12G02G04G27G20
 120518274.321 6  93910440.79744  22933861.328                    22933872.086
 113509261.545 7  88448854.165 7  21600079.953
 116506900.070 7  90784691.56045  22170523.445                    22170531.676
 116009270.027 7  90396919.62245  22075835.539                    22075844.488
 128739945.464 6 100316866.561 6  24498399.320
 114783789.493 8  89442006.81345  21842607.219                    21842614.555
 104477804.103 8  81411418.32046  19881447.078                    19881455.500
 117730762.612 7  91738330.93745  22403420.625                    22403430.336
 128798307.288 6 100362184.58643  24509461.273                    24509470.094
 11  7 29  0 14  0.0000000  0  9G10G17G28G09G12G02G04G27G20
 120428114.709 7  93840186.63644  22916704.891                    22916714.824
 113543130.163 7  88475245.295 7  21606524.953
 116569620.122 7  90833564.27145  22182458.633                    22182467.293
 116002935.160 7  90391983.34345  22074629.875                    22074639.090
 128642965.342 6 100241297.687 6  24479944.047
 114715015.959 8  89388417.10946  21829520.500                    21829527.582
 104482998.503 8  81415465.91346  19882435.039                    19882443.840
 117736427.439 7  91742745.08045  22404498.609                    22404507.887
 128849796.620 6 100402306.14243  24519257.797                    24519267.793
 11  7 29  0 14 30.0000000  0  9G10G17G28G09G12G02G04G27G20
 120338112.458 7  93770055.14444  22899577.945                    22899588.051
 113577083.892 7  88501702.724 7  21612985.734
 116632706.901 7  90882722.77045  22194463.641                    22194472.156
 115997239.084 7  90387544.82445  22073546.281                    22073555.297
 128545976.898 6 100165722.378 6  24461488.031
 114646574.391 8  89335086.06346  21816496.250                    21816503.418
 104488742.108 8  81419941.46146  19883528.031                    19883536.648
 117742570.982 7  91747532.22445  22405667.594                    22405677.699
 128901745.407 6 100442785.69743  24529144.570                    24529153.145
 11  7 29  0 15  0.0000000  0  9G10G17G28G09G12G02G04G27G20
 120248270.305 7  93700048.35044  22882481.422                    22882492.047
 113611121.897 8  88528225.836 7  21619463.188
 116696159.805 7  90932166.54245  22206538.289                    22206546.809
 115992180.802 7  90383603.29745  22072583.586                    22072592.738
 128448981.513 6 100090141.657 6  24443030.961
 114578465.350 8  89282014.13546  21803535.555                    21803542.957
 104495032.947 8  81424843.42646  19884725.141                    19884733.836
 117749191.779 7  91752691.27245  22406927.281                    22406936.789
 128954151.892 6 100483621.89943  24539116.375                    24539126.582
 11  7 29  0 15 30.0000000  0  9G10G17G28G09G12G02G04G27G20
 120158591.995 7  93630169.28544  22865415.773                    22865426.902
 113645244.716 7  88554815.021 7  21625956.523
 116759978.492 7  90981895.33045  22218682.922                    22218691.957
 115987760.166 7  90380158.61545  22071742.219                    22071751.422
 128351981.070 6 100014556.913 6  24424571.359
 114510690.284 8  89229202.43946  21790638.445                    21790645.375
 104501870.533 8  81430171.42246  19886026.391                    19886035.039
 117756289.539 7  91758221.96745  22408278.617                    22408287.738
 129007014.927 6 100524813.87643  24549176.242                    24549185.555
 11  7 29  0 16  0.0000000  0  9G10G17G28G09G12G02G04G27G20
 120069080.738 7  93560420.35544  22848383.117                    22848392.980
 113679452.166 7  88581470.172 7  21632465.914
 116824162.464 7  91031908.76545  22230896.930                    22230904.820
 115983976.776 7  90377210.50845  22071022.742                    22071031.293
 128254977.253 6  99938969.566 6  24406113.000
 114443249.974 8  89176651.61846  21777804.172                    21777811.750
 104509253.725 8  81435924.57046  19887431.539                    19887439.848
 117763863.339 7  91764123.61645  22409719.516                    22409729.281
 129060333.371 6 100566360.68443  24559321.938                    24559332.246
 11  7 29  0 16 30.0000000  0  9G10G17G28G09G12G02G04G27G20
 119979739.526 7  93490803.94144  22831381.344                    22831391.938
 113713743.124 7  88608190.384 7  21638990.922
 116888711.183 7  91082206.43045  22243179.727                    22243188.535
 115980829.917 7  90374758.40445  22070423.305                    22070433.082
 128157971.828 7  99863380.929 6  24387653.344
 114376145.006 8  89124362.07646  21765034.711                    21765042.156
 104517181.117 8  81442101.76546  19888939.844                    19888948.648
 117771912.128 7  91770395.38445  22411251.109                    22411260.730
 129114105.597 6 100608261.09443  24569555.148                    24569564.133
 11  7 29  0 17  0.0000000  0  8G10G17G28G09G12G02G04G27
 119890572.437 7  93421323.20444  22814413.508                    22814423.766
 113748119.079 8  88634976.825 7  21645532.797
 116953624.959 7  91132788.54745  22255532.641                    22255541.227
 115978319.974 7  90372802.59445  22069945.922                    22069955.059
 128060967.623 7  99787793.262 6  24369193.875
 114309377.503 8  89072335.49646  21752329.297                    21752337.023
 104525652.289 8  81448702.68546  19890551.977                    19890560.605
 117780435.895 7  91777037.25045  22412873.719                    22412882.480
 11  7 29  0 17 30.0000000  0  8G10G17G28G09G12G02G04G27
 119801583.539 7  93351981.29544  22797478.969                    22797489.656
 113782580.245 8  88661829.667 7  21652090.656
 117018902.810 7  91183654.34245  22267954.758                    22267963.426
 115976446.337 7  90371342.61745  22069589.328                    22069598.906
 127963965.776 6  99712207.440 5  24350735.211
 114242948.304 8  89020572.52846  21739688.578                    21739695.695
 104534666.037 8  81455726.39046  19892267.438                    19892276.012
 117789433.804 7  91784048.59245  22414585.000                    22414594.531
 11  7 29  0 18  0.0000000  0  8G10G17G28G09G12G02G04G27
 119712774.949 7  93282779.91544  22780580.156                    22780590.434
 113817125.626 8  88688748.143 7  21658664.891
 117084543.816 7  91234803.13745  22280445.641                    22280454.652
 115975207.939 7  90370377.61645  22069353.375                    22069363.031
 127866967.690 6  99636624.538 6  24332277.125
 114176857.192 8  88969073.01446  21727112.031                    21727118.867
 104544220.667 8  81463171.55746  19894085.477                    19894094.172
 117798904.108 7  91791428.03845  22416387.359                    22416397.047
 11  7 29  0 18 30.0000000  0  8G10G17G28G09G12G02G04G27
 119624149.393 7  93213721.14544  22763714.609                    22763724.969
 113851754.450 8  88715731.636 7  21665253.984
 117150546.969 7  91286234.10045  22293005.336                    22293014.168
 115974603.470 7  90369906.59745  22069238.891                    22069248.262
 127769974.823 6  99561045.756 6  24313819.539
 114111104.820 8  88917837.44946  21714599.391                    21714606.500
 104554314.164 8  81471036.63046  19896006.297                    19896015.043
 117808845.543 7  91799174.59445  22418279.734                    22418289.133
 11  7 29  0 19  0.0000000  0  8G10G17G28G09G12G02G04G27
 119535710.987 7  93144808.20744  22746885.297                    22746895.523
 113886467.600 8  88742780.842 7  21671859.664
 117216912.064 7  91337947.12844  22305634.695                    22305643.129
 115974633.119 7  90369929.69045  22069244.109                    22069253.695
 127672989.339 6  99485472.734 6  24295364.063
 114045692.841 8  88866867.12046  21702152.258                    21702159.691
 104564946.075 8  81479321.23846  19898029.469                    19898037.984
 117819257.911 8  91807288.10245  22420260.852                    22420270.348
 11  7 29  0 19 30.0000000  0  8G10G17G28G09G12G02G04G27
 119447462.726 7  93076043.42644  22730092.414                    22730101.973
 113921264.642 7  88769895.414 7  21678481.008
 117283638.549 7  91389941.73445  22318332.352                    22318340.961
 115975295.680 7  90370445.95645  22069370.359                    22069379.832
 127576012.695 7  99409906.579 6  24276910.563
 113980621.257 8  88816162.03146  21689769.406                    21689776.633
 104576114.816 8  81488024.15946  19900154.828                    19900163.086
 117830139.785 7  91815767.45945  22422331.531                    22422341.184
 11  7 29  0 20  0.0000000  0  8G10G17G28G09G12G02G04G27
 119359407.679 7  93007429.20144  22713335.438                    22713345.672
 113956146.052 8  88797075.727 7  21685119.180
 117350725.882 7  91442217.52045  22331098.500                    22331107.484
 115976590.642 7  90371455.00745  22069616.688                    22069626.109
 127479046.929 7  99334348.868 6  24258457.914
 113915891.663 8  88765723.42646  21677451.602                    21677458.355
 104587819.049 8  81497144.34446  19902381.789                    19902390.477
 117841490.426 7  91824612.07945  22424491.633                    22424501.176
 11  7 29  0 20 30.0000000  0  8G10G17G28G09G12G02G04G27
 119271549.630 7  92938968.48444  22696616.531                    22696626.793
 113991111.102 7  88824321.213 7  21691772.953
 117418173.208 7  91494773.84945  22343933.148                    22343942.027
 115978517.185 7  90372956.20345  22069983.578                    22069992.883
 127382093.977 6  99258801.174 6  24240008.109
 113851504.609 8  88715551.73146  21665198.969                    21665205.879
 104600057.658 8  81506680.92846  19904710.781                    19904719.379
 117853308.946 7  91833821.29745  22426740.414                    22426750.531
 11  7 29  0 21  0.0000000  0  8G10G17G28G09G12G02G04G27
 119183891.932 7  92870663.87144  22679935.766                    22679945.891
 114026160.376 7  88851632.336 7  21698442.789
 117485980.368 7  91547610.56145  22356836.422                    22356845.035
 115981074.732 7  90374949.08145  22070470.117                    22070479.750
 127285155.677 6  99183264.855 6  24221561.953
 113787461.427 8  88665648.00746  21653011.961                    21653019.160
 104612829.449 8  81516632.97146  19907141.242                    19907149.797
 117865594.474 7  91843394.40845  22429078.141                    22429087.813
 11  7 29  0 21 30.0000000  0  8G10G17G28G09G12G02G04G27
 119096437.627 7  92802517.76044  22663294.078                    22663304.457
 114061293.589 8  88879008.864 7  21705128.008
 117554146.182 7  91600726.71645  22369808.766                    22369817.141
 115984262.521 7  90377433.06945  22071076.234                    22071086.285
 127188234.158 6  99107741.642 6  24203118.047
 113723762.420 8  88616012.44946  21640890.344                    21640897.711
 104626132.873 8  81526999.27846  19909672.594                    19909681.230
 117878345.685 7  91853330.39245  22431504.750                    22431513.934
 11  7 29  0 22  0.0000000  0  8G10G17G28G09G12G02G04G27
 119009190.277 7  92734532.89144  22646691.617                    22646701.770
 114096510.921 8  88906450.931 7  21711829.656
 117622670.232 7  91654122.04945  22382848.211                    22382856.227
 115988080.021 7  90380407.73045  22071803.250                    22071812.750
 127091330.671 6  99032232.487 6  24184677.250
 113660408.378 8  88566645.70546  21628834.336                    21628841.703
 104639966.541 8  81537778.75846  19912305.281                    19912313.680
 117891561.787 7  91863628.64045  22434019.719                    22434028.906
 11  7 29  0 22 30.0000000  0  8G10G17G28G09G12G02G04G27
 118922153.373 7  92666712.01044  22630128.734                    22630138.566
 114131812.615 8  88933958.729 7  21718547.734
 117691551.836 7  91707795.98445  22395955.609                    22395964.570
 115992526.363 7  90383872.39345  22072649.164                    22072658.762
 126994447.459 7  98956739.104 6  24166241.273
 113597400.533 8  88517548.71946  21616844.570                    21616851.770
 104654329.390 8  81548970.58746  19915038.313                    19915046.719
 117905241.785 7  91874288.34445  22436623.055                    22436632.340
 11  7 29  0 23  0.0000000  0  8G10G17G28G09G12G02G04G27
 118835329.865 7  92599057.39744  22613606.656                    22613616.707
 114167198.295 7  88961531.987 7  21725281.094
 117760790.248 7  91761747.96144  22409131.359                    22409140.000
 115997600.128 7  90387825.97145  22073614.742                    22073624.195
 126897586.263 7  98881262.953 6  24147809.156
 113534739.025 8  88468721.61346  21604920.063                    21604927.293
 104669219.584 8  81560573.34046  19917871.516                    19917880.535
 117919384.186 7  91885308.36845  22439314.391                    22439323.695
 11  7 29  0 23 30.0000000  0  8G10G17G28G09G12G02G04G27
 118748723.111 7  92531571.70844  22597125.773                    22597135.551
 114202668.109 8  88989170.791 7  21732031.016
 117830384.558 7  91815977.23244  22422375.242                    22422383.699
 116003300.549 7  90392267.84545  22074699.617                    22074708.680
 126800749.137 7  98805805.477 6  24129382.234
 113472424.893 8  88420165.17646  21593062.328                    21593069.348
 104684635.655 8  81572585.85946  19920805.766                    19920814.086
 117933988.074 7  91896687.98845  22442093.305                    22442102.559
 11  7 29  0 24  0.0000000  0  8G10G17G28G09G12G02G04G27
 118662336.586 7  92464257.61344  22580687.445                    22580697.156
 114238222.317 8  89016875.355 7  21738796.445
 117900334.274 7  91870483.45645  22435686.133                    22435695.055
 116009626.892 7  90397197.44845  22075903.242                    22075912.820
 126703937.806 6  98730368.140 6  24110959.070
 113410458.775 8  88371879.92746  21581270.875                    21581277.910
 104700576.460 8  81585007.27246  19923838.703                    19923847.414
 117949052.322 7  91908426.34545  22444960.344                    22444968.910
 11  7 29  0 24 30.0000000  0  8G10G17G28G09G12G02G04G27
 118576173.682 7  92397117.77445  22564291.125                    22564300.766
 114273860.408 8  89044645.278 7  21745578.164
 117970638.624 7  91925266.03044  22449064.477                    22449072.867
 116016578.155 7  90402613.99745  22077226.117                    22077235.539
 126607154.305 7  98654952.478 6  24092541.703
 113348841.450 8  88323866.47746  21569545.563                    21569552.230
 104717040.503 8  81597836.40446  19926971.523                    19926980.137
 117964575.898 7  91920522.60445  22447914.711                    22447923.582
 11  7 29  0 25  0.0000000  0  8G10G17G28G09G12G02G04G27
 118490237.625 7  92330154.69144  22547937.531                    22547947.234
 114309583.139 7  89072481.162 7  21752376.008
 118041297.028 7  91980324.48044  22462510.055                    22462518.961
 116024153.380 7  90408516.75845  22078667.664                    22078677.590
 126510400.491 7  98579559.946 6  24074130.102
 113287573.613 8  88276125.33446  21557886.508                    21557893.578
 104734026.269 8  81611072.06646  19930203.773                    19930212.273
 117980557.368 7  91932975.68945  22450955.352                    22450964.414
 11  7 29  0 25 30.0000000  0  8G10G17G28G09G12G02G04G27
 118404532.122 7  92263371.26644  22531628.273                    22531638.223
 114345390.552 8  89100383.029 7  21759189.977
 118112308.613 7  92035658.11945  22476023.656                    22476032.535
 116032351.764 7  90414905.08745  22080227.398                    22080237.348
 126413678.387 7  98504192.198 6  24055724.438
 113226656.192 8  88228657.23946  21546294.164                    21546301.602
 104751532.486 8  81624713.27446  19933535.539                    19933544.445
 117996995.896 7  91945784.90445  22454083.523                    22454093.313
 11  7 29  0 26  0.0000000  0  8G10G17G28G09G12G02G04G27
 118319060.314 7  92196769.97144  22515363.180                    22515373.461
 114381282.486 7  89128350.749 7  21766020.211
 118183672.592 7  92091266.36644  22489603.914                    22489612.844
 116041172.244 7  90421778.15445  22081906.820                    22081915.637
 126316990.138 7  98428850.719 6  24037324.961
 113166090.431 8  88181463.17746  21534768.813                    21534775.727
 104769557.693 8  81638758.89546  19936965.313                    19936974.043
 118013890.318 7  91958949.36145  22457297.961                    22457308.102
 11  7 29  0 26 30.0000000  0  8G10G17G28G09G12G02G04G27
 118233825.345 7  92130353.17444  22499143.734                    22499153.363
 114417259.274 8  89156384.590 7  21772866.016
 118255388.096 7  92147148.52045  22503251.156                    22503259.375
 116050613.622 7  90429135.03645  22083703.117                    22083712.484
 126220337.564 7  98353537.083 6  24018932.648
 113105876.451 8  88134543.23146  21523310.688                    21523317.516
 104788100.196 8  81653207.60046  19940494.109                    19940502.953
 118031239.203 7  91972467.95745  22460599.828                    22460609.520
 11  7 29  0 27  0.0000000  0  8G10G17G28G09G12G02G04G27
 118148830.420 7  92064123.46044  22482969.531                    22482979.574
 114453320.560 8  89184484.269 7  21779728.844
 118327453.732 7  92203303.49744  22516964.469                    22516973.395
 116060674.026 7  90436974.29145  22085617.523                    22085626.691
 126123722.282 7  98278252.504 6  24000548.297
 113046014.404 8  88087897.50846  21511918.891                    21511926.063
 104807157.714 8  81668057.61146  19944120.813                    19944129.277
 118049040.827 7  91986339.32445  22463987.570                    22463996.914
 11  7 29  0 27 30.0000000  0  8G10G17G28G09G12G02G04G27
 118064079.495 7  91998083.87145  22466841.883                    22466852.367
 114489466.683 8  89212650.066 7  21786607.227
 118399869.720 7  92259731.48444  22530743.945                    22530753.484
 116071353.294 7  90445295.77245  22087649.719                    22087659.391
 126027146.705 7  98202998.861 6  23982170.375
 112986505.674 8  88041527.10346  21500594.813                    21500601.668
 104826729.938 8  81683308.70646  19947845.086                    19947853.578
 118067294.821 7  92000563.18545  22467460.938                    22467470.840
 11  7 29  0 28  0.0000000  0  8G10G17G28G09G12G02G04G27
 117979575.511 7  91932236.69345  22450761.195                    22450771.387
 114525697.638 8  89240881.950 7  21793501.445
 118472634.680 7  92316431.39345  22544591.453                    22544600.289
 116082649.795 7  90454098.21645  22089799.609                    22089808.480
 125930612.350 7  98127777.378 6  23963799.820
 112927350.824 8  87995432.45746  21489337.891                    21489344.762
 104846814.475 8  81698959.00146  19951666.773                    19951675.316
 118085999.469 7  92015138.21545  22471020.391                    22471030.203
 11  7 29  0 28 30.0000000  0  8G10G17G28G09G12G02G04G27
 117895321.677 7  91866584.44645  22434728.109                    22434738.168
 114562013.408 8  89269179.939 7  21800411.898
 118545747.832 7  92373402.62144  22558504.578                    22558513.719
 116094562.538 7  90463380.84545  22092065.867                    22092075.410
 125834121.894 6  98052590.081 6  23945437.656
 112868550.293 8  87949613.89346  21478148.609                    21478155.648
 104867410.000 8  81715007.46946  19955586.188                    19955594.547
 118105153.465 7  92030063.37545  22474665.031                    22474675.133
 11  7 29  0 29  0.0000000  0  8G10G17G28G09G12G02G04G27
 117811321.599 7  91801129.89645  22418744.117                    22418753.633
 114598414.599 8  89297544.478 7  21807338.914
 118619208.251 7  92430644.45344  22572483.938                    22572492.281
 116107090.352 7  90473142.74945  22094450.531                    22094460.070
 125737676.589 6  97977438.002 6  23927084.813
 112810104.711 8  87904071.92946  21467026.711                    21467033.297
 104888514.878 8  81731452.82946  19959602.367                    19959610.852
 118124755.466 7  92045337.62245  22478395.305                    22478404.965
 11  7 29  0 29 30.0000000  0  8G10G17G28G09G12G02G04G27
 117727578.273 7  91735875.43245  22402807.602                    22402817.500
 114634901.424 8  89325975.734 7  21814282.375
 118693015.322 7  92488156.40044  22586528.594                    22586537.551
 116120231.906 7  90483382.90145  22096950.906                    22096960.188
 125641278.695 6  97902322.801 6  23908740.758
 112752014.767 8  87858807.07146  21455972.984                    21455979.688
 104910127.430 8  81748293.78346  19963714.984                    19963723.602
 118144804.269 7  92060960.03745  22482210.508                    22482220.340
 11  7 29  0 30  0.0000000  0  8G10G17G28G09G12G02G04G27
 117644095.250 7  91670823.81345  22386921.617                    22386931.539
 114671473.670 8  89354473.571 7  21821241.789
 118767168.148 7  92545937.80344  22600638.820                    22600647.996
 116133986.108 7  90494100.44445  22099568.625                    22099577.965
 125544930.422 7  97827246.274 6  23890406.266
 112694281.234 8  87813819.94546  21444986.164                    21444993.375
 104932246.417 8  81765529.35846  19967924.148                    19967932.988
 118165298.911 7  92076929.85745  22486110.352                    22486120.004
 11  7 29  0 30 30.0000000  0  8G10G17G28G09G12G02G04G27
 117560875.815 7  91605977.55945  22371085.406                    22371094.781
 114708131.351 7  89383037.982 7  21828217.445
 118841665.619 7  92603987.69744  22614816.047                    22614825.043
 116148351.501 7  90505294.23545  22102302.359                    22102311.758
 125448633.788 7  97752209.950 6  23872082.141
 112636904.822 8  87769111.09246  21434067.578                    21434075.008
 104954869.838 8  81783158.00446  19972229.297                    19972237.691
 118186237.666 7  92093245.74045  22490095.000                    22490104.805
 11  7 29  0 31  0.0000000  0  8G10G17G28G09G12G02G04G27
 117477923.183 7  91541339.21045  22355299.750                    22355309.703
 114744874.584 7  89411669.055 7  21835209.547
 118916506.548 7  92662305.25844  22629058.008                    22629066.324
 116163326.628 7  90516963.14545  22105152.203                    22105161.582
 125352390.858 6  97677215.542 6  23853767.563
 112579885.449 8  87724680.45246  21423217.539                    21423224.410
 104977995.918 8  81801178.33346  19976629.703                    19976638.531
 118207618.816 7  92109906.34245  22494163.844                    22494173.293
 11  7 29  0 31 30.0000000  0  8G10G17G28G09G12G02G04G27
 117395240.677 7  91476911.35045  22339565.039                    22339575.477
 114781703.702 7  89440367.056 7  21842217.703
 118991690.199 7  92720889.87244  22643364.227                    22643373.207
 116178909.969 7  90529105.98645  22108117.445                    22108126.078
 125256203.168 7  97602264.167 6  23835462.711
 112523223.713 8  87680528.49046  21412435.047                    21412442.203
 105001622.819 8  81819588.90946  19981125.922                    19981134.566
 118229440.975 7  92126910.59945  22498316.492                    22498326.078
 11  7 29  0 32  0.0000000  0  8G10G17G28G09G12G02G04G27
 117312831.870 7  91412696.74045  22323883.805                    22323893.137
 114818618.896 7  89469132.103 7  21849242.766
 119067215.700 7  92779740.85244  22657736.391                    22657745.461
 116195100.535 7  90541721.98045  22111198.117                    22111207.602
 125160073.067 7  97527357.649 6  23817170.383
 112466920.402 8  87636655.82546  21401720.875                    21401727.887
 105025749.124 8  81838388.62146  19985717.133                    19985725.613
 118251702.991 7  92144257.57845  22502552.555                    22502562.289
 11  7 29  0 32 30.0000000  0  8G10G17G28G09G12G02G04G27
 117230699.916 7  91348697.90145  22308254.180                    22308264.273
 114855620.026 7  89497964.149 7  21856283.352
 119143081.847 7  92838857.25344  22672173.781                    22672182.648
 116211896.729 7  90554809.91545  22114394.352                    22114403.645
 125064002.705 7  97452497.669 6  23798888.703
 112410976.298 8  87593063.04946  21391074.641                    21391081.789
 105050372.982 8  81857576.04246  19990402.828                    19990411.379
 118274403.200 7  92161946.03945  22506872.820                    22506882.070
 11  7 29  0 33  0.0000000  0  8G10G17G28G09G12G02G04G27
 117148848.057 7  91284917.29145  22292678.172                    22292687.793
 114892707.403 7  89526863.392 7  21863341.102
 119219287.573 7  92898238.29644  22686674.555                    22686684.102
 116229297.112 7  90568368.61945  22117705.742                    22117714.742
 124967994.519 7  97377686.163 7  23780619.656
 112355391.871 8  87549750.55246  21380497.484                    21380504.457
 105075492.761 8  81877149.89646  19995182.945                    19995191.637
 118297540.438 7  92179975.02145  22511275.445                    22511284.578
 11  7 29  0 33 30.0000000  0  8G10G17G28G09G12G02G04G27
 117067279.628 7  91221357.54445  22277156.594                    22277166.551
 114929881.384 7  89555830.121 7  21870415.047
 119295832.309 7  92957883.46244  22701241.094                    22701250.590
 116247300.403 7  90582397.14145  22121131.484                    22121140.344
 124872049.696 7  97302924.001 6  23762361.688
 112300167.454 8  87506718.57846  21369988.461                    21369995.766
 105101106.547 8  81897108.68746  20000056.828                    20000065.609
 118321113.129 7  92198343.32145  22515761.141                    22515771.121
 11  7 29  0 34  0.0000000  0  8G10G17G28G09G12G02G04G27
 116985997.887 7  91158021.18645  22261689.227                    22261698.859
 114967142.047 7  89584864.372 7  21877505.781
 119372714.837 7  93017791.85744  22715871.102                    22715880.766
 116265904.725 7  90596894.01645  22124671.922                    22124681.109
 124776170.764 7  97228213.187 6  23744116.609
 112245303.299 8  87463967.32346  21359548.375                    21359555.000
 105127212.656 8  81917451.11346  20005024.898                    20005033.746
 118345119.575 7  92217049.61645  22520329.805                    22520338.801
 11  7 29  0 34 30.0000000  0  8G10G17G28G09G12G02G04G27
 116905006.668 7  91094911.21545  22246276.594                    22246286.543
 115004489.915 7  89613966.596 7  21884612.836
 119449934.108 7  93077962.65044  22730565.930                    22730575.047
 116285108.860 7  90611858.24145  22128326.422                    22128335.395
 124680359.890 6  97153555.397 6  23725883.938
 112190800.590 8  87421497.71946  21349177.000                    21349183.504
 105153809.654 8  81938176.03246  20010086.320                    20010094.648
 118369558.684 7  92236093.04445  22524980.594                    22524989.977
 11  7 29  0 35  0.0000000  0  8G10G17G28G09G12G02G04G27
 116824308.855 7  91032029.86345  22230920.367                    22230930.352
 115041924.765 7  89643136.594 7  21891736.594
 119527489.098 7  93138395.03544  22745324.023                    22745333.563
 116304911.084 7  90627288.52445  22132094.922                    22132103.777
 124584619.270 6  97078952.334 6  23707664.953
 112136659.378 8  87379309.78646  21338873.875                    21338880.922
 105180895.494 8  81959281.87946  20015240.063                    20015248.867
 118394428.667 7  92255472.22145  22529712.570                    22529721.836
 11  7 29  0 35 30.0000000  0  8G10G17G28G09G12G02G04G27
 116743907.480 7  90969379.51845  22215620.828                    22215630.457
 115079446.578 7  89672374.360 7  21898876.477
 119605378.510 7  93199088.02644  22760145.844                    22760155.379
 116325309.616 7  90643183.47445  22135975.859                    22135985.414
 124488950.813 7  97004405.521 6  23689460.516
 112082879.774 8  87337403.61846  21328640.383                    21328646.863
 105208467.771 8  81980766.76546  20020487.563                    20020496.215
 118419727.699 7  92275185.71045  22534527.063                    22534536.613
 11  7 29  0 36  0.0000000  0  8G10G17G28G09G12G02G04G27
 116663805.819 7  90906962.69145  22200377.727                    22200387.004
 115117055.782 7  89701680.216 7  21906033.063
 119683601.396 7  93260040.85144  22775031.336                    22775040.930
 116346302.811 7  90659541.77645  22139970.695                    22139980.316
 124393356.787 7  96929916.669 6  23671269.977
 112029462.371 8  87295779.69946  21318474.852                    21318482.020
 105236525.112 8  82002629.62246  20025826.367                    20025835.230
 118445454.175 7  92295232.29345  22539422.883                    22539432.422
 11  7 29  0 36 30.0000000  0  8G10G17G28G09G12G02G04G27
 116584007.534 7  90844782.25945  22185192.414                    22185202.629
 115154752.728 7  89731054.442 7  21913206.859
 119762156.956 7  93321252.89544  22789980.203                    22789989.875
 116367889.355 7  90676362.42945  22144079.234                    22144088.039
 124297839.060 7  96855487.299 6  23653092.359
 111976407.784 8  87254438.49046  21308379.359                    21308386.277
 105265065.841 8  82024869.14946  20031258.023                    20031266.461
 118471606.908 7  92315611.00245  22544399.117                    22544408.871
 11  7 29  0 37  0.0000000  0  8G10G17G28G09G12G02G04G27
 116504515.678 7  90782840.61645  22170065.563                    22170075.750
 115192537.887 7  89760497.411 7  21920397.102
 119841043.918 7  93382723.19844  22804991.641                    22805001.512
 116390067.493 7  90693644.06545  22148298.883                    22148308.188
 124202400.020 6  96781119.261 6  23634930.836
 111923716.521 8  87213380.37546  21298352.211                    21298359.285
 105294087.837 8  82047483.68046  20036780.180                    20036789.051
 118498184.020 7  92336320.38145  22549457.102                    22549466.770
 11  7 29  0 37 30.0000000  0  8G10G17G28G09G12G02G04G27
 116425333.925 7  90721140.60645  22154998.266                    22155007.371
 115230411.157 8  89790009.026 7  21927604.078
 119920261.157 7  93444450.83544  22820066.211                    22820075.625
 116412835.621 7  90711385.45245  22152631.875                    22152640.953
 124107041.963 6  96706814.287 6  23616784.984
 111871388.975 8  87172605.69446  21288394.500                    21288401.129
 105323589.703 8  82070472.14646  20042394.383                    20042402.813
 118525183.980 7  92357359.26745  22554594.914                    22554604.645
 11  7 29  0 38  0.0000000  0  8G10G17G28G09G12G02G04G27
 116346465.458 7  90659684.67545  22139989.758                    22139999.141
 115268372.603 7  89819589.353 7  21934827.984
 119999807.635 7  93506435.04144  22835203.523                    22835213.395
 116436192.153 7  90729585.30645  22157076.266                    22157085.301
 124011766.792 6  96632573.919 6  23598653.969
 111819425.494 8  87132114.68946  21278505.984                    21278513.070
 105353569.321 8  82093832.87346  20048099.047                    20048107.813
 118552605.195 7  92378726.40845  22559812.961                    22559822.836
 11  7 29  0 38 30.0000000  0  8G10G17G28G09G12G02G04G27
 116267913.329 7  90598475.30045  22125041.609                    22125051.441
 115306422.845 8  89849238.878 7  21942068.492
 120079682.218 7  93568674.92744  22850402.633                    22850412.395
 116460135.226 7  90748242.22345  22161633.172                    22161641.930
 123916576.945 7  96558400.054 6  23580540.414
 111767826.494 8  87091907.70246  21268687.242                    21268694.277
 105384024.838 8  82117564.43646  20053894.813                    20053903.016
 118580445.864 7  92400420.40045  22565111.008                    22565120.730
 11  7 29  0 39  0.0000000  0  8G10G17G28G09G12G02G04G27
 116189680.735 7  90537514.87045  22110154.406                    22110163.707
 115344561.967 7  89878957.656 7  21949326.516
 120159883.696 7  93631169.50144  22865664.773                    22865675.082
 116484662.894 7  90767354.66845  22166300.195                    22166309.457
 123821474.657 7  96484294.448 6  23562442.828
 111716592.495 8  87051985.13846  21258937.680                    21258944.547
 105414954.466 8  82141665.43746  20059780.281                    20059789.051
 118608704.789 7  92422440.30645  22570488.539                    22570497.855
 11  7 29  0 39 30.0000000  0  8G10G17G28G09G12G02G04G27
 116111770.983 7  90476806.01045  22095329.039                    22095338.656
 115382790.054 8  89908745.761 7  21956601.063
 120240410.675 7  93693917.71644  22880988.820                    22880998.363
 116509773.099 7  90786921.03545  22171078.758                    22171087.559
 123726461.589 7  96410258.324 6  23544363.125
 111665723.506 8  87012346.99046  21249257.711                    21249264.867
 105446355.708 8  82166133.93646  20065755.578                    20065764.555
 118637379.942 6  92444784.55045  22575945.266                    22575954.961
 11  7 29  0 40  0.0000000  0  8G10G17G28G09G12G02G04G27
 116034187.359 7  90416351.30245  22080564.984                    22080574.277
 115421107.621 7  89938603.589 7  21963892.711
 120321262.310 7  93756918.91944  22896374.383                    22896384.070
 116535464.492 7  90806940.27845  22175967.836                    22175976.891
 123631540.293 7  96336293.737 6  23526299.609
 111615220.322 8  86972993.88746  21239647.281                    21239653.840
 105478227.152 8  82190968.82546  20071820.742                    20071829.711
 118666469.656 7  92467451.82245  22581480.570                    22581490.223
 11  7 29  0 40 30.0000000  0  8G10G17G28G09G12G02G04G27
 115956932.728 7  90356152.93045  22065863.969                    22065873.273
 115459514.684 7  89968531.157 7  21971201.523
 120402436.981 7  93820171.84344  22911821.695                    22911831.113
 116561734.930 7  90827410.71045  22180966.633                    22180975.918
 123536712.658 7  96262402.124 6  23508255.016
 111565082.412 8  86933925.42246  21230106.445                    21230112.961
 105510566.468 8  82216168.27946  20077974.977                    20077983.488
 118695971.866 7  92490440.52145  22587095.344                    22587104.836
 11  7 29  0 41  0.0000000  0  8G10G17G28G09G12G02G04G27
 115880010.544 7  90296213.59345  22051226.305                    22051235.145
 115498011.371 8  89998528.562 7  21978526.813
 120483933.737 7  93883675.70244  22927330.344                    22927339.902
 116588582.576 7  90848330.92445  22186075.688                    22186084.887
 123441981.363 7  96188585.609 6  23490228.180
 111515310.638 8  86895142.24946  21220635.109                    21220641.914
 105543371.676 8  82241730.77846  20084217.391                    20084226.164
 118725884.986 7  92513749.41545  22592786.945                    22592796.789
 11  7 29  0 41 30.0000000  0  8G10G17G28G09G12G02G04G27
 115803424.308 7  90236536.06645  22036652.602                    22036661.879
 115536598.498 7  90028596.424 7  21985869.758
 120565751.247 7  93947429.55444  22942899.445                    22942909.008
 116616005.806 7  90869699.64145  22191294.070                    22191303.414
 123347348.390 7  96114845.698 6  23472220.320
 111465905.408 8  86856644.68646  21211233.680                    21211240.141
 105576641.269 8  82267655.12946  20090548.477                    20090556.934
 118756207.475 7  92537377.29045  22598557.195                    22598566.852
 11  7 29  0 42  0.0000000  0  8G10G17G28G09G12G02G04G27
 115727176.989 7  90177122.60745  22022142.688                    22022152.609
 115575275.816 8  90058734.583 7  21993230.023
 120647888.302 7  94011432.38044  22958530.156                    22958539.871
 116644002.467 7  90891515.17145  22196622.109                    22196630.832
 123252815.644 7  96041183.855 6  23454231.023
 111416866.430 8  86818432.52546  21201901.383                    21201908.477
 105610372.779 8  82293939.41846  20096967.352                    20096975.938
 118786937.254 7  92561322.54545  22604405.719                    22604414.727
 11  7 29  0 42 30.0000000  0  8G10G17G28G09G12G02G04G27
 115651271.943 7  90117975.87945  22007698.344                    22007708.133
 115614044.201 7  90088943.692 7  22000607.469
 120730344.093 7  94075683.57244  22974220.234                    22974230.094
 116672570.942 7  90913776.28845  22202058.539                    22202067.273
 123158385.635 7  95967602.076 6  23436261.672
 111368194.777 8  86780506.58946  21192639.703                    21192646.340
 105644564.886 8  82320582.61346  20103473.867                    20103482.543
 118818072.932 7  92585584.06845  22610330.234                    22610340.039
 11  7 29  0 43  0.0000000  0  8G10G17G28G09G12G02G04G27
 115575712.666 7  90059098.55745  21993319.852                    21993329.109
 115652903.210 7  90119223.415 7  22008001.844
 120813117.056 7  94140181.91144  22989971.039                    22989981.199
 116701708.897 7  90936481.16145  22207603.398                    22207612.398
 123064060.788 7  95894102.272 7  23418311.945
 111319890.509 8  86742866.92746  21183447.242                    21183454.359
 105679215.133 8  82347582.80846  20110067.344                    20110076.359
 118849612.468 7  92610160.29845  22616332.242                    22616342.039
 11  7 29  0 43 30.0000000  0  9G10G17G28G09G12G02G04G27G05
 115500501.635 7  90000492.59545  21979007.594                    21979017.340
 115691853.530 7  90149574.295 7  22015413.742
 120896205.420 7  94204925.97644  23005782.953                    23005793.723
 116731413.872 7  90959627.84645  22213255.531                    22213265.445
 122969842.720 7  95820685.654 6  23400382.594
 111271953.394 8  86705513.36246  21174325.781                    21174332.250
 105714321.037 8  82374938.05346  20116747.641                    20116756.688
 118881553.704 7  92635049.53545  22622410.383                    22622419.855
 129695236.09716 101061302.90616  24680187.086
 11  7 29  0 44  0.0000000  0  9G10G17G28G09G12G02G04G27G05
 115425642.318 7  89942160.70045  21964762.438                    21964772.051
 115730894.873 7  90179996.113 7  22022843.367
 120979608.252 7  94269915.12744  23021654.055                    23021663.668
 116761683.802 7  90983214.77045  22219015.664                    22219025.215
 122875733.959 7  95747354.233 6  23382474.297
 111224383.615 8  86668446.03546  21165273.422                    21165280.215
 105749880.752 8  82402646.91946  20123514.570                    20123523.426
 118913894.724 7  92660250.29245  22628564.547                    22628574.023
 129590586.213 6 100979757.826 6  24660272.422
 11  7 29  0 44 30.0000000  0  9G10G17G28G09G12G02G04G27G05
 115351138.300 7  89884105.68845  21950584.758                    21950594.098
 115770028.484 7  90210489.809 7  22030290.008
 121063324.276 7  94335148.30044  23037584.734                    23037594.887
 116792517.736 7  91007241.18745  22224883.078                    22224893.074
 122781737.058 7  95674109.966 6  23364587.461
 111177182.072 8  86631665.63946  21156290.938                    21156297.754
 105785892.956 8  82430708.37546  20130367.797                    20130375.984
 118946634.359 7  92685761.67545  22634794.523                    22634804.930
 129485849.155 6 100898144.863 6  24640342.195
 11  7 29  0 45  0.0000000  0  9G10G17G28G09G12G02G04G27G05
 115276992.573 7  89826329.83145  21936475.141                    21936484.711
 115809254.662 7  90241055.640 7  22037754.797
 121147352.390 7  94400624.66244  23053574.867                    23053584.148
 116823912.935 7  91031704.93845  22230858.008                    22230867.441
 122687854.232 7  95600954.574 6  23346722.609
 111130348.650 8  86595172.09446  21147379.203                    21147386.043
 105822355.237 8  82459120.53846  20137306.266                    20137315.238
 118979770.477 7  92711581.98345  22641100.133                    22641110.203
 129381027.000 6 100816465.570 6  24620394.453
 11  7 29  0 45 30.0000000  0  9G10G17G28G09G12G02G04G27G05
 115203208.354 7  89768835.69045  21922435.023                    21922444.137
 115848573.003 7  90271693.295 7  22045236.547
 121231691.070 7  94466343.05644  23069624.219                    23069633.406
 116855867.221 7  91056604.35845  22236938.359                    22236948.203
 122594087.833 7  95527889.875 6  23328878.852
 111083883.416 8  86558965.44346  21138537.008                    21138543.598
 105859265.478 8  82487881.76546  20144330.398                    20144338.539
 119013301.199 7  92737709.78745  22647481.000                    22647490.520
 129276122.355 6 100734721.985 6  24600431.320
 11  7 29  0 46  0.0000000  0  9G10G17G28G09G12G02G04G27G05
 115129788.803 7  89711625.69345  21908463.016                    21908473.145
 115887984.329 8  90302403.407 7  22052736.367
 121316339.311 7  94532302.61144  23085732.453                    23085741.367
 116888378.677 7  91081937.92045  22243125.430                    22243135.027
 122500440.062 7  95454917.657 6  23311057.813
 111037786.942 8  86523046.13446  21129764.961                    21129771.770
 105896621.741 8  82516990.55146  20151438.617                    20151447.176
 119047224.634 7  92764143.59345  22653936.250                    22653945.879
 129171138.079 6 100652916.326 6  24580453.453
 11  7 29  0 46 30.0000000  0  9G10G17G28G09G12G02G04G27G05
 115056737.170 7  89654702.39945  21894562.266                    21894571.488
 115927488.855 7  90333186.146 7  22060253.836
 121401295.535 7  94598502.21044  23101898.242                    23101908.582
 116921445.465 7  91107704.21145  22249417.734                    22249427.105
 122406913.414 7  95382039.788 6  23293260.609
 110992059.303 8  86487414.23946  21121063.289                    21121070.285
 105934421.819 8  82546445.15446  20158632.047                    20158640.168
 119081538.842 7  92790881.90245  22660465.922                    22660475.832
 129066076.071 7 100571050.144 6  24560461.039
 11  7 29  0 47  0.0000000  0  9G10G17G28G09G12G02G04G27G05
 114984056.532 7  89598068.17045  21880731.305                    21880741.027
 115967086.879 7  90364041.717 7  22067789.070
 121486558.437 7  94664940.75244  23118123.938                    23118133.602
 116955065.065 7  91133901.26945  22255815.141                    22255825.242
 122313509.956 7  95309257.909 6  23275486.477
 110946700.519 8  86452069.75246  21112432.234                    21112438.691
 105972663.903 8  82576244.18646  20165908.727                    20165917.598
 119116241.981 6  92817923.27145  22667069.766                    22667079.898
 128960939.357 6 100489125.734 6  24540453.961
 11  7 29  0 47 30.0000000  0  9G10G17G28G09G12G02G04G27G05
 114911749.958 7  89541725.42845  21866971.914                    21866981.453
 116006779.103 8  90394970.726 7  22075342.531
 121572126.541 7  94731617.11944  23134407.023                    23134416.711
 116989235.629 7  91160527.65345  22262318.070                    22262327.227
 122220231.930 7  95236573.785 6  23257736.344
 110901710.832 8  86417012.86946  21103870.500                    21103876.934
 106011345.820 8  82606385.94846  20173269.805                    20173278.367
 119151332.079 7  92845266.16944  22673747.305                    22673757.254
 128855730.537 6 100407145.133 5  24520432.813
 11  7 29  0 48  0.0000000  0  9G10G17G28G09G12G02G04G27G05
 114839820.537 7  89485676.56945  21853284.094                    21853293.777
 116046565.265 8  90425972.900 7  22082913.422
 121657998.441 7  94798530.20844  23150747.922                    23150757.828
 117023954.466 7  91187581.26145  22268924.461                    22268934.469
 122127081.924 7  95163989.381 6  23240011.188
 110857090.221 8  86382243.58246  21095379.547                    21095386.164
 106050464.961 8  82636868.39646  20180713.977                    20180722.539
 119186806.837 7  92872908.79545  22680498.352                    22680508.156
 128750451.693 6 100325109.950 6  24500399.016
 11  7 29  0 48 30.0000000  0  9G10G17G28G09G12G02G04G27G05
 114768271.915 7  89429924.43945  21839668.508                    21839678.492
 116086446.250 8  90457048.978 7  22090502.594
 121744172.943 7  94865679.10644  23167146.586                    23167156.359
 117059220.115 7  91215060.96945  22275634.938                    22275644.820
 122034062.181 7  95091506.471 6  23222309.180
 110812839.419 8  86347762.45446  21086958.953                    21086965.789
 106090020.184 8  82667690.65346  20188241.055                    20188249.977
 119222665.184 7  92900850.33645  22687321.711                    22687331.781
 128645106.546 6 100243023.077 6  24480351.758
 11  7 29  0 49  0.0000000  0  9G10G17G28G09G12G02G04G27G05
 114697106.594 7  89374470.98145  21826126.531                    21826135.613
 116126421.880 7  90488198.809 7  22098110.180
 121830648.476 7  94933062.55944  23183601.828                    23183612.004
 117095029.271 7  91242964.17245  22282450.094                    22282458.766
 121941174.814 7  95019126.737 6  23204633.648
 110768957.569 8  86313568.82346  21078608.367                    21078615.137
 106130008.500 8  82698850.38246  20195850.563                    20195859.141
 119258904.201 7  92929088.48445  22694218.156                    22694227.477
 128539696.536 6 100160885.664 6  24460292.867
 11  7 29  0 49 30.0000000  0  9G10G17G28G09G12G02G04G27G05
 114626327.662 7  89319318.61345  21812657.570                    21812667.016
 116166493.087 8  90519423.107 7  22105735.117
 121917423.888 7  95000679.70044  23200116.000                    23200125.137
 117131379.778 7  91271289.22245  22289366.891                    22289376.613
 121848422.170 7  94946851.981 6  23186983.758
 110725445.537 8  86279663.35546  21070328.328                    21070335.000
 106170427.675 8  82730345.84646  20203542.320                    20203550.578
 119295522.032 7  92957621.82644  22701185.594                    22701196.066
 128434224.397 6 100078699.791 6  24440222.359
 11  7 29  0 50  0.0000000  0  9G10G17G28G09G12G02G04G27G05
 114555938.552 7  89264470.00745  21799263.141                    21799272.266
 116206659.894 7  90550721.899 7  22113378.813
 122004497.309 7  95068529.05044  23216684.977                    23216694.660
 117168269.829 7  91300034.69845  22296386.883                    22296396.395
 121755806.664 7  94874684.083 6  23169358.906
 110682302.907 8  86246045.75146  21062118.672                    21062125.617
 106211276.073 8  82762175.77046  20211315.594                    20211323.816
 119332516.834 7  92986448.91344  22708225.867                    22708236.320
 128328693.285 6  99996468.024 6  24420139.961
 11  7 29  0 50 30.0000000  0  9G10G17G28G09G12G02G04G27G05
 114485942.273 7  89209927.50545  21785942.867                    21785952.563
 116246922.440 7  90582095.284 7  22121040.078
 122091867.486 7  95136609.66243  23233310.914                    23233320.219
 117205697.063 7  91329198.75045  22303509.539                    22303518.844
 121663330.617 7  94802624.835 7  23151761.359
 110639529.996 8  86212716.21346  21053979.047                    21053986.121
 106252551.400 8  82794338.36446  20219169.563                    20219178.164
 119369886.538 7  93015568.10744  22715337.383                    22715347.121
 128223106.128 6  99914192.590 6  24400046.414
 11  7 29  0 51  0.0000000  0  9G10G17G28G09G12G02G04G27G05
 114416341.960 7  89155693.53445  21772698.469                    21772707.648
 116287281.321 7  90613543.745 7  22128720.398
 122179533.230 7  95204920.54844  23249993.289                    23250003.391
 117243659.347 7  91358779.71845  22310733.039                    22310742.289
 121570996.620 7  94730676.307 6  23134190.797
 110597126.886 8  86179674.85146  21045910.031                    21045916.855
 106294251.653 8  82826832.06246  20227105.188                    20227113.969
 119407629.058 7  93044977.81344  22722519.633                    22722529.270
 128117464.978 6  99831875.096 6  24379944.563
 11  7 29  0 51 30.0000000  0  9G10G17G28G09G12G02G04G27G05
 114347140.044 7  89101770.02345  21759530.297                    21759538.836
 116327736.764 8  90645067.447 7  22136418.602
 122267492.217 7  95273459.91443  23266731.258                    23266741.117
 117282153.286 7  91388774.97045  22318058.422                    22318067.664
 121478806.670 7  94658839.992 6  23116647.422
 110555093.030 8  86146921.20246  21037911.336                    21037918.512
 106336374.023 8  82859654.68446  20235120.664                    20235129.262
 119445741.874 7  93074676.08644  22729771.469                    22729782.336
 128011772.257 6  99749517.386 6  24359831.664
 11  7 29  0 52  0.0000000  0  9G10G17G28G09G12G02G04G27G05
 114278340.247 7  89048159.83045  21746437.445                    21746446.949
 116368289.704 8  90676667.114 7  22144136.141
 122355743.513 7  95342227.06944  23283524.734                    23283534.590
 117321177.375 7  91419183.32445  22325484.586                    22325493.742
 121386763.449 7  94587118.026 6  23099132.055
 110513429.231 8  86114455.93046  21029982.820                    21029989.711
 106378916.787 8  82892804.88846  20243216.141                    20243225.000
 119484223.417 7  93104661.65344  22737094.797                    22737104.152
 127906030.852 6  99667121.786 6  24339708.922
 11  7 29  0 52 30.0000000  0  9G10G17G28G09G12G02G04G27G05
 114209945.518 7  88994865.29145  21733422.469                    21733431.602
 116408940.068 7  90708342.705 7  22151870.938
 122444285.538 6  95411220.77343  23300373.680                    23300384.543
 117360729.177 7  91450002.88345  22333010.945                    22333020.172
 121294869.218 7  94515512.142 7  23081645.484
 110472135.338 8  86082278.87446  21022124.938                    21022131.660
 106421877.943 8  82926281.10646  20251391.539                    20251399.797
 119523071.512 7  93134932.85744  22744487.617                    22744496.879
 127800243.501 7  99584690.339 6  24319578.922
 11  7 29  0 53  0.0000000  0  9G10G17G28G09G12G02G04G27G05
 114141958.831 7  88941888.69845  21720484.656                    21720494.336
 116449688.176 7  90740094.447 7  22159625.633
 122533116.878 6  95480439.91944  23317278.398                    23317288.004
 117400806.205 7  91481231.68845  22340637.305                    22340646.824
 121203126.209 7  94444024.114 6  23064187.594
 110431211.087 8  86050389.86146  21014337.383                    21014344.078
 106465255.226 8  82960081.58046  20259646.203                    20259654.613
 119562284.171 7  93165488.14244  22751949.344                    22751959.379
 127694413.276 6  99502225.473 6  24299439.945
 11  7 29  0 53 30.0000000  0  9G10G17G28G09G12G02G04G27G05
 114074382.897 7  88889232.15145  21707625.531                    21707634.602
 116490534.153 7  90771922.463 7  22167398.078
 122622235.837 7  95549883.15544  23334236.992                    23334247.105
 117441405.333 7  91512867.35945  22348362.914                    22348371.961
 121111536.821 7  94372655.770 7  23046758.664
 110390656.265 8  86018788.72446  21006619.844                    21006626.723
 106509045.737 8  82994204.04846  20267978.883                    20267987.609
 119601858.842 7  93196325.50944  22759480.281                    22759490.039
 127588542.133 6  99419728.763 6  24279292.305
 11  7 29  0 54  0.0000000  0  9G10G17G28G09G12G02G04G27G05
 114007220.855 7  88836898.13345  21694845.367                    21694854.473
 116531478.829 7  90803827.387 7  22175189.695
 122711641.018 6  95619549.42343  23351250.805                    23351260.430
 117482524.596 7  91544908.30845  22356187.680                    22356197.730
 121020103.362 7  94301408.934 7  23029358.508
 110350470.838 8  85987475.41746  20998972.680                    20998979.496
 106553247.530 8  83028646.98746  20276390.047                    20276398.816
 119641793.572 7  93227443.43144  22767079.789                    22767089.215
 127482632.417 7  99337202.007 6  24259139.023
 11  7 29  0 54 30.0000000  0  9G10G17G28G09G12G02G04G27G05
 113940475.522 7  88784888.83645  21682144.102                    21682153.082
 116572522.522 7  90835809.463 7  22183000.063
 122801330.690 7  95689437.40743  23368317.453                    23368327.539
 117524161.550 7  91577352.63045  22364111.078                    22364120.684
 120928828.377 7  94230285.606 6  23011989.797
 110310654.969 8  85956450.08246  20991396.297                    20991402.984
 106597858.653 8  83063408.89046  20284879.578                    20284888.750
 119682086.204 7  93258840.25845  22774747.227                    22774757.086
 127376687.480 7  99254647.791 6  24238977.555
 11  7 29  0 55  0.0000000  0  9G10G17G28G09G12G02G04G27G05
 113874150.755 7  88733207.23545  21669522.867                    21669531.973
 116613665.679 8  90867869.049 7  22190829.414
 122891303.881 7  95759546.31643  23385439.102                    23385449.063
 117566313.692 7  91610198.41745  22372132.781                    22372141.941
 120837714.398 7  94159287.713 7  22994652.008
 110271209.137 8  85925713.09146  20983889.797                    20983896.832
 106642877.182 8  83098488.23746  20293446.727                    20293455.277
 119722735.029 7  93290514.61244  22782482.289                    22782492.504
 127270710.295 7  99172068.434 6  24218810.961
 11  7 29  0 55 30.0000000  0  9G10G17G28G09G12G02G04G27G05
 113808249.510 7  88681855.65345  21656982.469                    21656991.215
 116654909.068 7  90900006.737 7  22198677.227
 122981558.836 7  95829874.77644  23402614.719                    23402623.934
 117608978.641 7  91643443.78545  22380250.922                    22380261.012
 120746764.217 7  94088417.467 6  22977344.617
 110232133.460 8  85895264.53646  20976453.922                    20976460.926
 106688301.093 8  83133883.47846  20302090.391                    20302099.250
 119763737.920 7  93322464.87344  22790285.367                    22790294.793
 127164703.646 6  99089466.083 6  24198638.352
 11  7 29  0 56  0.0000000  0  9G10G17G28G09G12G02G04G27G05
 113742774.006 7  88630835.82945  21644522.844                    21644531.887
 116696252.613 8  90932222.469 7  22206545.109
 123072093.521 7  95900421.18044  23419843.102                    23419852.871
 117652153.515 7  91677086.50445  22388466.945                    22388476.555
 120655979.758 7  94017676.348 6  22960068.883
 110193427.053 8  85865103.71346  20969088.063                    20969094.836
 106734127.549 8  83169592.38446  20310810.508                    20310819.777
 119805092.128 7  93354688.88345  22798154.602                    22798164.676
 127058669.733 6  99006842.544 6  24178460.898
 11  7 29  0 56 30.0000000  0  9G10G17G28G09G12G02G04G27G05
 113677727.621 7  88580150.36445  21632144.625                    21632154.039
 116737696.709 7  90964516.553 7  22214431.414
 123162906.846 7  95971184.73443  23437123.250                    23437132.902
 117695835.827 7  91711124.64645  22396779.594                    22396788.992
 120565363.558 7  93947066.361 6  22942824.852
 110155090.135 8  85835230.81046  20961793.258                    20961800.152
 106780354.244 8  83205613.17146  20319607.422                    20319616.145
 119846795.545 7  93387184.99144  22806090.531                    22806100.391
 126952611.163 6  98924199.798 6  24158276.984
 11  7 29  0 57  0.0000000  0  9G10G17G28G09G12G02G04G27G05
 113613113.312 7  88529801.59145  21619848.906                    21619857.949
 116779241.967 7  90996889.471 7  22222337.656
 123253997.060 7  96042164.03443  23454458.047                    23454467.918
 117740023.245 7  91745556.35345  22405188.039                    22405198.906
 120474917.936 7  93876589.280 7  22925613.813
 110117122.473 8  85805645.64346  20954568.094                    20954575.055
 106826979.175 8  83241944.26946  20328479.977                    20328489.070
 119888846.091 7  93419951.60144  22814092.367                    22814102.598
 126846531.177 6  98841540.361 6  24138090.969
 11  7 29  0 57 30.0000000  0  9G10G17G28G09G12G02G04G27G05
 113548933.649 7  88479791.50645  21607636.094                    21607645.539
 116820888.632 7  91029341.386 7  22230262.539
 123345362.470 7  96113357.80543  23471843.938                    23471853.656
 117784713.181 7  91780379.63645  22413692.688                    22413702.000
 120384645.411 7  93806247.103 7  22908435.508
 110079524.110 8  85776348.24446  20947413.102                    20947420.109
 106874000.096 8  83278583.93646  20337427.570                    20337436.398
 119931241.441 7  93452986.91045  22822160.266                    22822170.512
 126740432.331 6  98758866.175 6  24117900.172
 11  7 29  0 58  0.0000000  0  9G10G17G28G09G12G02G04G27G05
 113485191.550 7  88430122.37445  21595506.234                    21595515.820
 116862637.450 7  91061872.911 7  22238207.000
 123437001.550 6  96184764.79143  23489282.750                    23489292.742
 117829902.791 7  91815592.26945  22422291.875                    22422301.527
 120294548.466 7  93736041.755 7  22891290.570
 110042294.974 8  85747338.55146  20940328.961                    20940335.094
 106921414.825 8  83315530.45646  20346450.484                    20346458.941
 119973979.532 7  93486289.27244  22830293.195                    22830302.465
 126634317.186 6  98676179.282 6  24097706.930
 11  7 29  0 58 30.0000000  0  9G10G17G28G09G12G02G04G27G05
 113421889.908 7  88380796.44945  21583460.039                    21583469.242
 116904488.709 7  91094484.266 7  22246171.250
 123528912.394 6  96256383.55843  23506772.297                    23506781.980
 117875589.127 7  91851191.99145  22430985.734                    22430995.613
 120204629.648 7  93665975.199 7  22874179.992
 110005434.949 8  85718616.47746  20933314.664                    20933321.051
 106969220.755 8  83352781.82146  20355547.680                    20355556.289
 120017057.934 7  93519856.81744  22838490.578                    22838500.012
 126528188.384 7  98593481.800 6  24077511.727
 11  7 29  0 59  0.0000000  0  9G10G17G28G09G12G02G04G27G05
 113359031.780 7  88331816.12745  21571498.367                    21571507.930
 116946443.001 7  91127175.899 7  22254154.680
 123621093.520 6  96328212.89743  23524314.438                    23524323.703
 117921769.674 7  91887176.80144  22439773.922                    22439782.918
 120114891.025 7  93596049.040 7  22857102.758
 109968943.440 8  85690181.56146  20926370.656                    20926377.148
 107017415.866 8  83390336.44346  20364718.695                    20364727.707
 120060474.378 7  93553687.77044  22846752.352                    22846762.270
 126422048.655 7  98510775.713 6  24057313.891
 11  7 29  0 59 30.0000000  0  9G10G17G28G09G12G02G04G27G05
 113296620.038 7  88283183.63145  21559622.063                    21559631.797
 116988500.438 7  91159947.911 7  22262158.430
 123713543.396 6  96400251.69443  23541906.484                    23541917.180
 117968441.952 7  91923544.76745  22448655.531                    22448664.801
 120025335.313 7  93526265.432 7  22840061.242
 109932820.726 8  85662034.00946  20919496.445                    20919503.336
 107065997.750 8  83428192.44446  20373963.422                    20373972.832
 120104226.802 7  93587780.52044  22855077.938                    22855088.309
 126315900.911 7  98428063.386 6  24037114.328
 11  7 29  1  0  0.0000000  0  9G10G17G28G09G12G02G04G27G05
 113234657.327 7  88234901.02645  21547831.141                    21547839.977
 117030661.447 7  91192800.611 7  22270181.234
 123806260.169 6  96472498.46143  23559549.039                    23559560.547
 118015603.169 7  91960293.73745  22457629.633                    22457639.246
 119935965.109 7  93456626.362 7  22823054.016
 109897066.497 8  85634173.59646  20912692.938                    20912699.328
 107114964.294 8  83466348.18846  20383281.578                    20383290.723
 120148312.628 7  93622133.06144  22863467.109                    22863478.137
 126209747.939 7  98345346.998 6  24016914.500
 11  7 29  1  0 30.0000000  0  9G10G17G28G09G12G02G04G27G05
 113173146.930 7  88186970.88045  21536125.906                    21536135.082
 117072926.687 7  91225734.540 7  22278224.016
 123899242.511 6  96544952.13543  23577244.422                    23577253.711
 118063250.639 7  91997421.59245  22466696.422                    22466706.461
 119846782.552 7  93387133.505 7  22806083.289
 109861680.580 8  85606600.17746  20905959.031                    20905965.961
 107164313.068 8  83504801.76746  20392672.289                    20392681.359
 120192729.747 7  93656743.75344  22871919.672                    22871930.535
 126103592.554 7  98262628.704 6  23996713.023
 11  7 29  1  1  0.0000000  0  9G10G17G28G09G12G02G04G27G05
 113112091.574 7  88139395.30845  21524507.352                    21524516.434
 117115296.778 7  91258750.175 7  22286286.570
 123992488.429 6  96617611.23643  23594988.695                    23594998.582
 118111381.508 7  92034926.15145  22475855.953                    22475865.152
 119757790.248 7  93317788.922 7  22789148.781
 109826662.839 8  85579313.65346  20899295.148                    20899302.039
 107214041.885 8  83543551.48046  20402135.516                    20402144.152
 120237475.789 7  93691610.74444  22880434.711                    22880444.625
 125997437.504 7  98179910.684 6  23976512.461
 11  7 29  1  1 30.0000000  0  9G10G17G28G09G12G02G04G27G05
 113051494.186 7  88092176.58845  21512976.297                    21512985.121
 117157771.862 7  91291847.626 7  22294369.164
 124085996.518 6  96690474.58443  23612782.633                    23612792.641
 118159993.138 7  92072805.30144  22485106.023                    22485115.516
 119668990.910 7  93248594.676 7  22772250.039
 109792013.206 8  85552313.96546  20892701.570                    20892708.359
 107264148.636 8  83582595.69546  20411670.344                    20411679.164
 120282548.708 7  93726732.44845  22889011.500                    22889022.430
 125891285.741 7  98097195.229 6  23956312.570
 11  7 29  1  2  0.0000000  0  9G10G17G28G09G12G02G04G27G05
 112991357.185 7  88045316.61145  21501532.641                    21501541.734
 117200352.573 7  91325027.369 7  22302472.031
 124179765.112 6  96763540.94843  23630625.813                    23630636.266
 118209082.926 7  92111057.04945  22494447.656                    22494457.773
 119580386.858 7  93179552.602 7  22755389.633
 109757731.594 8  85525601.05146  20886178.219                    20886184.957
 107314630.844 8  83621932.47146  20421277.102                    20421285.406
 120327945.934 7  93762106.86544  22897650.313                    22897660.953
 125785139.796 7  98014484.258 6  23936113.063
 11  7 29  1  2 30.0000000  0  9G10G17G28G09G12G02G04G27G05
 112931683.399 7  87998817.59345  21490177.047                    21490186.375
 117243039.263 7  91358289.700 7  22310595.500
 124273792.038 6  96836808.61543  23648518.500                    23648528.824
 118258647.963 7  92149679.12244  22503879.523                    22503889.289
 119491980.512 7  93110664.576 7  22738566.578
 109723817.316 8  85499174.36646  20879724.531                    20879731.301
 107365485.884 8  83661559.77446  20430954.094                    20430963.152
 120373665.097 7  93797732.13344  22906350.984                    22906360.637
 125679002.409 6  97931780.004 6  23915915.672
 11  7 29  1  3  0.0000000  0  9G10G17G28G09G12G02G04G27G05
 112872475.192 7  87952681.36845  21478909.953                    21478918.926
 117285832.163 7  91391634.785 7  22318738.172
 124368075.483 6  96910276.15144  23666460.930                    23666470.699
 118308684.747 7  92188668.79545  22513401.484                    22513410.879
 119403774.505 7  93041932.666 7  22721781.602
 109690269.830 8  85473033.49346  20873340.719                    20873347.328
 107416711.402 8  83701475.75146  20440702.359                    20440711.211
 120419703.427 7  93833606.10944  22915112.188                    22915121.703
 125572876.080 6  97849084.368 6  23895720.641
 11  7 29  1  3 30.0000000  0  9G10G17G28G09G12G02G04G27G05
 112813736.483 7  87906910.96145  21467732.492                    21467741.090
 117328732.480 7  91425063.572 7  22326902.234
 124462614.394 6  96983942.72644  23684450.422                    23684461.211
 118359191.708 7  92228024.83145  22523012.367                    22523022.227
 119315771.245 7  92973358.735 7  22705035.156
 109657089.932 8  85447179.04646  20867026.664                    20867033.055
 107468306.029 8  83741679.33946  20450520.523                    20450529.320
 120466059.432 7  93869727.63144  22923933.102                    22923942.926
 125466764.624 6  97766400.305 6  23875528.094
 11  7 29  1  4  0.0000000  0  9G10G17G28G09G12G02G04G27G05
 112755469.556 7  87861508.19145  21456644.336                    21456653.516
 117371740.028 7  91458575.929 7  22335086.219
 124557406.952 6  97057807.00343  23702488.391                    23702499.313
 118410165.383 7  92267744.54145  22532712.602                    22532722.137
 119227973.235 7  92904944.735 7  22688327.539
 109624276.786 8  85421610.38346  20860782.766                    20860789.008
 107520266.847 8  83782168.27846  20460408.391                    20460416.879
 120512730.394 7  93906094.57244  22932814.047                    22932824.238
 125360670.169 7  97683729.483 6  23855339.047
 11  7 29  1  4 30.0000000  0  9G10G17G28G09G12G02G04G27G05
 112697677.083 8  87816475.10845  21445647.000                    21445656.035
 117414855.890 7  91492172.650 7  22343290.969
 124652451.136 6  97131867.30344  23720575.703                    23720585.926
 118461603.093 7  92307825.84545  22542500.484                    22542510.656
 119140383.005 7  92836692.625 7  22671659.859
 109591830.254 8  85396327.39446  20854607.766                    20854614.801
 107572591.745 8  83822940.91446  20470365.305                    20470374.496
 120559713.973 7  93942705.13544  22941754.219                    22941764.887
 125254595.474 6  97601074.058 6  23835153.703
 11  7 29  1  5  0.0000000  0  9G10G17G28G09G12G02G04G27G05
 112640361.136 7  87771813.35445  21434740.195                    21434749.082
 117458079.640 7  91525853.463 7  22351516.805
 124747745.202 6  97206122.31344  23738709.617                    23738719.848
 118513501.539 7  92348266.14445  22552376.594                    22552386.762
 119053002.830 7  92768604.199 7  22655032.406
 109559749.509 8  85371329.42646  20848503.273                    20848509.980
 107625277.751 8  83863994.93746  20480391.281                    20480399.387
 120607007.474 7  93979557.17244  22950754.406                    22950764.879
 125148543.327 7  97518436.165 6  23814972.039
 11  7 29  1  5 30.0000000  0  9G10G17G28G09G12G02G04G27G05
 112583525.274 7  87727525.69445  21423924.570                    21423933.129
 117501412.429 7  91559619.242 7  22359762.289
 124843287.445 6  97280570.72943  23756891.320                    23756901.391
 118565858.195 7  92389063.50145  22562339.664                    22562350.020
 118965835.566 7  92700681.639 7  22638444.648
 109528034.924 8  85346616.78046  20842468.414                    20842474.781
 107678323.188 8  83905329.02746  20490485.602                    20490494.387
 120654608.839 7  94016649.09844  22959812.602                    22959822.996
 125042516.978 7  97435818.384 6  23794795.648
 11  7 29  1  6  0.0000000  0  9G10G17G28G09G12G02G04G27G05
 112527171.023 8  87683613.30345  21413200.648                    21413209.652
 117544854.396 7  91593470.078 7  22368029.094
 124939075.202 6  97355210.44043  23775118.734                    23775129.148
 118618669.406 7  92430215.05944  22572389.797                    22572399.063
 118878883.573 7  92632926.849 7  22621897.977
 109496685.251 8  85322188.46946  20836502.625                    20836509.223
 107731725.021 8  83946940.83546  20500647.594                    20500656.480
 120702514.870 7  94053978.43844  22968929.086                    22968939.281
 124936518.598 7  97353222.391 6  23774624.875
 11  7 29  1  6 30.0000000  0  9G10G17G28G09G12G02G04G27G05
 112471302.227 7  87640079.19945  21402569.320                    21402578.375
 117588406.185 7  91627406.498 7  22376316.719
 125035107.785 6  97430040.93343  23793392.859                    23793402.934
 118671933.470 7  92471719.47644  22582525.133                    22582535.293
 118792149.425 7  92565341.818 7  22605392.961
 109465701.146 8  85298045.02946  20830606.547                    20830613.078
 107785481.475 8  83988828.96846  20510877.063                    20510885.898
 120750724.057 7  94091543.99744  22978103.086                    22978113.145
 124830551.708 7  97270650.917 6  23754460.117
 11  7 29  1  7  0.0000000  0  9G10G17G28G09G12G02G04G27G05
 112415921.576 8  87596925.46845  21392030.703                    21392039.660
 117632068.562 7  91661429.087 7  22384625.313
 125131383.357 6  97505060.80442  23811713.141                    23811723.734
 118725647.036 7  92513574.16344  22592746.180                    22592756.863
 118705635.572 7  92497928.444 7  22588930.258
 109435082.190 8  85274186.10146  20824779.586                    20824786.504
 107839590.376 8  84030991.73446  20521173.391                    20521182.617
 120799233.834 7  94129343.79044  22987333.773                    22987344.203
 124724618.795 7  97188105.937 6  23734300.891
 11  7 29  1  7 30.0000000  0  9G10G17G28G09G12G02G04G27G05
 112361031.261 8  87554153.82445  21381584.969                    21381594.266
 117675841.569 7  91695537.885 7  22392955.031
 125227899.844 6  97580268.39542  23830080.195                    23830090.234
 118779806.976 7  92555776.68944  22603052.836                    22603062.793
 118619344.678 7  92430688.788 7  22572509.445
 109404827.534 8  85250611.04746  20819022.359                    20819028.984
 107894049.114 8  84073427.10046  20531536.852                    20531545.605
 120848041.658 7  94167375.81644  22996621.680                    22996631.758
 124618722.672 7  97105589.585 6  23714150.484
 11  7 29  1  8  0.0000000  0  9G10G17G28G09G12G02G04G27G05
 112306633.445 8  87511765.93845  21371233.438                    21371242.270
 117719725.891 7  91729733.422 7  22401306.289
 125324655.326 6  97655662.20143  23848492.086                    23848502.527
 118834410.401 7  92598324.76944  22613443.469                    22613453.371
 118533278.952 7  92363624.593 7  22556131.898
 109374937.097 8  85227319.80346  20813334.328                    20813341.273
 107948855.447 8  84116133.32646  20541966.266                    20541974.777
 120897145.119 7  94205638.21044  23005965.664                    23005976.184
 124512866.367 7  97023104.323 6  23694006.422
 11  7 29  1  8 30.0000000  0  9G10G17G28G09G12G02G04G27G05
 112252731.020 8  87469764.07245  21360976.617                    21360985.270
 117763722.051 7  91764016.123 7  22409678.625
 125421648.131 6  97731240.92442  23866949.320                    23866959.641
 118889454.187 7  92641216.00345  22623918.422                    22623928.379
 118447441.281 7  92296738.114 7  22539797.516
 109345410.682 8  85204312.22246  20807715.867                    20807722.563
 108004006.974 8  84159108.53146  20552461.078                    20552469.828
 120946541.822 7  94244129.11844  23015365.508                    23015375.477
 124407052.822 7  96940652.374 6  23673870.328
 11  7 29  1  9  0.0000000  0  9G10G17G28G09G12G02G04G27G05
 112199326.235 8  87428149.99045  21350813.563                    21350822.953
 117807830.282 7  91798386.141 7  22418072.148
 125518876.441 6  97807003.11242  23885450.813                    23885461.703
 118944934.877 7  92684447.66345  22634475.914                    22634486.129
 118361833.867 7  92230031.045 7  22523506.383
 109316247.325 8  85181587.53446  20802166.211                    20802172.996
 108059500.838 8  84202350.49646  20563021.195                    20563030.336
 120996228.711 7  94282846.15744  23024820.906                    23024830.719
 124301284.337 7  96858235.548 6  23653743.523
 11  7 29  1  9 30.0000000  0  9G10G17G28G09G12G02G04G27G05
 112146422.494 8  87386926.31945  21340746.406                    21340755.367
 117852051.355 7  91832844.088 7  22426486.992
 125616338.170 6  97882947.22442  23903998.406                    23904008.445
 119000850.417 7  92728018.18744  22645116.641                    22645126.188
 118276459.871 7  92163505.889 7  22507261.031
 109287447.058 8  85159145.77746  20796685.680                    20796692.250
 108115335.732 8  84245858.18946  20573646.328                    20573654.941
 121046203.868 7  94321787.78244  23034331.148                    23034341.410
 124195564.173 7  96775856.351 6  23633625.477
 11  7 29  1 10  0.0000000  0  9G10G17G28G09G12G02G04G27G05
 112094022.057 8  87346094.84245  21330775.195                    21330783.918
 117896386.039 7  91867390.569 7  22434923.516
 125714031.555 6  97959071.83942  23922588.703                    23922598.230
 119057197.491 7  92771924.96245  22655839.188                    22655849.145
 118191321.494 7  92097164.320 7  22491059.297
 109259009.539 8  85136986.68946  20791274.352                    20791280.914
 108171508.749 8  84289629.35846  20584335.664                    20584344.688
 121096464.623 7  94360951.96044  23043895.563                    23043905.660
 124089895.313 7  96693517.165 6  23613516.438
 11  7 29  1 10 30.0000000  0  9G10G17G28G09G12G02G04G27G05
 112042127.556 8  87305657.59845  21320899.641                    21320909.074
 117940834.582 7  91902025.799 7  22443382.094
 125811955.135 6  98035375.85043  23941222.742                    23941232.629
 119113973.066 7  92816165.62544  22666642.805                    22666652.188
 118106421.286 7  92031008.359 7  22474903.313
 109230934.368 8  85115109.94846  20785931.742                    20785938.406
 108228017.775 8  84333662.35646  20595088.750                    20595097.520
 121147008.557 7  94400336.79344  23053513.633                    23053523.590
 123984280.552 7  96611220.090 6  23593419.055
 11  7 29  1 11  0.0000000  0  9G10G17G28G09G12G02G04G27G05
 111990740.984 8  87265616.14645  21311120.945                    21311129.996
 117985397.360 7  91936750.018 7  22451862.070
 125910106.798 6  98111857.63243  23959900.906                    23959910.754
 119171174.062 7  92860737.79845  22677528.320                    22677537.750
 118021761.666 7  91965039.861 7  22458793.430
 109203220.991 8  85093515.12646  20780657.813                    20780664.406
 108284860.147 8  84377955.09646  20605905.383                    20605914.762
 121197833.104 7  94439940.28444  23063185.266                    23063195.645
 123878722.698 7  96528967.393 6  23573331.641
 11  7 29  1 11 30.0000000  0  9G10G17G28G09G12G02G04G27G05
 111939865.012 8  87225972.56845  21301439.500                    21301448.531
 118030075.068 7  91971563.826 7  22460364.188
 126008484.471 6  98188515.51942  23978620.992                    23978631.254
 119228797.291 7  92905638.99245  22688492.969                    22688503.027
 117937345.126 7  91899260.773 7  22442728.891
 109175868.905 8  85072201.82946  20775452.977                    20775459.672
 108342033.329 8  84422505.62646  20616785.461                    20616794.332
 121248935.613 7  94479760.36844  23072909.961                    23072919.906
 123773224.454 7  96446761.100 6  23553256.125
 11  7 29  1 12  0.0000000  0  9G10G17G28G09G12G02G04G27G05
 111889502.621 8  87186729.16445  21291856.023                    21291865.063
 118074868.314 7  92006467.639 7  22468888.008
 126107086.933 5  98265348.54942  23997384.266                    23997395.137
 119286840.307 7  92950867.26644  22699538.664                    22699548.918
 117853174.660 7  91833673.430 7  22426712.125
 109148878.206 8  85051170.13646  20770316.672                    20770323.367
 108399535.912 8  84467312.82946  20627727.555                    20627736.613
 121300313.961 7  94519795.39644  23082686.531                    23082697.113
 123667789.246 7  96364603.931 6  23533192.570
 11  7 29  1 12 30.0000000  0  9G10G17G28G09G12G02G04G27G05
 111839655.700 8  87147887.44446  21282370.063                    21282379.672
 118119777.382 7  92041461.725 7  22477433.859
 126205911.553 5  98342354.58742  24016189.086                    24016201.180
 119345299.492 7  92996419.83745  22710663.414                    22710673.359
 117769252.652 7  91768279.698 7  22410741.875
 109122247.818 8  85030419.21246  20765249.531                    20765255.746
 108457364.833 8  84512374.32146  20638732.203                    20638741.004
 121351965.258 7  94560043.10444  23092515.602                    23092526.199
 123562419.348 7  96282497.658 6  23513140.992
 11  7 29  1 13  0.0000000  0  9G10G17G28G09G12G02G04G27G05
 111790326.191 8  87109448.89945  21272983.570                    21272992.188
 118164802.518 7  92076546.239 7  22486001.609
 126304956.394 5  98419532.27342  24035037.555                    24035049.504
 119404171.426 7  93042294.03744  22721865.961                    22721875.852
 117685581.246 7  91703081.247 7  22394820.078
 109095976.913 8  85009948.39846  20760250.094                    20760256.453
 108515517.405 8  84557688.01246  20649798.008                    20649807.230
 121403886.701 7  94600501.30544  23102395.586                    23102406.707
 123457117.857 7  96200444.695 7  23493103.055
 11  7 29  1 13 30.0000000  0  9G10G17G28G09G12G02G04G27G05
 111741517.414 7  87071416.12445  21263695.242                    21263704.617
 118209944.792 7  92111722.034 7  22494591.727
 126404219.934 5  98496880.46652  24053926.508                    24053938.988
 119463453.636 7  93088487.94745  22733146.930                    22733157.105
 117602163.483 7  91638080.419 7  22378945.547
 109070065.852 8  84989757.99546  20755319.586                    20755326.129
 108573991.904 8  84603252.54946  20660925.516                    20660934.309
 121456076.331 7  94641168.49044  23112327.297                    23112338.199
 123351887.980 7  96118447.474 6  23473078.367
 11  7 29  1 14  0.0000000  0  9G10G17G28G09G12G02G04G27G05
 111693231.661 8  87033790.89146  21254506.773                    21254515.754
 118255204.719 7  92146989.514 7  22503204.125
 126503700.394 5  98574397.79742  24072857.813                    24072869.848
 119523142.939 7  93134999.04744  22744505.602                    22744515.375
 117519001.773 7  91573279.136 7  22363120.797
 109044513.937 8  84969847.43546  20750456.953                    20750463.402
 108632785.971 8  84649066.10046  20672113.859                    20672122.559
 121508531.659 7  94682042.68144  23122309.766                    23122320.109
 123246732.287 7  96036508.104 6  23453067.367
 11  7 29  1 14 30.0000000  0  9G10G17G28G09G12G02G04G27G05
 111645471.221 8  86996574.99946  21245418.180                    21245427.430
 118300582.848 7  92182349.083 7  22511839.797
 126603395.511 5                  24091828.711
 119583236.300 7  93181825.02644  22755940.828                    22755950.922
 117436098.833 7  91508679.464 7  22347344.867
 109019320.921 8  84950216.53646  20745662.938                    20745669.023
 108691897.274 8  84695126.84946  20683362.445                    20683371.008
 121561250.122 7  94723121.96044  23132341.289                    23132352.078
 123141653.885 7  95954628.945 6  23433071.594
 11  7 29  1 15  0.0000000  0  9G10G17G28G09G12G02G04G27G05
 111598237.880 8  86959769.83146  21236430.297                    21236438.887
 118346079.099 7  92217800.703 7  22520496.844
 126703303.280 5                  24110841.063
 119643729.971 7  93228962.90944  22767452.766                    22767462.645
 117353456.894 7  91444283.177 7  22331618.742
 108994485.501 8  84930864.29846  20740937.109                    20740943.473
 108751322.995 8  84741432.60446  20694670.516                    20694679.117
 121614228.539 7  94764403.78444  23142423.211                    23142433.266
 123036655.666 7  95872812.224 6  23413091.273
 11  7 29  1 15 30.0000000  0  9G10G17G28G09G12G02G04G27G05
 111551534.252 8  86923377.43646  21227542.727                    21227551.602
 118391694.484 7  92253345.162 7  22529177.305
 126803422.181 5                  24129893.617
 119704621.439 7  93276410.78244  22779039.859                    22779049.438
 117271078.618 7  91380092.335 7  22315942.867
 108970007.583 8  84911790.61646  20736278.906                    20736285.402
 108811061.142 8  84787981.79446  20706038.492                    20706046.832
 121667464.748 7  94805886.48644  23152553.734                    23152564.262
 122931740.401 7  95791060.217 6  23393126.461
 11  7 29  1 16  0.0000000  0  9G10G17G28G09G12G02G04G27G05
 111505363.182 8  86887400.01646  21218756.219                    21218765.270
 118437429.739 7  92288983.009 7  22537880.516
 126903750.062 5                  24148985.203
 119765907.594 7  93324166.18645  22790702.727                    22790712.473
 117188966.980 7  91316109.268 7  22300317.414
 108945887.209 8  84892995.55046  20731688.906                    20731695.066
 108871109.499 8  84834772.72546  20717465.156                    20717474.234
 121720956.380 7  94847568.20644  23162732.609                    23162742.902
 122826911.309 7  95709375.315 6  23373177.406
 11  7 29  1 16 30.0000000  0  9G10G17G28G09G12G02G04G27G05
 111459726.708 8  86851839.16346  21210072.297                    21210081.211
 118483285.241 7  92324714.555 7  22546606.789
 127004285.051 5                  24168116.727
 119827585.207 7  93372226.62944  22802439.508                    22802449.090
 117107124.454 7  91252335.922 7  22284742.938
 108922123.340 8  84874478.28546  20727166.750                    20727172.887
 108931465.589 8  84881803.44246  20728950.547                    20728959.113
 121774700.534 7  94889446.71344  23172960.102                    23172970.465
 122722171.330 7  95627759.849 7  23353246.930
 11  7 29  1 17  0.0000000  0  8G10G17G09G12G02G04G27G05
 111414626.487 8  86816696.18145  21201489.648                    21201498.406
 118529261.178 7  92360539.961 7  22555356.078
 119889650.593 7  93420589.22044  22814249.891                    22814259.734
 117025553.155 7  91188773.863 7  22269220.570
 108898714.533 8  84856237.68746  20722712.133                    20722718.594
 108992126.724 8  84929071.85346  20740494.078                    20740502.816
 121828694.428 7  94931519.82344  23183234.344                    23183245.414
 122617522.948 7  95546215.763 6  23333332.102
 11  7 29  1 17 30.0000000  0  8G10G17G09G12G02G04G27G05
 111370065.758 8  86781973.55146  21193010.078                    21193019.309
 118575358.983 7  92396460.325 7  22564127.875
 119952101.268 7  93469252.04244  22826134.031                    22826144.004
 116944256.413 7  91125425.783 7  22253750.414
 108875661.947 8  84838274.67246  20718325.070                    20718331.906
 109053091.248 8  84976576.66146  20752095.172                    20752103.609
 121882936.226 7  94973786.08244  23193556.555                    23193567.484
 122512969.716 7  95464745.836 7  23313436.000
 11  7 29  1 18  0.0000000  0  8G10G17G09G12G02G04G27G05
 111326046.015 8  86747672.48946  21184633.422                    21184642.344
 118621578.440 7  92432475.459 7  22572922.977
 120014933.459 7  93518212.14844  22838090.773                    22838100.512
 116863236.341 7  91062293.271 7  22238332.734
 108852964.068 8  84820588.04346  20714006.039                    20714012.684
 109114356.499 8  85024315.81846  20763753.305                    20763762.168
 121937422.670 7  95016242.98644  23203924.820                    23203936.039
 122408514.005 7  95383351.876 7  23293558.844
 11  7 29  1 18 30.0000000  0  9G10G17G28G09G12G02G04G27G05
 111282568.799 8  86713794.17646  21176359.945                    21176368.828
 118667919.392 7  92468585.277 7  22581741.188
 127408456.18715                  24245027.336
 120078143.522 7  93567466.70244  22850119.234                    22850128.695
 116782494.822 7  90999377.823 7  22222967.633
 108830619.821 8  84803176.98346  20709754.336                    20709760.422
 109175919.211 8  85072286.76346  20775468.641                    20775477.148
 121992150.731 7  95058888.17144  23214339.727                    23214350.090
 122304158.484 7  95302036.021 6  23273700.484
 11  7 29  1 19  0.0000000  0  9G10G17G28G09G12G02G04G27G05
 111239637.575 8  86680341.31746  21168190.461                    21168199.113
 118714383.496 7  92504791.069 7  22590583.117
 127509996.360 4                  24264349.828
 120141729.340 7  93617014.03944  22862218.289                    22862228.219
 116702035.287 7  90936682.102 7  22207657.117
 108808629.407 8  84786041.62246  20705569.406                    20705576.109
 109237778.260 8  85120488.61546  20787240.211                    20787249.000
 122047118.702 7  95101720.28544  23224799.633                    23224810.211
 122199906.810 7  95220801.064 7  23253862.383
 11  7 29  1 19 30.0000000  0  8G10G17G09G12G02G04G27G05
 111197253.975 8  86647315.15845  21160125.156                    21160133.863
 118760971.088 7  92541093.077 7  22599448.797
 120205687.357 6  93666851.41944  22874389.102                    22874400.266
 116621860.638 7  90874208.379 7  22192400.156
 108786992.263 8  84769181.54246  20701452.109                    20701458.293
 109299931.078 8  85168919.38146  20799067.211                    20799076.008
 122102323.874 7  95144737.23944  23235304.828                    23235315.402
 122095761.975 7  95139649.339 6  23234044.320
 11  7 29  1 20  0.0000000  0  8G10G17G09G12G02G04G27G05
 111155419.914 8  86614717.22746  21152164.367                    21152172.848
 118807682.527 7  92577491.593 7  22608337.961
 120270013.911 7  93716975.93744  22886630.977                    22886640.730
 116541972.641 7  90811957.996 7  22177198.266
 108765707.179 8  84752595.79046  20697401.469                    20697408.160
 109362375.062 8  85217577.02346  20810949.969                    20810958.957
 122157763.198 7  95187936.67044  23245854.266                    23245864.996
 121991726.428 7  95058582.803 7  23214246.922
 11  7 29  1 20 30.0000000  0  8G10G17G09G12G02G04G27G05
 111114138.020 8  86582549.54446  21144308.555                    21144317.508
 118854518.341 7  92613987.008 7  22617249.922
 120334706.029 7  93767385.32844  22898940.773                    22898951.348
 116462374.090 7  90749933.197 7  22162050.875
 108744773.774 8  84736284.07846  20693417.938                    20693424.422
 109425107.975 8  85266459.79946  20822887.625                    20822896.500
 122213434.110 7  95231316.55344  23256448.805                    23256458.684
 121887803.437 7  94977603.954 7  23194470.742
 11  7 29  1 21  0.0000000  0  8G10G17G09G12G02G04G27G05
 111073410.167 8  86550813.59146  21136558.172                    21136567.352
 118901479.210 7  92650579.881 6  22626186.781
 120399760.553 7  93818077.11244  22911320.781                    22911330.656
 116383067.779 7  90688136.091 7  22146959.305
 108724191.450 8  84720245.92746  20689501.578                    20689508.020
 109488127.306 8  85315565.76246  20834879.648                    20834888.695
 122269333.860 7  95274874.75544  23267085.094                    23267096.094
 121783995.584 7  94896714.837 6  23174717.172
 11  7 29  1 21 30.0000000  0  8G10G17G09G12G02G04G27G05
 111033238.408 8  86519510.95446  21128914.063                    21128922.688
 118948565.799 7  92687270.714 6  22635146.703
 120465174.371 7  93869048.86744  22923768.711                    22923778.270
 116304056.355 7  90626568.777 7  22131924.586
 108703960.009 8  84704481.18046  20685651.070                    20685657.371
 109551431.186 8  85364893.44446  20846926.266                    20846934.816
 122325460.215 7  95318609.49844  23277766.273                    23277776.906
 121680306.360 7  94815918.149 6  23154984.930
 11  7 29  1 22  0.0000000  0  8G10G17G09G12G02G04G27G05
 110993623.715 8  86488642.38146  21121375.648                    21121384.230
 118995777.989 7  92724059.419 7  22644131.117
 120530943.356 7  93920297.37444  22936284.055                    22936294.328
 116225341.992 8  90565232.937 7  22116945.102
 108684077.596 8  84688988.40346  20681867.867                    20681874.273
 109615016.301 8  85414440.27846  20859026.008                    20859034.824
 122381809.561 7  95362518.01544  23288489.398                    23288500.188
 121576737.744 7  94735215.435 7  23135276.789
 11  7 29  1 22 30.0000000  0  8G10G17G09G12G02G04G27G05
 110954569.173 8  86458210.30545  21113943.758                    21113952.125
 119043116.801 7  92760946.774 7  22653139.648
 120597064.886 7  93971820.61144  22948866.453                    22948877.148
 116146927.346 7  90504130.645 7  22102023.367
 108664544.544 8  84673767.84446  20678151.211                    20678157.203
 109678881.039 8  85464204.99346  20871178.844                    20871188.066
 122438380.160 7  95406598.93744  23299254.391                    23299265.527
 121473293.461 7  94654609.622 7  23115591.969
 11  7 29  1 23  0.0000000  0  8G10G17G09G12G02G04G27G05
 110916076.811 8  86428216.28746  21106618.570                    21106627.668
 119090583.027 7  92797933.457 7  22662171.906
 120663535.659 7  94023615.94744  22961515.297                    22961526.422
 116068815.242 7  90443264.109 7  22087159.172
 108645360.287 8  84658819.09946  20674500.320                    20674506.707
 109743023.307 8  85514185.96446  20883384.805                    20883393.875
 122495169.372 7  95450850.19844  23310061.297                    23310072.090
 121369976.666 7  94574103.137 7  23095930.938
 11  7 29  1 23 30.0000000  0  8G10G17G09G12G02G04G27G05
 110878148.387 8  86398661.69446  21099401.164                    21099409.984
 119138176.897 7  92835019.570 7  22671228.383
 120730352.219 7  94075680.74944  22974230.016                    22974240.949
 115991007.904 7  90382635.044 7  22072352.516
 108626523.563 8  84644141.14946  20670915.648                    20670921.883
 109807440.206 8  85564380.93246  20895643.133                    20895652.055
 122552174.092 7  95495269.41544  23320908.570                    23320919.445
 121266789.758 7  94493697.880 7  23076295.180
 11  7 29  1 24  0.0000000  0  8G10G17G09G12G02G04G27G05
 110840785.973 8  86369548.15146  21092291.250                    21092300.398
 119185899.104 7  92872205.673 7  22680310.039
 120797511.783 7  94128012.79744  22987010.633                    22987021.105
 115913508.227 7  90322245.707 7  22057605.109
 108608034.133 8  84629733.82546  20667397.477                    20667404.102
 109872129.732 8  85614788.33646  20907953.016                    20907961.824
 122609391.964 7  95539854.70144  23331797.547                    23331807.949
 121163736.038 7  94413396.394 6  23056685.000
 11  7 29  1 24 30.0000000  0  8G10G17G09G12G02G04G27G05
 110803991.061 8  86340876.81846  21085289.695                    21085298.301
 119233749.866 7  92909491.970 7  22689416.227
 120865010.277 7  94180608.97644  22999854.852                    22999865.871
 115836318.569 8  90262097.955 7  22042916.648
 108589890.631 8  84615596.05846  20663944.570                    20663951.078
 109937089.289 8  85665406.16446  20920314.594                    20920323.539
 122666819.650 7  95584603.46644  23342725.461                    23342736.207
 121060818.076 7  94333200.692 7  23037099.875
 11  7 29  1 25  0.0000000  0  8G10G17G09G12G02G04G27G05
 110767765.890 8  86312649.43046  21078395.930                    21078404.852
 119281730.030 7  92946879.085 6  22698545.758
 120932844.919 7  94233467.08044  23012763.789                    23012773.918
 115759441.673 7  90202193.901 7  22028287.211
 108572092.979 8  84601727.78046  20660557.813                    20660564.273
 110002316.710 8  85716232.70446  20932726.766                    20932735.961
 122724454.968 7  95629514.04644  23353692.789                    23353703.832
 120958039.411 7  94253113.538 7  23017542.172
 11  7 29  1 25 30.0000000  0  8G10G17G09G12G02G04G27G05
 110732112.459 8  86284867.55246  21071610.961                    21071620.102
 119329840.124 7  92984367.458 6  22707700.781
 121001012.348 7  94286584.49444  23025735.914                    23025745.832
 115682880.111 8  90142535.584 7  22013717.984
 108554640.393 8  84588128.37546  20657236.836                    20657243.258
 110067809.929 8  85767266.36746  20945189.609                    20945198.855
 122782295.398 7  95674584.44344  23364700.234                    23364709.840
 120855402.889 7  94173137.139 7  22998010.781
 11  7 29  1 26  0.0000000  0  8G10G17G09G12G02G04G27G05
 110697032.286 8  86257532.36846  21064935.719                    21064944.613
 119378080.619 7  93021957.428 7  22716880.563
 121069509.053 7  94339958.50144  23038770.109                    23038780.363
 115606636.455 8  90083124.953 7  21999209.648
 108537532.172 8  84574797.31046  20653980.883                    20653987.469
 110133566.445 8  85818505.19046  20957702.758                    20957712.094
 122840338.076 6  95719812.42244  23375744.938                    23375755.734
 120752911.181 7  94093273.564 7  22978507.188
 11  7 29  1 26 30.0000000  0  8G10G17G09G12G02G04G27G05
 110662527.594 8  86230645.61746  21058369.719                    21058378.402
 119426452.286 7  93059649.600 7  22726085.836
 121138332.062 7  94393586.77044  23051866.648                    23051876.809
 115530713.188 7  90023963.966 7  21984761.469
 108520767.459 8  84561733.92846  20650790.820                    20650796.910
 110199584.086 8  85869947.50046  20970265.516                    20970275.188
 122898580.255 6  95765195.87744  23386828.117                    23386838.637
 120650567.419 7  94013525.265 7  22959031.500
 11  7 29  1 27  0.0000000  0  8G10G17G09G12G02G04G27G05
 110628600.167 8  86204208.66846  21051913.477                    21051921.863
 119474955.581 7  93097444.347 7  22735315.664
 121207477.925 6  94447466.60044  23065024.969                    23065034.820
 115455112.965 7  89965054.709 7  21970375.469
 108504345.578 8  84548937.66746  20647665.617                    20647672.277
 110265860.450 8  85921591.41246  20982877.438                    20982886.871
 122957019.120 6  95810732.57644  23397947.625                    23397959.586
 120548374.702 7  93933894.678 7  22939584.961
 11  7 29  1 27 30.0000000  0  8G10G17G09G12G02G04G27G05
 110595251.073 8  86178222.39346  21045567.484                    21045576.066
 119523590.588 7  93135341.724 7  22744570.695
 121276942.822 7  94501595.05144  23078243.789                    23078253.648
 115379837.797 7  89906398.745 7  21956050.906
 108488265.013 8  84536407.36346  20644605.813                    20644612.305
 110332392.908 8  85973434.87346  20995538.711                    20995547.406
 123015651.696 6  95856420.22344  23409106.227                    23409117.152
 120446335.672 7  93854383.839 7  22920167.227
 11  7 29  1 28  0.0000000  0  8G10G17G09G12G02G04G27G05
 110562482.529 8  86152688.48646  21039331.695                    21039340.813
 119572358.471 7  93173342.658 7  22753850.609
 121346723.678 7  94555969.69044  23091522.734                    23091532.445
 115304891.018 7  89847998.648 7  21941788.945
 108472525.922 8  84524143.12846  20641610.680                    20641617.480
 110399179.365 8  86025476.26646  21008247.250                    21008256.340
 123074475.735 6  95902257.06344  23420299.508                    23420311.258
 120344453.527 7  93774995.251 7  22900780.227
 11  7 29  1 28 30.0000000  0  8G10G17G09G12G02G04G27G05
 110530296.105 7  86127608.17846  21033207.023                    21033215.465
 119621259.718 7  93211447.510 7  22763156.617
 121416817.345 7  94610588.07444  23104860.945                    23104871.047
 115230274.936 7  89789856.253 7  21927590.320
 108457127.495 8  84512144.37046  20638680.180                    20638687.262
 110466217.442 8  86077713.72746  21021003.992                    21021013.230
 123133488.478 7  95948240.94544  23431530.102                    23431541.066
 120242731.184 7  93695731.185 7  22881422.508
 11  7 29  1 29  0.0000000  0  8G10G17G09G12G02G04G27G05
 110498693.065 8  86102982.45746  21027192.891                    21027201.594
 119670294.273 7  93249656.217 7  22772487.078
 121487220.044 7  94665447.27744  23118258.391                    23118268.234
 115155991.742 8  89731973.220 7  21913454.461
 108442068.295 8  84500409.95046  20635814.641                    20635820.949
 110533504.876 8  86130145.48246  21033808.453                    21033817.996
 123192686.862 7  95994369.46844  23442795.031                    23442805.871
 120141171.541 7  93616593.898 7  22862096.602
 11  7 29  1 29 30.0000000  0  8G10G17G09G12G02G04G27G05
 110467675.943 8  86078813.29246  21021290.602                    21021299.109
 119719463.476 7  93287969.860 7  22781844.258
 121557928.798 6  94720544.92244  23131714.078                    23131724.230
 115082044.576 7  89674352.068 7  21899382.820
 108427348.330 8  84488939.86046  20633013.977                    20633020.051
 110601039.696 8  86182770.02846  21046659.836                    21046669.066
 123252068.697 7  96040640.95143  23454094.758                    23454106.355
 120039777.883 7  93537585.953 7  22842802.031
 11  7 29  1 30  0.0000000  0  8G10G17G09G12G02G04G27G05
 110437246.091 8  86055101.75146  21015500.031                    21015509.059
 119768767.354 7  93326388.468 7  22791226.313
 121628939.953 7  94775878.21444  23145227.023                    23145237.457
 115008435.649 7  89616994.457 7  21885375.500
 108412966.237 8  84477733.04546  20630276.984                    20630282.883
 110668819.395 8  86235585.37546  21059558.203                    21059566.996
 123311630.941 6  96087053.02243  23465429.078                    23465439.969
 119938553.019 7  93458709.523 7  22823539.008
 11  7 29  1 30 30.0000000  0  8G10G17G09G12G02G04G27G05
 110407405.414 8  86031849.29946  21009821.898                    21009830.348
 119818206.677 7  93364912.593 7  22800634.414
 121700250.518 6  94831444.82544  23158796.500                    23158806.910
 114935167.816 8  89559902.655 7  21871432.914
 108398921.532 8  84466789.12446  20627604.125                    20627610.422
 110736841.727 8  86288589.79046  21072502.359                    21072511.766
 123371370.964 6  96133603.61543  23476798.063                    23476808.434
 119837499.886 7  93379966.935 7  22804309.797
 11  7 29  1 31  0.0000000  0  8G10G17G09G12G02G04G27G05
 110378155.049 8  86009056.84046  21004255.258                    21004264.094
 119867782.064 7  93403542.757 7  22810068.336
 121771856.963 7  94887241.99544  23172422.922                    23172433.176
 114862243.097 7  89503078.212 7  21857555.906
 108385213.262 8  84456107.36046  20624995.602                    20625001.863
 110805104.269 8  86341781.37846  21085492.156                    21085501.258
 123431286.126 6  96180290.68743  23488198.875                    23488209.656
 119736621.431 7  93301360.437 6  22785113.078
 11  7 29  1 31 30.0000000  0  8G10G17G09G12G02G04G27G05
 110349496.431 8  85986725.48546  20998801.727                    20998810.328
 119917493.787 7  93442279.152 6  22819527.938
 121843755.576 7  94943266.81644  23186104.883                    23186115.137
 114789664.158 8  89446523.225 7  21843744.617
 108371840.458 8  84445686.99546  20622450.836                    20622457.234
 110873604.689 8  86395158.33046  21098527.453                    21098536.645
 123491373.382 6  96227111.85844  23499633.406                    23499644.293
 119635920.843 7  93222892.544 7  22765949.977
 11  7 29  1 32  0.0000000  0  8G10G17G09G12G02G04G27G05
 110321431.562 8  85964856.79446  20993461.422                    20993470.004
 119967342.736 7  93481122.482 7  22829014.102
 121915943.384 7  94999516.96844  23199842.297                    23199852.563
 114717434.016 8  89390240.024 7  21829999.781
 108358802.715 8  84435527.72446  20619969.766                    20619976.297
 110942341.106 8  86448719.17646  21111607.367                    21111616.340
 123551630.358 6  96274065.31844  23511099.500                    23511110.766
 119535400.982 7  93144565.477 7  22746821.680
 11  7 29  1 32 30.0000000  0  8G10G17G09G12G02G04G27G05
 110293962.039 8  85943452.00446  20988233.977                    20988242.609
 120017329.256 7  93520073.020 7  22838526.039
 121988417.032 7  95055989.89544  23213633.531                    23213643.262
 114645554.954 7  89334230.387 7  21816321.320
 108346099.075 8  84425628.79946  20617552.422                    20617559.016
 111011311.275 8  86502462.15746  21124732.258                    21124741.176
 123612054.306 6  96321148.84543  23522598.672                    23522609.246
 119435064.903 7  93066381.628 6  22727728.422
 11  7 29  1 33  0.0000000  0  8G10G17G09G12G02G04G27G05
 110267088.797 8  85922511.84846  20983120.203                    20983128.930
 120067453.888 7  93559131.158 7  22848063.508
 122061172.717 7  95112682.57544  23227478.055                    23227488.145
 114574029.509 8  89278496.309 7  21802710.461
 108333728.340 8  84415989.26546  20615198.391                    20615204.855
 111080512.446 8  86556385.14346  21137900.914                    21137909.813
 123672641.983 6  96368359.96644  23534127.641                    23534138.676
 119334915.417 7  92988343.164 7  22708670.758
 11  7 29  1 33 30.0000000  0  8G10G17G09G12G02G04G27G05
 110240814.060 8  85902038.04846  20978120.227                    20978128.586
 120117717.494 7  93598297.606 7  22857628.836
 122134207.391 7  95169592.63244  23241375.742                    23241386.852
 114502860.414 8  89223039.907 7  21789167.516
 108321690.339 8  84406609.02046  20612907.813                    20612913.777
 111149942.937 8  86610486.82046  21151112.867                    21151122.066
 123733391.244 6  96415696.99344  23545687.820                    23545698.711
 119234956.050 7  92910452.847 7  22689648.375
 11  7 29  1 34  0.0000000  0  8G10G17G09G12G02G04G27G05
 110215138.368 8  85882031.05246  20973234.078                    20973242.836
 120168120.253 7  93637572.467 7  22867220.781
 122207517.281 7  95226717.17144  23255326.391                    23255336.980
 114432049.653 7  89167862.730 7  21775692.648
 108309983.393 8  84397486.72746  20610679.906                    20610686.035
 111219600.042 8  86664765.07846  21164368.156                    21164376.914
 123794298.749 6  96463157.34244  23557278.508                    23557289.570
 119135189.183 7  92832712.539 7  22670663.195
 11  7 29  1 34 30.0000000  0  8G10G17G09G12G02G04G27G05
 110190063.549 8  85862492.26046  20968462.352                    20968471.145
 120218662.753 7  93676956.222 6  22876838.555
 122281099.343 7  95284053.75444  23269329.000                    23269339.395
 114361600.135 7  89112967.042 7  21762286.742
 108298606.992 8  84388622.02946  20608514.844                    20608521.535
 111289481.601 8  86719218.23146  21177666.500                    21177675.430
 123855361.940 6  96510738.99744  23568898.094                    23568909.730
 119035617.670 7  92755124.447 7  22651715.867
 11  7 29  1 35  0.0000000  0  8G10G17G09G12G02G04G27G05
 110165591.293 8  85843422.99146  20963805.594                    20963813.984
 120269345.449 7  93716449.235 6  22886482.781
 122354950.592 7  95341600.12544  23283382.266                    23283393.023
 114291514.420 8  89058354.829 7  21748949.578
 108287560.586 8  84380014.44746  20606412.938                    20606419.293
 111359585.787 8  86773844.86746  21191006.672                    21191015.379
 123916578.627 6  96558440.25244  23580547.977                    23580558.617
 118936245.238 7  92677691.488 7  22632805.680
 11  7 29  1 35 30.0000000  0  8G10G17G09G12G02G04G27G05
 110141722.830 8  85824824.21946  20959263.547                    20959272.273
 120320169.417 7  93756052.283 7  22896154.227
 122429067.229 7  95399353.30044  23297486.156                    23297496.922
 114221794.918 8  89004027.983 7  21735682.320
 108276843.296 8  84371663.32346  20604373.664                    20604379.746
 111429910.166 8  86828643.07446  21204388.922                    21204398.223
 123977945.686 7  96606258.69943  23592225.289                    23592236.418
 118837074.576 7  92600415.756 7  22613933.625
 11  7 29  1 36  0.0000000  0  9G10G17G25G09G12G02G04G27G05
 110118458.082 8  85806695.87246  20954836.453                    20954845.254
 120371134.258 7  93795765.134 6  22905852.570
 129565350.12516 100960033.04216  24655468.031
 122503444.605 7  95457309.62444  23311640.594                    23311650.523
 114152443.058 8  88949987.613 7  21722485.203
 108266452.824 8  84363566.86746  20602396.258                    20602402.617
 111500451.326 8  86883610.20946  21217812.367                    21217821.270
 124039459.224 7  96654191.27644  23603931.430                    23603941.398
 118738107.397 7  92523298.574 7  22595100.883
 11  7 29  1 36 30.0000000  0  9G10G17G25G09G12G02G04G27G05
 110095798.761 8  85789039.28646  20950524.461                    20950533.117
 120422240.117 7  93835587.855 6  22915578.055
 129462076.138 6 100879559.862 5  24635814.961
 122578079.679 7  95515466.77944  23325842.695                    23325853.273
 114083461.768 8  88896235.987 7  21709358.391
 108256388.847 8  84355724.82546  20600481.289                    20600487.398
 111571207.781 8  86938745.08646  21231276.813                    21231285.555
 124101117.032 6  96702236.24944  23615664.578                    23615675.063
 118639347.405 7  92446342.830 7  22576307.695
 11  7 29  1 37  0.0000000  0  9G10G17G25G09G12G02G04G27G05
 110073747.555 8  85771856.54746  20946328.328                    20946336.754
 120473488.850 7  93875521.909 6  22925330.594
 129358911.129 6 100799171.538 6  24616183.234
 122652970.200 7  95573822.96544  23340094.281                    23340104.418
 114014854.830 7  88842776.058 7  21696302.789
 108246651.381 8  84348137.19546  20598628.250                    20598634.605
 111642177.961 8  86994046.52645  21244782.156                    21244791.070
 124162917.258 6  96750392.21144  23627424.953                    23627435.555
 118540798.157 7  92369551.310 7  22557554.344
 11  7 29  1 37 30.0000000  0  9G10G17G25G09G12G02G04G27G05
 110052305.152 8  85755148.20446  20942247.961                    20942256.305
 120524880.921 7  93915567.647 6  22935109.766
 129255857.179 7 100718869.769 6  24596573.156
 122728112.433 7  95632375.29844  23354393.008                    23354403.598
 113946624.015 8  88789609.221 7  21683318.922
 108237239.388 8  84340803.17946  20596837.039                    20596843.691
 111713359.492 8  87049512.63946  21258327.617                    21258336.398
 124224856.789 6  96798656.71844  23639211.531                    23639221.859
 118442462.679 7  92292926.368 7  22538841.484
 11  7 29  1 38  0.0000000  0  9G10G17G25G09G12G02G04G27G05
 110031472.243 8  85738914.79146  20938283.469                    20938292.336
 120576416.554 7  93955725.244 7  22944916.898
 129152916.569 7 100638656.349 6  24576984.234
 122803502.760 7  95691120.94944  23368739.531                    23368750.168
 113878771.563 8  88736737.214 7  21670407.016
 108228151.323 8  84333721.58846  20595107.547                    20595114.191
 111784749.898 7  87105141.51146  21271912.828                    21271922.012
 124286932.607 6  96847027.43343  23651023.742                    23651035.605
 118344343.567 7  92216469.978 7  22520170.086
 11  7 29  1 38 30.0000000  0  9G10G17G25G09G12G02G04G27G05
 110011250.853 8  85723157.89346  20934435.383                    20934443.930
 120628096.432 7  93995995.245 6  22954751.430
 129050092.114 6 100558533.432 6  24557417.289
 122879138.233 7  95750057.63944  23383132.648                    23383143.188
 113811300.466 8  88684162.362 7  21657567.828
 108219387.035 8  84326892.27946  20593440.047                    20593446.039
 111856347.294 8  87160931.68646  21285537.070                    21285545.957
 124349142.377 6  96895502.50944  23662862.016                    23662873.430
 118246444.240 7  92140184.882 7  22501540.273
 11  7 29  1 39  0.0000000  0  9G10G17G25G09G12G02G04G27G05
 109991641.555 8  85707877.94246  20930703.898                    20930712.684
 120679920.976 7  94036377.969 7  22964612.906
 128947386.132 7 100478502.840 6  24537872.961
 122955015.178 7  95809182.47944  23397571.055                    23397581.922
 113744213.058 8  88631886.486 7  21644801.688
 108210945.302 8  84320314.32146  20591833.633                    20591839.980
 111928149.453 8  87216881.40645  21299200.734                    21299209.719
 124411483.137 6  96944079.65843  23674724.469                    23674736.715
 118148767.586 7  92064073.287 7  22482953.227
 11  7 29  1 39 30.0000000  0  9G10G17G25G09G12G02G04G27G05
 109972645.972 8  85693076.21346  20927089.117                    20927097.801
 120731891.015 7  94076874.075 6  22974502.883
 128844801.338 7 100398566.697 6  24518351.297
 123031130.227 7  95868492.84244  23412055.523                    23412066.777
 113677511.902 7  88579911.575 7  21632108.609
 108202825.408 8  84313987.14946  20590288.289                    20590294.699
 112000154.277 8  87272989.04746  21312902.820                    21312912.047
 124473952.236 6  96992756.78843  23686612.102                    23686623.637
 118051316.357 7  91988137.342 7  22464408.813
 11  7 29  1 40  0.0000000  0  9G10G17G25G09G12G02G04G27G05
 109954264.690 8  85678753.16046  20923591.477                    20923599.578
 120784006.959 7  94117483.867 6  22984420.531
 128742339.694 7 100318726.527 6  24498853.430
 123107479.742 7  95927985.92044  23426584.289                    23426595.199
 113611199.425 7  88528239.545 7  21619489.922
 108195025.726 8  84307909.49546  20588804.102                    20588810.129
 112072359.313 8  87329252.70246  21326643.172                    21326652.262
 124536546.532 6  97041531.50043  23698523.953                    23698535.371
 117954093.348 7  91912379.225 7  22445907.828
 11  7 29  1 40 30.0000000  0  9G10G17G25G09G12G02G04G27G05
 109936498.926 8  85664909.73546  20920210.195                    20920219.289
 120836269.158 7  94158207.619 6  22994365.695
 128640004.054 6 100238984.584 6  24479379.492
 123184060.377 7  95987659.09644  23441157.234                    23441168.000
 113545277.649 8  88476871.948 7  21606945.141
 108187545.787 8  84302080.97846  20587380.727                    20587386.980
 112144762.381 8  87385670.66346  21340421.180                    21340429.824
 124599263.684 6  97090401.95343  23710458.883                    23710469.680
 117857101.867 7  91836801.517 7  22427451.219
 11  7 29  1 41  0.0000000  0  9G10G17G25G09G12G02G04G27G05
 109919349.726 8  85651546.74946  20916947.156                    20916955.473
 120888678.286 7  94199045.868 7  23004338.586
 128537796.857 6 100159342.692 6  24459930.500
 123260868.703 7  96047509.69744  23455773.539                    23455783.949
 113479749.176 8  88425810.812 7  21594475.484
 108180384.688 8  84296500.91146  20586018.367                    20586024.016
 112217361.546 8  87442241.42945  21354236.117                    21354245.199
 124662100.837 6  97139365.94044  23722416.391                    23722427.199
 117760344.797 7  91761406.485 7  22409038.320
 11  7 29  1 41 30.0000000  0  9G10G17G25G09G12G02G04G27G05
 109902818.482 8  85638665.27746  20913801.297                    20913810.012
 120941234.753 7  94239998.933 7  23014339.719
 128435720.795 6 100079803.078 6  24440505.805
 123337901.638 7  96107535.31044  23470432.039                    23470443.293
 113414616.950 7  88375058.457 7  21582081.398
 108173541.592 8  84291168.64146  20584715.648                    20584722.168
 112290154.751 8  87498963.39545  21368087.828                    21368096.941
 124725055.385 6  97188421.36543  23734396.664                    23734407.582
 117663825.350 7  91686196.594 7  22390671.430
 11  7 29  1 42  0.0000000  0  9G10G17G25G09G12G02G04G27G05
 109886905.662 8  85626265.69846  20910773.086                    20910781.996
 120993938.907 7  94281067.070 7  23024369.055
 128333778.122 6 100000367.276 5  24421106.398
 123415155.259 7  96167732.90544  23485133.000                    23485143.902
 113349882.785 7  88324616.266 7  21569762.453
 108167015.081 8  84286083.05546  20583473.672                    20583479.918
 112363139.568 8  87555834.66245  21381976.859                    21381985.586
 124788124.124 6  97237565.80243  23746398.117                    23746408.438
 117567546.159 7  91611173.920 7  22372349.750
 11  7 29  1 42 30.0000000  0  9G10G17G25G09G12G02G04G27G05
 109871612.790 8  85614349.19146  20907863.188                    20907871.684
 121046791.692 7  94322251.041 6  23034426.602
 128231971.414 6  99921037.433 6  24401733.320
 123492626.388 7  96228099.95844  23499875.609                    23499886.328
 113285549.437 7  88274486.386 7  21557520.398
 108160804.424 8  84281243.59246  20582291.883                    20582298.121
 112436313.957 8  87612853.65745  21395901.469                    21395910.340
 124851304.520 6  97286797.26943  23758420.164                    23758431.438
 117471510.096 7  91536340.706 7  22354074.727
 11  7 29  1 43  0.0000000  0  9G10G17G25G09G12G02G04G27G05
 109856939.998 8  85602915.87046  20905070.875                    20905079.316
 121099793.337 7  94363550.998 7  23044512.688
 128130303.033 6  99841815.387 5  24382386.125
 123570311.148 6  96288633.48344  23514658.281                    23514669.488
 113221619.195 8  88224670.628 7  21545355.273
 108154908.282 8  84276649.20146  20581170.047                    20581176.000
 112509675.516 8  87670018.49745  21409861.539                    21409870.531
 124914593.466 6  97336113.26843  23770463.656                    23770475.699
 117375720.136 7  91461699.243 7  22335846.680
 11  7 29  1 43 30.0000000  0  9G10G17G25G09G12G02G04G27G05
 109842888.846 8  85591966.94146  20902397.250                    20902405.688
 121152944.704 7  94404967.634 7  23054627.250
 128028775.989 6  99762703.462 6  24363066.148
 123648206.695 7  96349331.23144  23529481.523                    23529492.316
 113158094.779 7  88175171.107 7  21533266.734
 108149326.437 8  84272299.71746  20580107.672                    20580114.328
 112583222.447 8  87727327.76745  21423857.000                    21423866.113
 124977988.666 6  97385512.06443  23782527.953                    23782539.238
 117280179.537 7  91387252.094 7  22317665.477
 11  7 29  1 44  0.0000000  0  9G10G17G25G09G12G02G04G27G05
 109829459.879 8  85581502.83146  20899841.586                    20899850.262
 121206245.907 7  94446501.030 6  23064769.922
 127927392.416 6  99683703.372 6  24343774.016
 123726309.267 6  96410190.33644  23544343.891                    23544355.117
 113094978.016 8  88125989.213 7  21521256.039
 108144057.265 8  84268193.87046  20579105.172                    20579111.465
 112656952.427 8  87784779.69545  21437887.773                    21437896.629
 125041487.138 6  97434991.31943  23794611.305                    23794622.711
 117184891.015 7  91313001.369 7  22299532.945
 11  7 29  1 44 30.0000000  0  9G10G17G25G09G12G02G04G27G05
 109816653.630 8  85571523.96146  20897404.375                    20897413.285
 121259697.507 7  94488151.601 6  23074941.367
 127826154.634 6  99604816.857 6  24324508.406
 123804615.294 7  96471207.97444  23559245.414                    23559255.688
 113032271.279 7  88077126.837 7  21509323.055
 108139099.578 8  84264330.74746  20578161.500                    20578168.090
 112730863.353 8  87842372.61645  21451952.305                    21451961.398
 125105085.973 6  97484548.81444  23806714.445                    23806725.871
 117089857.521 7  91238949.378 7  22281448.563
 11  7 29  1 45  0.0000000  0  9G10G17G25G09G12G02G04G27G05
 109804471.440 8  85562031.36046  20895086.453                    20895094.887
 121313300.221 7  94529919.958 6  23085141.438
 127725065.782 7  99526046.409 6  24305272.461
 123883121.885 7  96532381.87644  23574184.945                    23574195.402
 112969977.586 7  88028586.304 7  21497469.039
 108134453.181 8  84260710.19246  20577277.367                    20577283.223
 112804953.200 8  87900104.94545  21466051.305                    21466060.000
 125168782.718 6  97534182.56144  23818835.164                    23818846.793
 116995082.243 7  91165098.590 7  22263413.781
 11  7 29  1 45 30.0000000  0  9G10G17G25G09G12G02G04G27G05
 109792913.890 8  85553025.49046  20892887.102                    20892895.605
 121367054.418 7  94571806.343 6  23095370.617
 127624128.169 7  99447393.788 6  24286064.594
 123961825.265 7  96593709.12944  23589161.305                    23589171.965
 112908098.971 8  87980369.207 7  21485694.148
 108130116.689 8  84257331.11846  20576452.164                    20576458.430
 112879219.897 8  87957975.07445  21480183.570                    21480193.059
 125232574.385 6  97583890.28543  23830974.570                    23830986.086
 116900567.891 7  91091451.095 7  22245427.867
 11  7 29  1 46  0.0000000  0  9G10G17G25G09G12G02G04G27G05
 109781981.710 8  85544506.93746  20890806.641                    20890815.047
 121420960.669 6  94613811.214 6  23105628.836
 127523344.153 7  99368860.823 6  24266885.773
 124040721.893 7  96655186.97344  23604174.977                    23604185.316
 112846638.139 8  87932477.653 7  21473998.602
 108126088.865 8  84254192.56546  20575685.953                    20575692.180
 112953661.115 8  88015981.19945  21494349.180                    21494358.402
 125296458.281 6  97633669.87543  23843131.008                    23843142.148
 116806317.301 7  91018009.148 7  22227492.453
 11  7 29  1 46 30.0000000  0  9G10G17G25G09G12G02G04G27G05
 109771675.820 8  85536476.39346  20888845.336                    20888853.676
 121475019.427 6  94655934.910 7  23115915.836
 127422716.583 7  99290449.724 6  24247737.352
 124119808.491 7  96716812.86644  23619224.102                    23619235.234
 112785596.837 7  87884913.004 7  21462382.680
 108122368.747 8  84251293.77746  20574977.781                    20574984.020
 113028274.995 8  88074121.84845  21508547.414                    21508557.109
 125360431.683 6  97683519.19743  23855305.070                    23855315.965
 116712333.672 7  90944775.227 7  22209608.156
 11  7 29  1 47  0.0000000  0  9G10G17G25G09G12G02G04G27G05
 109761996.890 8  85528934.39346  20887003.523                    20887012.152
 121529231.037 6  94698177.729 6  23126231.500
 127322247.845 7  99212162.469 6  24228618.086
 124199081.533 7  96778584.02944  23634309.961                    23634320.746
 112724977.656 7  87837677.279 7  21450847.500
 108118955.294 8  84248633.96146  20574328.320                    20574334.430
 113103059.570 8  88132395.52245  21522779.203                    21522787.945
 125424491.740 6  97733436.05043  23867495.039                    23867506.160
 116618619.448 7  90871751.241 7  22191775.070
 11  7 29  1 47 30.0000000  0  9G10G17G25G09G12G02G04G27G05
 109752945.434 8  85521881.32446  20885281.180                    20885289.766
 121583596.355 6  94740540.282 6  23136577.359
 127221940.558 6  99134000.929 6  24209530.156
 124278537.616 7  96840497.79244  23649429.953                    23649441.277
 112664782.867 7  87790772.250 7  21439392.805
 108115847.599 8  84246212.39546  20573736.898                    20573742.906
 113178012.489 8  88190800.37545  21537041.961                    21537051.133
 125488635.694 6  97783418.25143  23879701.023                    23879713.164
 116525178.030 7  90798939.799 7  22173993.180
 11  7 29  1 48  0.0000000  0  9G10G17G25G09G12G02G04G27G05
 109744522.256 8  85515317.83046  20883678.438                    20883687.113
 121638115.610 6  94783022.833 6  23146952.195
 127121797.248 6  99055967.247 6  24190473.781
 124358173.405 6  96902551.59144  23664583.852                    23664595.016
 112605015.095 7  87744199.960 7  21428019.188
 108113044.499 8  84244028.17046  20573203.430                    20573209.836
 113253131.603 8  88249334.72945  21551336.805                    21551345.980
 125552860.834 6  97833463.74643  23891922.406                    23891934.660
 116432012.206 7  90726343.117 7  22156264.211
 11  7 29  1 48 30.0000000  0  9G10G17G25G09G12G02G04G27G05
 109736727.476 8  85509243.99646  20882195.125                    20882203.617
 121692789.558 7  94825625.892 6  23157355.516
 127021820.652 6  98978063.442 6  24171448.602
 124437985.561 6  96964742.85044  23679771.297                    23679782.605
 112545676.323 8  87697961.957 7  21416727.516
 108110545.146 8  84242080.63746  20572727.680                    20572734.184
 113328415.003 8  88307997.11345  21565662.570                    21565671.539
 125617164.308 6  97883570.27143  23904159.734                    23904171.258
 116339124.894 7  90653963.442 7  22138588.555
 11  7 29  1 49  0.0000000  0  9G10G17G25G09G12G02G04G27G05
 109729561.734 8  85503660.31446  20880831.430                    20880840.043
 121747618.327 6  94868349.626 6  23167789.445
 126922013.099 7  98900291.384 6  24152455.914
 124517970.637 6  97027068.80044  23694992.430                    23695003.375
 112486768.834 8  87652060.034 7  21405517.602
 108108348.263 8  84240368.78746  20572309.719                    20572316.152
 113403860.669 8  88366785.92145  21580019.078                    21580028.695
 125681543.174 6  97933735.50943  23916410.859                    23916422.277
 116246518.899 7  90581802.999 7  22120966.289
 11  7 29  1 49 30.0000000  0  9G10G17G25G09G12G02G04G27G05
 109723026.068 8  85498567.60346  20879587.867                    20879596.273
 121802602.876 7  94911194.718 6  23178252.766
 126822377.495 7  98822653.282 6  24133495.859
 124598125.254 6  97089526.86644  23710246.531                    23710256.988
 112428295.173 7  87606496.147 7  21394390.414
 108106453.169 8  84238892.11646  20571949.039                    20571955.328
 113479466.666 8  88425699.66845  21594406.586                    21594416.141
 125745995.017 6  97983957.64543  23928675.039                    23928686.727
 116154197.145 7  90509864.049 7  22103397.648
 11  7 29  1 50  0.0000000  0  9G10G17G25G09G12G02G04G27G05
 109717120.309 8  85493965.71646  20878463.844                    20878472.594
 121857743.018 7  94954161.073 6  23188745.031
 126722916.193 7  98745151.019 6  24114569.477
 124678445.691 6  97152114.17144  23725529.930                    23725541.484
 112370257.466 8  87561271.948 7  21383346.469
 108104858.205 8  84237649.30646  20571645.141                    20571651.723
 113555230.750 8  88484736.59145  21608824.484                    21608833.574
 125810516.782 6  98034234.26143  23940953.906                    23940965.406
 116062162.379 7  90438148.700 7  22085883.906
 11  7 29  1 50 30.0000000  0  9G10G17G25G09G12G02G04G27G05
 109711845.815 8  85489855.72846  20877459.867                    20877468.566
 121913039.681 7  94997249.364 6  23199268.328
 126623632.013 6  98667786.777 6  24095675.688
 124758928.950 7  97214828.33744  23740845.336                    23740856.293
 112312658.068 8  87516389.309 7  21372385.734
 108103562.896 8  84236639.98646  20571398.820                    20571405.250
 113631151.076 8  88543895.28045  21623271.773                    21623281.004
 125875105.785 6  98084563.26443  23953244.789                    23953256.098
 115970418.148 7  90366659.746 7  22068425.766
 11  7 29  1 51  0.0000000  0  9G10G17G25G09G12G02G04G27G05
 109707202.809 8  85486237.81246  20876576.414                    20876585.133
 121968493.388 7  95040460.054 6  23209820.781
 126524527.510 6  98590562.545 6  24076816.758
 124839571.326 7  97277666.48344  23756191.203                    23756202.430
 112255499.306 8  87471850.015 7  21361508.484
 108102565.981 8  84235863.19046  20571209.398                    20571215.840
 113707225.579 8  88603174.09545  21637747.977                    21637756.980
 125939759.472 6  98134942.67443  23965547.625                    23965559.602
 115878967.000 7  90295399.176 7  22051023.016
 11  7 29  1 51 30.0000000  0  9G10G17G25G09G12G02G04G27G05
 109703191.243 8  85483111.91946  20875812.930                    20875821.375
 122024104.467 7  95083793.347 6  23220402.906
 126425605.110 7  98513480.185 6  24057992.273
 124920369.413 6  97340625.94344  23771566.797                    23771577.863
 112198783.374 7  87427655.797 7  21350715.820
 108101866.170 8  84235317.89246  20571076.023                    20571082.320
 113783452.069 8  88662571.33845  21652253.492                    21652262.918
 126004474.877 6  98185370.15443  23977862.734                    23977874.137
 115787811.623 7  90224369.076 7  22033677.070
 11  7 29  1 52  0.0000000  0  9G10G17G25G09G12G02G04G27G05
 109699811.744 7  85480478.55746  20875170.039                    20875178.879
 122079873.330 7  95127249.600 6  23231015.602
 126326867.497 7  98436541.822 6  24039203.703
 125001320.114 7  97403704.35644  23786970.922                    23786981.766
 112142512.534 8  87383808.399 7  21340007.781
 108101462.545 8  84235003.39446  20570999.430                    20571005.602
 113859828.566 8  88722085.47845  21666787.523                    21666796.539
 126069249.345 6  98235843.67543  23990189.227                    23990200.426
 115696954.942 7  90153571.720 7  22016387.406
 11  7 29  1 52 30.0000000  0  9G10G17G25G09G12G02G04G27G05
 109697064.720 7  85478338.02746  20874646.977                    20874655.555
 122135800.601 7  95170829.288 6  23241658.445
 126228317.323 7  98359749.478 6  24020449.797
 125082419.706 7  97466898.80244  23802404.000                    23802414.594
 112086689.175 8  87340309.679 7  21329385.242
 108101353.988 7  84234918.81146  20570978.523                    20570985.117
 113936353.176 8  88781715.03945  21681349.922                    21681358.695
 126134080.023 6  98286360.98043  24002526.133                    24002537.344
 115606399.912 7  90083009.395 7  21999155.180
 11  7 29  1 53  0.0000000  0  9G10G17G25G09G12G02G04G27G05
 109694950.570 8  85476690.63746  20874245.047                    20874253.625
 122191886.846 7  95214532.853 6  23252330.617
 126129957.312 7  98283105.369 6  24001732.773
 125163664.761 6  97530206.53943  23817864.688                    23817875.793
 112031315.165 8  87297161.116 7  21318847.797
 108101539.663 8  84235063.50846  20571013.719                    20571020.086
 114013024.048 8  88841458.55945  21695939.484                    21695948.883
 126198964.145 6  98336919.97043  24014873.414                    24014884.160
 115516149.196 7  90012684.232 7  21981981.313
 11  7 29  1 53 30.0000000  0  9G10G17G25G09G12G02G04G27G05
 109693469.023 8  85475536.19946  20873962.938                    20873971.531
 122248132.103 7  95258360.296 6  23263033.813
 126031789.718 7  98206611.168 6  23983051.672
 125245051.550 6  97593624.77144  23833351.844                    23833363.305
 111976392.606 8  87254364.330 7  21308396.219
 108102017.955 8  84235436.21346  20571105.016                    20571111.195
 114089838.757 8  88901314.15645  21710556.836                    21710565.883
 126263898.730 6  98387518.27443  24027229.984                    24027240.883
 115426205.861 7  89942598.568 7  21964865.469
 11  7 29  1 54  0.0000000  0  9G10G17G25G09G12G02G04G27G05
 109692620.572 7  85474875.08446  20873801.648                    20873810.234
 122304536.712 7  95302311.922 6  23273767.648
 125933817.151 7  98130268.983 6  23964408.219
 125326576.934 6  97657150.93344  23848865.539                    23848876.797
 111921923.994 8  87211921.260 7  21298031.469
 108102787.778 8  84236036.08446  20571251.602                    20571257.430
 114166795.257 8  88961280.24445  21725201.453                    21725210.570
 126328881.090 6  98438153.82443  24039595.406                    24039606.398
 115336572.285 7  89872754.272 7  21947808.820
 11  7 29  1 54 30.0000000  0  9G10G17G25G09G12G02G04G27G05
 109692406.087 7  85474707.96846  20873760.805                    20873769.457
 122361101.573 7  95346388.434 6  23284531.289
 125836042.698 7  98054081.137 6  23945802.063
 125408237.893 7  97720782.79744  23864404.789                    23864416.676
 111867911.429 7  87169833.564 7  21287752.898
 108103848.580 8  84236862.68746  20571453.570                    20571459.941
 114243892.166 8  89021355.74745  21739872.055                    21739881.414
 126393908.885 6  98488824.77043  24051969.758                    24051981.094
 115247252.090 7  89803154.161 7  21930811.656
 11  7 29  1 55  0.0000000  0  9G10G17G25G09G12G02G04G27G05
 109692825.376 7  85475034.70246  20873840.711                    20873849.672
 122417827.227 7  95390590.220 6  23295326.102
 125738468.676 7  97978049.507 6  23927234.773
 125490030.875 7  97784517.50044  23879970.227                    23879981.199
 111814357.027 8  87128102.894 7  21277561.766
 108105198.939 8  84237914.91846  20571710.367                    20571716.594
 114321127.281 8  89081538.95045  21754569.523                    21754578.918
 126458979.264 6  98539528.85643  24064352.977                    24064363.906
 115158247.698 7  89733800.143 7  21913874.398
 11  7 29  1 55 30.0000000  0  9G10G17G25G09G12G02G04G27G05
 109693878.798 8  85475855.55646  20874041.336                    20874049.738
 122474714.203 7  95434917.722 6  23306151.703
 125641098.033 7  97902176.309 6  23908705.789
 125571952.483 7  97848352.46344  23895559.422                    23895570.742
 111761263.520 8  87086731.335 7  21267458.352
 108106837.986 8  84239192.09646  20572022.281                    20572028.543
 114398498.965 8  89141828.55445  21769292.961                    21769302.430
 126524089.503 6  98590264.03843  24076742.453                    24076753.980
 115069562.169 7  89664694.586 7  21896998.078
 11  7 29  1 56  0.0000000  0  9G10G17G25G09G12G02G04G27G05
 109695566.539 8  85477170.68946  20874362.039                    20874370.270
 122531762.637 7  95479371.041 6  23317007.914
 125543933.446 7  97826463.658 6  23890216.000
 125653999.744 6  97912285.32343  23911172.422                    23911183.840
 111708632.714 8  87045720.345 7  21257442.938
 108108764.863 8  84240693.55846  20572388.875                    20572395.090
 114476005.050 8  89202222.90645  21784041.688                    21784050.785
 126589236.939 6  98641028.14343  24089139.492                    24089151.586
 114981198.519 7  89595839.837 7  21880183.109
 11  7 29  1 56 30.0000000  0  9G10G17G25G09G12G02G04G27G05
 109697888.657 7  85478980.14246  20874803.719                    20874812.328
 122588973.224 7  95523950.713 6  23327895.031
 125446977.413 7  97750913.556 6  23871765.867
 125736169.053 7  97976313.28344  23926808.891                    23926819.793
 111656466.577 8  87005071.430 7  21247516.234
 108110978.159 8  84242418.21546  20572810.352                    20572816.238
 114553643.542 8  89262720.41445  21798815.938                    21798825.371
 126654418.871 5  98691819.18743  24101543.523                    24101555.031
 114893159.046 7  89527237.689 7  21863430.031
 11  7 29  1 57  0.0000000  0  9G10G17G25G09G12G02G04G27G05
 109700845.405 8  85481284.10946  20875366.500                    20875375.293
 122646346.280 7  95568656.937 6  23338811.469
 125350232.523 7  97675527.947 6  23853355.445
 125818456.865 7  98040433.57443  23942467.992                    23942479.125
 111604767.736 8  86964786.642 7  21237678.117
 108113476.726 8  84244365.14846  20573285.797                    20573291.809
 114631412.679 7  89323319.74145  21813614.680                    21813624.504
 126719632.296 5  98742634.71043  24113953.406                    24113965.297
 114805446.878 7  89458890.602 7  21846738.531
 11  7 29  1 57 30.0000000  0  9G10G17G25G09G12G02G04G27G05
 109704436.826 8  85484082.61646  20876049.906                    20876058.617
 122703882.266 7  95613490.175 6  23349760.469
 125253701.719 7  97600309.152 6  23834986.688
 125900859.995 7  98104643.74043  23958148.398                    23958158.543
 111553538.107 8  86924867.476 7  21227929.453
 108116259.590 8  84246533.61646  20573815.305                    20573821.223
 114709310.527 8  89384019.33445  21828438.234                    21828447.563
 126784874.845 5  98793472.97343  24126369.109                    24126380.727
 114718064.944 7  89390800.833 7  21830109.977
 11  7 29  1 58  0.0000000  0  9G10G17G25G09G12G02G04G27G05
 109708662.590 8  85487375.43546  20876854.063                    20876863.047
 122761581.685 6  95658450.731 6  23360739.867
 125157387.244 7  97525258.977 6  23816658.102
 125983374.897 7  98168941.00243  23973850.609                    23973861.117
 111502779.066 8  86885314.997 7  21218270.672
 108119325.637 8  84248922.74546  20574398.617                    20574404.613
 114787335.215 8  89444817.78045  21843286.242                    21843295.254
 126850143.548 6  98844331.61643  24138789.602                    24138801.305
 114631015.874 7  89322970.441 7  21813545.281
 11  7 29  1 58 30.0000000  0  9G10G17G25G09G12G02G04G27G05
 109713522.668 8  85491162.51246  20877778.820                    20877788.055
 122819444.707 7  95703538.770 6  23371751.195
 125061291.739 7  97450379.380 6  23798371.688
 126065998.174 6  98233322.71043  23989572.813                    23989584.371
 111452493.118 8  86846131.167 7  21208701.117
 108122673.263 8  84251531.28846  20575035.625                    20575041.684
 114865484.412 8  89505713.25045  21858157.320                    21858166.820
 126915435.615 6  98895208.48243  24151214.031                    24151225.777
 114544302.401 7  89255401.550 7  21797044.414
 11  7 29  1 59  0.0000000  0  9G10G17G25G09G12G02G04G27G05
 109719017.360 8  85495444.09446  20878824.656                    20878833.676
 122877471.669 7  95748754.587 6  23382793.320
 124965418.205 7  97375672.780 6  23780128.008
 126148726.711 7  98297786.43043  24005316.117                    24005327.660
 111402682.786 8  86807317.944 7  21199222.859
 108126301.863 8  84254358.77446  20575725.750                    20575732.445
 114943756.972 8  89566704.84845  21873052.188                    21873061.414
 126980748.671 6  98946101.69343  24163642.445                    24163654.316
 114457927.675 7  89188096.622 7  21780607.820
 11  7 29  1 59 30.0000000  0  9G10G17G25G09G12G02G04G27G05
 109725146.319 7  85500219.91346  20879991.070                    20879999.547
 122935663.401 6  95794098.742 6  23393866.711
 124869769.018 7  97301140.949 6  23761926.813
 126231556.903 6  98362329.36543  24021078.258                    24021089.289
 111353349.528 8  86768876.457 7  21189835.172
 108130210.118 8  84257404.15846  20576470.055                    20576476.430
 115022150.435 8  89627790.66345  21887970.328                    21887979.320
 127046079.591 6  98997008.83943  24176074.547                    24176086.836
 114371894.080 7  89121057.496 7  21764236.078
 11  7 29  2  0  0.0000000  0  9G10G17G25G09G12G02G04G27G05
 109731909.641 7  85505490.04246  20881277.992                    20881286.602
 122994020.395 7  95839571.724 6  23404972.125
 124774346.904 7  97226786.049 6  23743768.461
 126314485.434 6  98426948.91143  24036858.898                    24036870.719
 111304496.337 8  86730809.065 7  21180538.625
 108134397.003 8  84260666.66746  20577266.461                    20577272.574
 115100663.165 7  89688969.41145  21902910.352                    21902919.453
 127111425.850 6  99047927.93843  24188509.586                    24188521.508
 114286204.513 8  89054286.451 7  21747929.867
 11  7 29  2  0 30.0000000  0  9G10G17G25G09G12G02G04G27G05
 109739307.533 7  85511254.64046  20882685.953                    20882694.652
 123052542.874 7  95885173.603 6  23416109.156
 124679154.718 7  97152610.325 6  23725654.117
 126397509.209 6  98491642.68543  24052658.117                    24052669.508
 111256124.581 8  86693116.806 7  21171333.516
 108138861.411 7  84264145.41946  20578116.211                    20578122.477
 115179293.307 8  89750239.64745  21917873.078                    21917882.383
 127176784.758 6  99098856.91043  24200947.359                    24200959.141
 114200861.892 8  88987785.759 7  21731689.469
 11  7 29  2  1  0.0000000  0  9G10G17G25G09G12G02G04G27G05
 109747339.500 8  85517513.31646  20884214.234                    20884222.996
 123111230.990 7  95930904.607 6  23427276.656
 124584194.701 7  97078615.501 6  23707583.805
 126480624.562 7  98556407.82644  24068474.609                    24068486.402
 111208235.946 8  86655800.999 7  21162220.859
 108143601.774 8  84267839.20846  20579018.031                    20579024.543
 115258038.802 8  89811599.77345  21932858.086                    21932867.523
 127242153.388 6  99149793.44143  24213386.625                    24213398.602
 114115868.566 7  88921557.247 7  21715515.836
 11  7 29  2  1 30.0000000  0  9G10G17G25G09G12G02G04G27G05
 109756005.540 7  85524266.08146  20885863.156                    20885871.566
 123170085.506 7  95976765.259 6  23438476.352
 124489470.002 7  97004804.073 6  23689558.328
 126563828.306 6  98621241.80844  24084307.484                    24084319.176
 111160832.951 8  86618863.615 7  21153200.211
 108148617.708 8  84271747.72746  20579972.789                    20579979.121
 115336898.334 8  89873048.76145  21947864.742                    21947873.977
 127307529.315 6  99200735.60243  24225826.984                    24225839.391
 114031227.666 7  88855603.331 7  21699409.023
 11  7 29  2  2  0.0000000  0  9G10G17G25G09G12G02G04G27G05
 109765305.414 8  85531512.74446  20887632.820                    20887641.531
 123229106.773 7  96022755.838 6  23449707.625
 124394983.107 7  96931177.909 6  23671577.227
 126647117.123 6  98686142.10243  24100156.664                    24100169.516
 111113917.263 8  86582305.943 7  21144272.359
 108153907.811 8  84275869.88446  20580979.391                    20580985.563
 115415869.597 7  89934584.81145  21962892.305                    21962901.375
 127372909.798 6  99251681.33443  24238267.813                    24238281.086
 113946941.921 8  88789926.182 7  21683370.117
 11  7 29  2  2 30.0000000  0  9G10G17G25G09G12G02G04G27G05
 109775238.535 8  85539252.83446  20889523.648                    20889531.984
 123288294.735 7  96068876.348 6  23460970.938
 124300736.594 7  96857739.079 6  23653643.211
 126730487.887 6  98751106.24643  24116023.125                    24116033.730
 111067490.923 8  86546129.592 7  21135437.633
 108159470.454 8  84280204.41046  20582037.984                    20582044.402
 115494950.792 7  89996206.52445  21977940.742                    21977950.512
 127438292.034 6  99302628.41943  24250710.430                    24250722.723
 113863013.764 7  88724527.673 7  21667398.969
 11  7 29  2  3  0.0000000  0  9G10G17G25G09G12G02G04G27G05
 109785804.711 8  85547486.24046  20891533.836                    20891542.477
 123347650.068 7  96115127.223 6  23472265.586
 124206732.958 7  96784489.516 6  23635754.820
 126813936.748 6  98816131.23643  24131901.555                    24131912.914
 111021555.994 8  86510336.145 7  21126696.438
 108165304.308 8  84284750.26446  20583148.398                    20583154.164
 115574140.209 7  90057912.57745  21993010.422                    21993019.055
 127503673.180 6  99353574.65143  24263151.461                    24263164.355
 113779445.787 8  88659409.815 7  21651496.453
 11  7 29  2  3 30.0000000  0  9G10G17G25G09G12G02G04G27G05
 109797004.125 8  85556213.07746  20893665.305                    20893673.574
 123407173.434 7  96161509.057 6  23483592.828
 124112975.360 7  96711431.668 6  23617913.445
 126897460.964 6  98881214.99243  24147796.516                    24147807.543
 110976114.723 8  86474927.371 7  21118049.633
 108171409.034 8  84289507.19946  20584310.070                    20584315.973
 115653436.114 7  90119701.59745  22008099.953                    22008108.730
 127569050.927 6  99404518.25443  24275592.938                    24275605.555
 113696241.388 8  88594575.268 7  21635663.219
 11  7 29  2  4  0.0000000  0  9G10G17G25G09G12G02G04G27G05
 109808835.965 8  85565432.70046  20895916.547                    20895924.965
 123466865.024 7  96208021.990 6  23494951.477
 124019466.180 7  96638567.381 6  23600118.805
 126981056.980 6  98946354.67943  24163703.922                    24163715.813
 110931168.454 8  86439904.306 7  21109496.398
 108177783.544 8  84294474.35046  20585522.641                    20585529.113
 115732836.644 7  90181572.15345  22023209.109                    22023218.465
 127634422.425 6  99455457.01843  24288032.406                    24288045.090
 113613402.798 8  88530025.774 7  21619899.305
 11  7 29  2  4 30.0000000  0  9G10G17G25G09G12G02G04G27G05
 109821300.347 8  85575145.22646  20898288.219                    20898297.281
 123526725.084 7  96254666.187 6  23506343.289
 123926208.209 7  96565898.877 6  23582372.672
 127064721.710 7  99011547.90143  24179625.148                    24179636.063
 110886719.507 8  86405268.779 7  21101038.055
 108184426.478 8  84299650.67346  20586786.891                    20586793.074
 115812340.190 7  90243522.97945  22038338.219                    22038347.203
 127699785.208 6  99506388.93143  24300471.305                    24300483.250
 113530932.945 8  88465763.599 7  21604206.008
 11  7 29  2  5  0.0000000  0  9G10G17G25G09G12G02G04G27G05
 109834396.903 7  85585350.35046  20900780.711                    20900789.254
 123586753.953 7  96301441.895 6  23517765.656
 123833204.166 7  96493428.240 6  23564674.117
 127148452.040 6  99076792.25643  24195558.789                    24195569.566
 110842769.577 7  86371022.071 7  21092674.820
 108191336.992 8  84305035.50346  20588101.922                    20588107.602
 115891944.828 7  90305552.57045  22053486.375                    22053495.559
 127765136.529 6  99557311.95643  24312907.727                    24312919.730
 113448834.529 8  88401790.848 7  21588583.547
 11  7 29  2  5 30.0000000  0  9G10G17G25G09G12G02G04G27G05
 109848124.679 8  85596047.32846  20903393.117                    20903401.418
 123646952.111 7  96348349.561 6  23529221.195
 123740456.465 7  96421157.305 6  23547025.375
 127232244.233 6  99142084.84244  24211503.805                    24211515.281
 110799320.551 8  86337165.696 7  21084406.703
 108198513.008 8  84310627.22446  20589467.648                    20589473.523
 115971648.761 7  90367659.54945  22068653.539                    22068662.344
 127830473.318 6  99608223.66643  24325340.305                    24325352.723
 113367109.833 8  88338109.317 7  21573031.328
 11  7 29  2  6  0.0000000  0  9G10G17G25G09G12G02G04G27G05
 109862483.558 8  85607236.08546  20906125.305                    20906133.766
 123707319.877 7  96395389.389 6  23540708.813
 123647967.864 7  96349088.319 6  23529424.898
 127316095.041 7  99207423.10143  24227459.742                    24227471.145
 110756374.239 8  86303701.038 7  21076234.180
 108205953.848 8  84316425.29146  20590883.313                    20590889.492
 116051450.108 7  90429842.41745  22083839.398                    22083848.344
 127895793.201 5  99659122.17842  24337770.125                    24337782.918
 113285761.693 8  88274721.197 7  21557551.414
 11  7 29  2  6 30.0000000  0  9G10G17G25G09G12G02G04G27G05
 109877473.134 8  85618916.28745  20908977.758                    20908985.988
 123767857.880 7  96442561.814 6  23552228.867
 123555741.183 7  96277223.429 6  23511875.086
 127400001.280 6  99272804.54444  24243426.797                    24243438.492
 110713932.867 7  86270629.843 7  21068157.898
 108213658.558 8  84322428.97246  20592349.531                    20592355.313
 116131347.410 7  90492100.06745  22099042.906                    22099052.004
 127961093.549 5  99710005.45342  24350196.180                    24350209.086
 113204792.913 8  88211628.679 7  21542143.820
 11  7 29  2  7  0.0000000  0  9G10G17G25G09G12G02G04G27G05
 109893092.876 8  85631087.52346  20911950.023                    20911958.695
 123828566.055 6  96489866.861 6  23563781.398
 123463779.072 7  96205564.712 6  23494375.414
 127483959.744 7  99338226.67244  24259403.594                    24259415.164
 110671997.810 7  86237953.177 7  21060177.969
 108221625.649 8  84328637.11446  20593865.352                    20593871.680
 116211338.841 7  90554431.06645  22114264.742                    22114274.516
 128026371.655 6  99760871.37842  24362618.953                    24362631.266
 113124206.187 8  88148833.873 7  21526808.578
 11  7 29  2  7 30.0000000  0  9G10G17G25G09G12G02G04G27G05
 109909342.062 8  85643749.24446  20915042.258                    20915050.734
 123889444.931 6  96537304.942 6  23575365.664
 123372084.046 7  96134114.115 6  23476925.789
 127567967.109 6  99403686.90843  24275389.164                    24275401.359
 110630570.918 8  86205672.485 7  21052294.734
 108229854.240 8  84335049.01446  20595431.320                    20595438.008
 116291422.711 7  90616834.09745  22129504.586                    22129513.891
 128091624.709 5  99811717.86642  24375036.656                    24375047.988
 113044003.752 8  88086338.518 7  21511546.578
 11  7 29  2  8  0.0000000  0  9G10G17G25G09G12G02G04G27G05
 109926220.304 8  85656901.12946  20918254.219                    20918262.613
 123950494.823 6  96584876.273 6  23586983.141
 123280658.714 7  96062873.670 6  23459528.469
 127652020.159 6  99469182.75043  24291384.297                    24291395.879
 110589654.111 8  86173789.277 7  21044508.336
 108238342.992 8  84341663.63446  20597047.008                    20597053.453
 116371597.101 7  90679307.65845  22144761.070                    22144770.195
 128156850.245 6  99862542.90742  24387448.922                    24387460.332
 112964188.245 8  88024144.649 7  21496357.953
 11  7 29  2  8 30.0000000  0  9G10G17G25G09G12G02G04G27G05
 109943727.258 7  85670542.91346  20921585.313                    20921593.922
 124011716.099 6  96632581.130 6  23598633.570
 123189506.020 7  95991845.646 6  23442182.477
 127736115.532 6  99534711.55843  24307386.219                    24307398.988
 110549249.252 7  86142304.978 7  21036819.539
 108247090.752 8  84348480.09146  20598711.719                    20598717.859
 116451860.479 7  90741850.59345  22160035.000                    22160043.695
 128222045.802 6  99913344.53743  24399855.211                    24399867.059
 112884762.665 8  87962254.626 7  21481244.063
 11  7 29  2  9  0.0000000  0  9G10G17G25G09G12G02G04G27G05
 109961862.294 8  85684674.11846  20925036.117                    20925045.164
 124073109.239 6  96680419.916 6  23610316.570
 123098628.778 7  95921032.302 6  23424889.008
 127820250.125 6  99600270.90043  24323397.984                    24323408.875
 110509358.361 8  86111221.177 7  21029228.406
 108256096.895 8  84355497.88646  20600425.461                    20600431.609
 116532211.297 7  90804461.63445  22175325.180                    22175333.676
 128287208.803 6  99964120.79143  24412255.109                    24412267.656
 112805729.917 8  87900670.717 7  21466203.773
 11  7 29  2  9 30.0000000  0  9G10G17G25G09G12G02G04G27G05
 109980624.714 8  85699294.18946  20928607.047                    20928615.430
 124134674.541 6  96728392.864 6  23622031.164
 123008029.573 7  95850435.583 6  23407648.766
 127904420.724 6  99665858.31243  24339414.680                    24339425.789
 110469983.274 8  86080539.292 7  21021735.664
 108265359.913 8  84362715.83046  20602187.828                    20602193.902
 116612647.822 7  90867139.47345  22190631.578                    22190640.520
 128352336.479 6 100014869.54443  24424648.609                    24424661.000
 112727092.243 8  87839394.639 7  21451240.234
 11  7 29  2 10  0.0000000  0  9G10G17G25G09G12G02G04G27G05
 110000013.424 7  85714402.28746  20932296.633                    20932305.031
 124196412.274 6  96776500.162 6  23633780.164
 122917710.671 7  95780057.266 6  23390461.227
 127988623.837 6  99731471.11043  24355438.750                    24355449.324
 110431124.756 8  86050259.942 7  21014341.086
 108274878.154 8  84370132.64346  20603999.352                    20604005.211
 116693167.994 7  90929882.50145  22205954.117                    22205963.160
 128417425.907 6 100065588.47243  24437034.805                    24437047.102
 112648851.885 8  87778428.163 7  21436351.305
 11  7 29  2 10 30.0000000  0  9G10G17G25G09G12G02G04G27G05
 110020027.689 8  85729997.81746  20936104.922                    20936113.297
 124258322.484 6  96824741.848 6  23645561.367
 122827674.846 7  95709899.559 6  23373328.313
 128072856.292 6  99797106.71243  24371466.852                    24371478.609
 110392784.875 8  86020384.712 7  21007045.258
 108284650.514 8  84377747.48046  20605858.438                    20605864.887
 116773770.416 7  90992689.60245  22221292.211                    22221301.418
 128482474.370 6 100116275.49643  24449413.227                    24449425.199
 112571011.378 8  87717773.265 7  21421538.578
 11  7 29  2 11  0.0000000  0  9G10G17G25G09G12G02G04G27G05
 110040667.266 7  85746080.61046  20940032.469                    20940041.133
 124320405.799 6  96873118.430 6  23657374.992
 122737924.966 7  95639964.653 7  23356249.039
 128157115.036 6  99862762.85143  24387500.688                    24387512.148
 110354965.666 8  85990915.204 7  20999848.578
 108294676.226 8  84385559.72746  20607766.516                    20607772.852
 116854453.543 7  91055559.58945  22236645.555                    22236654.980
 128547479.679 6 100166928.83943  24461782.805                    24461795.902
 112493573.735 8  87657432.290 7  21406802.695
 11  7 29  2 11 30.0000000  0  9G10G17G25G09G12G02G04G27G05
 110061931.456 7  85762650.11446  20944079.008                    20944087.527
 124382662.316 6  96921629.981 6  23669222.305
 122648463.769 7  95570254.693 6  23339225.836
 128241396.992 6  99928437.08643  24403539.328                    24403549.961
 110317668.854 8  85961852.769 7  20992751.273
 108304954.289 8  84393568.62146  20609722.344                    20609728.473
 116935215.716 7  91118491.18245  22252013.875                    22252023.047
 128612439.178 6 100217546.54043  24474145.219                    24474156.918
 112416541.307 8  87597407.054 7  21392143.984
 11  7 29  2 12  0.0000000  0  9G10G17G25G09G12G02G04G27G05
 110083819.331 7  85779705.60746  20948244.219                    20948252.949
 124445092.490 6  96970276.794 6  23681102.180
 122559293.931 7  95500771.785 6  23322256.609
 128325699.102 6  99994127.00143  24419581.813                    24419592.789
 110280895.979 8  85933198.579 7  20985753.531
 108315483.457 8  84401773.17246  20611726.047                    20611732.387
 117016055.199 7  91181483.01345  22267397.141                    22267406.719
 128677350.305 6 100268126.56043  24486497.086                    24486509.172
 112339916.766 8  87537699.661 7  21377562.273
 11  7 29  2 12 30.0000000  0  8G10G17G25G09G12G02G04G05
 110106330.481 7  85797246.76746  20952527.945                    20952536.551
 124507697.068 6  97019059.543 6  23693015.523
 122470418.473 7  95431518.226 6  23305344.531
 128410018.556 6 100059830.42443  24435627.250                    24435638.977
 110244649.123 8  85904954.276 7  20978855.750
 108326262.991 8  84410172.83046  20613777.195                    20613783.531
 117096970.875 7  91244534.21145  22282795.383                    22282803.977
 112263703.139 8  87478312.468 7  21363059.906
 11  7 29  2 13  0.0000000  0  8G10G17G25G09G12G02G04G05
 110129463.430 8  85815272.44246  20956929.570                    20956938.512
 124570475.753 7  97067977.948 6  23704962.547
 122381839.535 7  95362495.742 6  23288488.297
 128494351.581 6 100125544.43243  24451674.781                    24451686.559
 110208929.321 8  85877120.665 7  20972058.727
 108337291.020 8  84418766.11046  20615875.563                    20615881.910
 117177960.445 7  91307642.97845  22298206.781                    22298215.938
 112187902.222 8  87419246.849 7  21348635.250
 11  7 29  2 13 30.0000000  0  8G10G17G25G09G12G02G04G05
 110153217.725 8  85833782.29346  20961450.063                    20961458.527
 124633428.918 7  97117032.330 6  23716941.789
 122293559.975 7  95293706.504 6  23271689.172
 128578695.010 6 100191266.52743  24467725.875                    24467737.195
 110173738.316 8  85849699.112 7  20965362.414
 108348566.735 8  84427552.39146  20618021.547                    20618027.691
 117259022.563 7  91370808.28145  22313632.500                    22313641.852
 112112516.557 8  87360504.813 7  21334289.875
 11  7 29  2 14  0.0000000  0  8G10G17G25G09G12G02G04G05
 110177591.853 8  85852775.12646  20966088.742                    20966097.129
 124696556.621 7  97166222.742 6  23728954.430
 122205582.085 7  95225152.316 6  23254947.117
 128663045.206 6 100256993.93143  24483775.531                    24483788.188
 110139077.290 8  85822690.519 7  20958766.336
 108360088.368 8  84436530.29946  20620213.992                    20620220.035
 117340155.309 7  91434028.58045  22329071.039                    22329080.652
 112037548.412 8  87302088.111 7  21320023.977
 11  7 29  2 14 30.0000000  0  8G10G17G25G09G12G02G04G05
 110202585.297 8  85872250.54746  20970844.328                    20970852.629
 124759859.361 7  97215549.534 6  23741000.961
 122117908.737 7  95156835.476 6  23238263.070
 128747399.327 6 100322724.31243  24499827.898                    24499840.461
 110104948.299 8  85796096.507 7  20952272.102
 108371855.006 8  84445699.12846  20622453.250                    20622459.582
 117421357.363 7  91497302.90345  22344523.578                    22344532.895
 111963000.527 8  87243998.892 7  21305837.758
 11  7 29  2 15  0.0000000  0  8G10G17G25G09G12G02G04G05
 110228197.244 8  85892207.92346  20975718.141                    20975726.762
 124823337.478 7  97265012.962 6  23753079.813
 122030542.646 7  95088758.062 6  23221638.773
 128831754.210 6 100388455.34643  24515880.461                    24515892.500
 110071353.037 8  85769918.393 7  20945878.906
 108383865.749 8  84455058.15446  20624738.539                    20624744.719
 117502627.182 7  91560630.01645  22359988.406                    22359998.152
 111888875.433 8  87186239.110 7  21291732.328
 11  7 29  2 15 30.0000000  0  8G10G17G25G09G12G02G04G05
 110254427.066 8  85912646.75546  20980709.641                    20980718.398
 124886991.071 7  97314613.163 6  23765192.961
 121943486.560 7  95020922.156 6  23205072.516
 128916106.862 6 100454184.61443  24531932.977                    24531944.332
 110038292.556 8  85744156.991 7  20939587.477
 108396119.456 8  84464606.51546  20627070.313                    20627076.406
 117583963.227 7  91624008.73345  22375466.477                    22375475.520
 111815175.607 8  87128810.708 7  21277707.836
 11  7 29  2 16  0.0000000  0  8G10G17G25G09G12G02G04G05
 110281273.123 8  85933565.76946  20985817.820                    20985826.867
 124950820.318 7  97364350.245 5  23777339.719
 121856742.817 7  94953329.651 6  23188565.820
 129000453.970 6 100519909.58244  24547983.961                    24547994.961
 110005768.208 8  85718813.364 7  20933398.344
 108408614.289 8  84474342.76546  20629448.109                    20629454.313
 117665363.665 7  91687437.60645  22390956.813                    22390966.137
 111741903.065 8  87071715.261 7  21263764.117
 11  7 29  2 16 30.0000000  0  8G10G17G25G09G12G02G04G05
 110308734.322 8  85954964.11246  20991043.906                    20991052.555
 125014825.604 7  97414224.499 5  23789519.445
 121770314.032 7  94885982.567 6  23172118.453
 129084792.455 6 100585627.84144  24564032.398                    24564044.070
 109973781.570 8  85693888.739 7  20927311.563
 108421349.679 8  84484266.45746  20631871.367                    20631878.094
 117746826.870 7  91750915.38544  22406458.727                    22406467.605
 111669060.273 8  87014954.685 7  21249902.625
 11  7 29  2 17  0.0000000  0  8G10G17G25G09G12G02G04G05
 110336809.926 8  85976841.22546  20996386.266                    20996394.785
 125079007.225 7  97464236.132 6  23801732.852
 121684203.167 7  94818883.177 6  23155732.078
 129169119.397 6 100651337.09544  24580079.570                    24580091.344
 109942334.422 8  85669384.489 7  20921327.555
 108434324.594 8  84494376.79346  20634340.734                    20634346.996
 117828351.625 7  91814441.12445  22421972.266                    22421981.695
 111596649.843 8  86958531.010 7  21236123.367
 11  7 29  2 17 30.0000000  0  8G10G17G25G09G12G02G04G05
 110365498.360 7  85999195.86246  21001845.852                    21001854.176
 125143365.086 7  97514385.069 6  23813979.828
 121598412.533 7  94752033.341 6  23139407.133
 129253431.451 6 100717034.72643  24596123.508                    24596135.207
 109911427.841 8  85645301.443 7  20915445.883
 108447537.364 8  84504672.47146  20636855.063                    20636860.910
 117909936.323 7  91878013.56144  22437496.789                    22437506.250
 111524673.866 8  86902445.872 7  21222426.961
 11  7 29  2 18  0.0000000  0  8G10G17G25G09G12G02G04G05
 110394798.907 8  86022027.47446  21007421.695                    21007430.227
 125207899.674 6  97564671.781 6  23826259.438
 121512945.106 7  94685435.354 6  23123142.539
 129337725.650 6 100782718.45443  24612164.633                    24612175.523
 109881063.509 8  85621640.938 7  20909667.977
 108460987.199 8  84515152.87346  20639414.242                    20639420.938
 117991579.491 7  91941631.56545  22453033.313                    22453043.004
 111453135.005 8  86846701.343 7  21208813.422
 11  7 29  2 18 30.0000000  0  8G10G17G25G09G12G02G04G05
 110424710.740 8  86045335.40645  21013113.344                    21013122.184
 125272611.327 6  97615096.353 6  23838573.281
 121427803.513 7  94619091.240 6  23106941.023
 129421998.824 6 100848385.83043  24628200.711                    24628213.172
 109851243.075 8  85598404.242 7  20903993.289
 108474672.882 8  84525817.04946  20642018.836                    20642024.988
 118073279.649 7  92005293.96744  22468581.031                    22468590.379
 111382035.838 8  86791299.419 7  21195283.625
 11  7 29  2 19  0.0000000  0  8G10G17G25G09G12G02G04G05
 110455232.332 8  86069118.47646  21018921.344                    21018929.961
 125337500.155 6  97665659.051 6  23850922.000
 121342990.362 7  94553003.065 7  23090801.750
 129506247.731 6 100914034.24643  24644232.961                    24644244.207
 109821967.504 8  85575592.111 7  20898422.289
 108488593.325 8  84536664.16146  20644667.313                    20644673.820
 118155035.358 7  92068999.67545  22484138.063                    22484147.484
 111311378.418 8  86736241.743 7  21181837.805
 11  7 29  2 19 30.0000000  0  8G10G17G25G09G12G02G04G05
 110486362.653 8  86093375.89146  21024845.469                    21024853.898
 125402566.310 6  97716359.905 6  23863304.242
 121258508.352 7  94487172.927 7  23074725.188
 129590469.532 5 100979661.54742  24660259.984                    24660271.742
 109793238.339 8  85553205.755 7  20892954.953
 108502747.094 8  84547693.07046  20647360.773                    20647366.742
 118236845.229 7  92132747.58344  22499706.156                    22499715.305
 111241165.317 8  86681530.271 7  21168476.703
 11  7 29  2 20  0.0000000  0  8G10G17G25G09G12G02G04G05
 110518100.142 8  86118106.41046  21030884.703                    21030893.277
 125467810.053 6  97767199.147 6  23875719.070
 121174359.931 7  94421602.723 7  23058712.445
 129674661.134 5 101045265.27943  24676280.461                    24676293.184
 109765057.350 8  85531246.556 7  20887592.453
 108517132.911 8  84558902.79646  20650098.539                    20650104.773
 118318707.457 7  92196536.28444  22515283.797                    22515293.496
 111171398.601 8  86627166.634 7  21155200.414
 11  7 29  2 20 30.0000000  0  8G10G17G25G09G12G02G04G05
 110550443.897 7  86143309.34946  21037039.672                    21037048.215
 125533231.511 6  97818176.904 7  23888168.273
 121090547.610 7  94356294.440 6  23042763.563
 129758819.273 6 101110843.00743  24692295.695                    24692307.559
 109737424.863 8  85509714.760 7  20882334.203
 108531750.095 8  84570292.80746  20652880.336                    20652886.406
 118400620.583 7  92260364.65544  22530871.844                    22530880.750
 111102080.477 8  86573152.546 7  21142009.914
 11  7 29  2 21  0.0000000  0  8G10G17G25G09G12G02G04G05
 110583392.673 8  86168983.72946  21043309.633                    21043318.320
 125598831.153 6  97869293.513 6  23900652.203
 121007074.332 7  94291250.334 6  23026878.445
 129842940.958 6 101176392.28643  24708303.414                    24708315.914
 109710342.806 8  85488611.879 7  20877180.711
 108546597.700 8  84581862.37446  20655705.547                    20655711.363
 118482583.427 7  92324231.77344  22546468.602                    22546477.574
 111033213.535 8  86519490.034 7  21128904.773
 11  7 29  2 21 30.0000000  0  8G10G17G25G09G12G02G04G05
 110616945.010 8  86195128.43246  21049694.586                    21049702.992
 125664608.718 6  97920548.743 6  23913169.266
 120923942.413 7  94226472.216 6  23011059.758
 129927023.334 6 101241910.92343  24724304.398                    24724316.461
 109683812.040 8  85467938.558 7  20872131.938
 108561673.886 8  84593610.04546  20658574.414                    20658580.387
 118564594.172 7  92388136.21344  22562074.750                    22562084.066
 110964799.720 8  86466180.602 7  21115886.094
 11  7 29  2 22  0.0000000  0  8G10G17G25G09G12G02G04G05
 110651099.915 8  86221742.65746  21056193.930                    21056202.031
 125730564.550 6  97971942.927 6  23925720.172
 120841154.762 7  94161962.361 6  22995306.203
 130011063.287 6 101307396.51443  24740297.359                    24740308.496
 109657834.361 8  85447696.226 7  20867188.586
 108576977.943 8  84605535.29646  20661486.508                    20661492.973
 118646651.956 7  92452077.31644  22577689.719                    22577699.316
 110896841.472 8  86413226.157 7  21102954.109
 11  7 29  2 22 30.0000000  0  8G10G17G25G09G12G02G04G05
 110685855.690 8  86248825.08845  21062807.352                    21062816.074
 125796698.824 7  98023476.151 6  23938305.320
 120758713.810 7  94097722.682 7  22979617.836
 130095057.660 6 101372846.59543  24756280.039                    24756292.379
 109632410.607 8  85427885.526 7  20862350.805
 108592508.405 8  84617636.95746  20664442.008                    20664448.375
 118728754.846 7  92516053.56444  22593313.273                    22593322.551
 110829341.009 8  86360628.428 7  21090108.969
 11  7 29  2 23  0.0000000  0  8G10G17G25G09G12G02G04G05
 110721210.850 8  86276374.57946  21069534.930                    21069544.000
 125863011.891 7  98075148.690 6  23950923.578
 120676621.982 7  94033755.072 7  22963995.938
 130179003.406 6 101438258.79143  24772254.609                    24772267.250
 109607542.156 8  85408507.525 7  20857618.367
 108608264.041 8  84629914.08146  20667440.305                    20667446.738
 118810901.534 7  92580063.94744  22608945.516                    22608955.070
 110762300.241 8  86308388.899 7  21077351.836
 11  7 29  2 23 30.0000000  0  8G10G17G25G09G12G02G04G05
 110757164.492 8  86304390.42146  21076377.539                    21076386.086
 125929503.710 7  98126960.545 6  23963576.859
 120594882.221 7  93970061.807 7  22948440.961
 130262897.713 6 101503630.91443  24788219.633                    24788231.406
 109583230.201 8  85389563.157 7  20852991.797
 108624243.982 8  84642365.97446  20670481.008                    20670487.445
 118893090.741 7  92644107.46144  22624585.445                    22624594.586
 110695721.899 8  86256509.713 7  21064681.953
 11  7 29  2 24  0.0000000  0  8G10G17G25G09G12G02G04G05
 110793714.926 8  86332871.29345  21083332.609                    21083340.551
 125996174.261 7  98178911.631 6  23976264.383
 120513496.852 7  93906644.705 7  22932954.117
 130346737.691 6 101568960.69143  24804173.805                    24804185.543
 109559475.961 8  85371053.365 7  20848471.438
 108640447.032 8  84654991.73046  20673564.617                    20673570.664
 118975320.900 7  92708182.87044  22640233.891                    22640242.625
 110629607.411 8  86204991.966 7  21052100.758
 11  7 29  2 24 30.0000000  0  8G10G17G25G09G12G02G04G05
 110830860.768 8  86361816.11146  21090401.328                    21090409.434
 126063023.983 7  98231002.367 6  23988984.594
 120432468.684 7  93843505.922 7  22917535.117
 130430520.286 6 101634245.75243  24820116.102                    24820128.840
 109536280.502 8  85352978.996 7  20844057.359
 108656872.007 8  84667790.42046  20676689.766                    20676696.309
 119057590.769 7  92772289.24644  22655889.148                    22655897.766
 110563959.949 8  86153838.135 7  21039608.727
 11  7 29  2 25  0.0000000  0  8G10G17G25G09G12G02G04G05
 110868600.576 8  86391223.77345  21097582.500                    21097591.332
 126130052.924 6  98283232.719 5  24001739.883
 120351800.217 7  93780647.438 6  22902184.586
 130514242.156 6 101699483.52943  24836049.164                    24836060.648
 109513644.917 8  85335340.875 7  20839749.945
 108673517.622 8  84680761.04046  20679857.367                    20679863.750
 119139899.050 7  92836425.53944  22671552.281                    22671560.977
 110498781.197 8  86103049.524 7  21027205.414
 11  7 29  2 25 30.0000000  0  8G10G17G25G09G12G02G04G05
 110906933.178 8  86421093.34646  21104877.094                    21104885.652
 126197261.532 6  98335603.088 5  24014529.750
 120271494.404 7  93718071.540 7  22886902.570
 130597901.070 6 101764672.20342  24851967.117                    24851980.980
 109491570.670 8  85318140.167 7  20835549.750
 108690383.325 8  84693903.15546  20683067.141                    20683073.340
 119222244.584 7  92900590.87744  22687221.438                    22687231.000
 110434073.541 8  86052628.007 7  21014892.484
 11  7 29  2 26  0.0000000  0  7G10G17G25G12G02G04G05
 110945859.043 8  86451425.21446  21112284.258                    21112293.020
 126264652.052 6  98388115.214 5  24027352.477
 120191555.872 7  93655781.819 6  22871690.297
 109470060.980 8  85301379.366 7  20831456.664
 108707470.112 8  84707217.55046  20686318.539                    20686324.566
 119304628.298 7  92964785.95044  22702898.734                    22702908.477
 110369841.283 8  86002576.923 7  21002669.117
 11  7 29  2 26 30.0000000  0  7G10G17G25G12G02G04G05
 110985373.906 8  86482216.02245  21119804.180                    21119812.242
 126332221.943 6  98440767.122 5  24040211.180
 120111984.297 7  93593778.073 7  22856548.352
 109449114.293 8  85285057.284 7  20827470.750
 108724773.891 8  84720701.02946  20689611.195                    20689617.449
 119387045.739 7  93029007.32744  22718582.102                    22718591.465
 110306083.663 8  85952895.691 7  20990536.352
 11  7 29  2 27  0.0000000  0  7G10G17G25G12G02G04G05
 111025476.362 8  86513464.71145  21127435.258                    21127443.320
 126399971.392 6  98493558.888 6  24053103.539
 120032782.446 7  93532062.408 7  22841476.594
 109428731.364 8  85269174.487 7  20823591.961
 108742293.776 8  84734352.89046  20692945.273                    20692951.402
 119469495.940 7  93093254.21144  22734271.695                    22734281.516
 110242803.130 8  85903586.213 7  20978494.445
 11  7 29  2 27 30.0000000  0  7G10G17G25G12G02G04G05
 111066164.650 8  86545169.90345  21135177.625                    21135186.391
 126467900.322 6  98546490.498 6  24066029.266
 119953952.680 7  93470636.688 7  22826475.813
 109408912.976 8  85253731.594 7  20819820.852
 108760028.180 8  84748171.91046  20696319.836                    20696325.965
 119551977.438 7  93157525.49344  22749968.070                    22749977.289
 110180001.254 8  85854649.709 7  20966543.625
 11  7 29  2 28  0.0000000  0  7G10G17G25G12G02G04G05
 111107437.624 8  86577330.69645  21143031.609                    21143040.484
 126536009.001 6  98599562.222 6  24078991.242
 119875497.943 7  93409503.176 7  22811546.594
 109389660.833 8  85238729.946 7  20816156.742
 108777976.528 8  84762157.64446  20699735.117                    20699741.691
 119634489.231 7  93221820.38844  22765669.266                    22765678.402
 110117680.613 7  85806088.201 7  20954684.117
 11  7 29  2 28 30.0000000  0  7G10G17G25G12G02G04G05
 111149293.350 8  86609945.57645  21150996.500                    21151005.004
 126604297.470 6  98652773.976 6  24091985.172
 119797420.572 7  93348663.709 7  22796689.203
 109370975.739 8  85224170.143 7  20812601.172
 108796137.561 8  84776309.10446  20703191.336                    20703197.793
 119717029.935 7  93286137.80244  22781376.445                    22781385.414
 110055843.321 8  85757903.331 7  20942917.188
 11  7 29  2 29  0.0000000  0  7G10G17G25G12G02G04G05
 111191730.196 8  86643013.27445  21159071.813                    21159080.617
 126672765.886 6  98706126.007 6  24105014.461
 119719722.907 7  93288120.140 7  22781903.648
 109352858.143 8  85210052.534 7  20809153.328
 108814509.723 8  84790625.07646  20706687.266                    20706693.367
 119799597.935 7  93350476.50844  22797088.227                    22797097.844
 109994490.821 8  85710096.238 7  20931242.180
 11  7 29  2 29 30.0000000  0  7G10G17G25G12G02G04G05
 111234746.812 8  86676532.74545  21167257.844                    21167266.496
 126741414.384 6  98759618.360 6  24118078.563
 119642407.810 7  93227874.628 7  22767190.945
 109335309.650 8  85196378.406 7  20805814.281
 108833092.398 8  84805105.09346  20710223.305                    20710229.648
 119882192.294 7  93414835.75244  22812805.781                    22812815.438
 109933625.652 8  85662668.869 7  20919659.836
 11  7 29  2 30  0.0000000  0  7G10G17G25G12G02G04G05
 111278341.167 8  86710502.39645  21175553.578                    21175562.324
 126810242.874 6  98813250.922 6  24131175.773
 119565477.818 7  93167929.233 7  22752551.461
 109318330.916 8  85183148.237 7  20802583.336
 108851884.613 8  84819748.38546  20713799.547                    20713805.691
 119964811.818 7  93479214.59244  22828527.234                    22828537.230
 109873249.597 8  85615622.616 7  20908170.219
 11  7 29  2 30 30.0000000  0  7G10G17G25G12G02G04G05
 111322511.692 8  86744921.03045  21183958.922                    21183966.910
 126879251.569 7  98867023.921 6  24144307.906
 119488935.514 7  93108285.893 7  22737985.992
 109301923.081 8  85170362.926 7  20799460.898
 108870885.469 8  84834554.24646  20717415.195                    20717421.418
 120047455.318 7  93543612.12844  22844253.813                    22844263.563
 109813364.772 8  85568959.158 7  20896774.617
 11  7 29  2 31  0.0000000  0  7G10G17G25G12G02G04G05
 111367256.584 7  86779787.21045  21192473.492                    21192481.820
 126948440.559 7  98920937.428 6  24157474.211
 119412783.085 7  93048946.355 7  22723494.680
 109286086.630 8  85158022.850 7  20796447.375
 108890093.170 8  84849521.28246  20721070.375                    20721077.078
 120130121.237 7  93608027.13544  22859985.234                    22859993.980
 109753972.953 8  85522679.840 7  20885473.344
 11  7 29  2 31 30.0000000  0  7G10G17G25G12G02G04G05
 111412574.123 7  86815099.60845  21201097.172                    21201105.266
 127017809.968 7  98974991.541 6  24170674.711
 119337023.137 7  92989912.649 7  22709078.289
 109270822.112 8  85146128.433 7  20793542.461
 108909506.852 8  84864648.83546  20724764.641                    20724771.004
 120212808.419 7  93672458.69744  22875719.930                    22875729.301
 109695076.325 8  85476786.391 7  20874265.438
 11  7 29  2 32  0.0000000  0  7G10G17G25G12G02G04G05
 111458462.504 7  86850856.82245  21209829.398                    21209837.785
 127087359.751 7  99029186.145 7  24183909.234
 119261658.261 7  92931186.779 7  22694736.695
 109256130.903 8  85134680.741 7  20790746.961
 108929125.465 8  84879936.07246  20728497.891                    20728504.254
 120295515.809 7  93736906.02644  22891458.922                    22891467.609
 109636676.603 8  85431280.144 8  20863152.031
 11  7 29  2 32 30.0000000  0  7G10G17G25G12G02G04G05
 111504919.830 8  86887057.37045  21218670.102                    21218678.348
 127157089.838 7  99083521.293 6  24197178.625
 119186690.867 7  92872770.632 7  22680470.398
 109242013.370 8  85123680.079 7  20788060.672
 108948947.809 8  84895382.04646  20732269.891                    20732276.305
 120378242.025 7  93801368.00644  22907200.578                    22907210.051
 109578775.559 8  85386162.470 7  20852134.070
 11  7 29  2 33  0.0000000  0  7G10G17G25G12G02G04G05
 111551944.740 7  86923700.18845  21227618.516                    21227626.672
 127227000.495 7  99137997.127 6  24210481.617
 119112123.694 7  92814666.341 7  22666281.313
 109228470.747 8  85113127.394 7  20785483.430
 108968973.116 8  84910986.16946  20736080.781                    20736086.801
 120460986.174 7  93865843.98444  22922946.914                    22922955.805
 109521375.521 8  85341435.196 7  20841211.125
 11  7 29  2 33 30.0000000  0  7G10G17G25G12G02G04G05
 111599534.863 7  86960783.42345  21236674.695                    21236682.805
 127297091.501 7  99192613.526 6  24223820.859
 119037958.882 7  92756875.579 7  22652168.211
 109215503.433 8  85103022.996 7  20783015.508
 108989199.764 7  84926747.18046  20739929.805                    20739936.141
 120543746.673 7  93930332.68844  22938694.969                    22938704.051
 109464477.950 8  85297099.465 8  20830383.859
 11  7 29  2 34  0.0000000  0  7G10G17G25G12G02G04G05
 111647688.409 7  86998305.69645  21245837.656                    21245846.070
 127367362.990 7  99247370.538 6  24237192.273
 118964198.899 7  92699400.263 7  22638132.063
 109203111.909 8  85093367.260 7  20780657.766
 109009626.865 8  84942664.40246  20743816.633                    20743823.270
 120626522.511 7  93994833.33144  22954447.070                    22954455.918
 109408084.785 8  85253156.764 7  20819652.508
 11  7 29  2 34 30.0000000  0  7G10G17G25G12G02G04G05
 111696403.905 7  87036265.85245  21255107.820                    21255116.117
 127437815.048 6  99302268.285 6  24250598.961
 118890846.488 7  92642242.530 7  22624173.984
 109191297.344 8  85084161.115 7  20778409.688
 109030253.604 8  84958737.17846  20747742.047                    20747748.246
 120709312.755 7  94059345.25244  22970201.664                    22970210.441
 109352197.441 8  85209608.220 8  20809017.203
 11  7 29  2 35  0.0000000  0  8G10G17G25G29G12G02G04G05
 111745678.984 7  87074662.04245  21264484.758                    21264492.961
 127508447.183 6  99357306.358 6  24264039.867
 118817903.761 7  92585404.050 7  22610292.828
 129549315.64116 100947624.27116  24652436.398
 109180060.455 8  85075405.098 7  20776271.148
 109051078.629 8  84974964.46546  20751704.594                    20751711.398
 120792115.918 7  94123867.24444  22985958.781                    22985967.898
 109296818.387 8  85166455.737 8  20798479.211
 11  7 29  2 35 30.0000000  0  8G10G17G25G29G12G02G04G05
 111795511.222 7  87113492.38945  21273967.586                    21273976.102
 127579259.371 6  99412484.657 6  24277514.438
 118745372.724 7  92528886.358 7  22596490.547
 129469294.166 6 100885269.911 6  24637208.469
 109169400.751 8  85067098.842 7  20774242.477
 109072100.336 8  84991345.01146  20755705.398                    20755711.406
 120874930.420 7  94188398.04244  23001717.438                    23001726.883
 109241948.576 8  85123700.072 7  20788037.680
 11  7 29  2 36  0.0000000  0  8G10G17G25G29G12G02G04G05
 111845899.466 7  87152755.98345  21283556.383                    21283564.633
 127650252.189 6  99467803.762 6  24291024.570
 118673256.429 7  92472691.856 7  22582767.383
 129389202.744 6 100822861.027 6  24621966.031
 109159319.721 8  85059243.491 7  20772324.531
 109093318.266 8  85007878.45946  20759742.961                    20759749.379
 120957755.604 6  94252937.16444  23017478.078                    23017487.688
 109187590.385 8  85081343.067 7  20777693.750
 11  7 29  2 36 30.0000000  0  8G10G17G25G29G12G02G04G05
 111896841.551 8  87192451.13945  21293249.625                    21293258.441
 127721425.720 6  99523263.695 6  24304568.188
 118601557.328 7  92416822.458 7  22569123.453
 129309041.840 6 100760397.987 6  24606712.367
 109149818.039 8  85051839.580 7  20770516.523
 109114731.435 8  85024564.02946  20763817.508                    20763823.859
 121040590.455 6  94317483.82844  23033241.313                    23033250.535
 109133745.567 8  85039386.094 8  20767447.438
 11  7 29  2 37  0.0000000  0  8G10G17G25G29G12G02G04G05
 111948335.511 8  87232576.31345  21303049.188                    21303057.438
 127792779.707 6  99578864.167 6  24318146.750
 118530277.909 7  92361280.073 7  22555559.344
 129228811.889 6 100697881.139 6  24591445.406
 109140896.455 8  85044887.698 7  20768818.508
 109136338.785 8  85041400.92246  20767929.648                    20767935.191
 121123434.041 7  94382037.25444  23049005.945                    23049015.594
 109080415.885 8  84997830.540 7  20757298.828
 11  7 29  2 37 30.0000000  0  8G10G17G25G29G12G02G04G05
 112000379.582 7  87273130.15445  21312952.289                    21312961.031
 127864314.157 6  99634605.321 5  24331757.961
 118459420.489 7  92306066.549 7  22542075.781
 129148513.314 6 100635310.793 6  24576165.219
 109132555.201 8  85038388.025 7  20767231.227
 109158139.184 8  85058388.25346  20772077.906                    20772084.098
 121206285.111 7  94446596.52744  23064771.688                    23064781.590
 109027603.079 8  84956677.729 7  20747249.023
 11  7 29  2 38  0.0000000  0  8G10G17G25G29G12G02G04G05
 112052971.597 8  87314110.95245  21322960.836                    21322969.004
 127936029.087 6  99690487.077 5  24345405.531
 118388987.312 7  92251183.587 7  22528672.820
 129068146.708 6 100572687.457 6  24560871.938
 109124794.719 8  85032340.881 7  20765754.508
 109180131.240 8  85075524.92746  20776262.695                    20776268.875
 121289142.529 6  94511160.77444  23080538.820                    23080548.672
 108975308.391 8  84915928.663 7  20737297.672
 11  7 29  2 38 30.0000000  0  8G10G17G25G29G12G02G04G05
 112106109.671 7  87355517.25245  21333072.508                    21333080.996
 128007924.331 6  99746509.350 5  24359087.055
 118318980.816 7  92196633.101 7  22515351.188
 128987712.684 6 100510011.562 6  24545566.531
 109117615.747 8  85026746.880 7  20764388.344
 109202314.255 8  85092810.40346  20780484.055                    20780490.586
 121372005.213 7  94575729.13044  23096307.797                    23096317.242
 108923533.934 8  84875584.959 8  20727445.219
 11  7 29  2 39  0.0000000  0  8G10G17G25G29G12G02G04G05
 112159791.970 7  87397347.62445  21343287.625                    21343296.520
 128079999.674 6  99802671.964 5  24372802.430
 118249403.757 7  92142417.252 7  22502110.992
 128907212.183 6 100447283.890 6  24530247.102
 109111018.738 8  85021606.346 7  20763133.133
 109224687.563 8  85110244.15446  20784741.758                    20784747.848
 121454872.264 6  94640300.84544  23112076.781                    23112085.891
 108872281.740 8  84835648.224 8  20717692.391
 11  7 29  2 39 30.0000000  0  8G10G17G25G29G12G02G04G05
 112214015.733 7  87439599.90645  21353606.438                    21353614.734
 128152255.377 6  99858975.071 6  24386552.203
 118180257.829 7  92088537.343 7  22488952.875
 128826645.041 6 100384504.329 6  24514915.594
 109105003.582 8  85016919.222 7  20761988.438
 109247249.459 8  85127824.85046  20789035.000                    20789040.598
 121537742.160 6  94704874.78944  23127846.508                    23127855.309
 108821552.546 8  84796119.002 7  20708038.938
 11  7 29  2 40  0.0000000  0  8G10G17G25G29G12G02G04G05
 112268778.932 7  87482272.52245  21364027.430                    21364035.938
 128224691.228 6  99915418.602 6  24400336.195
 118111545.570 7  92034995.371 7  22475876.945
 128746011.975 6 100321673.343 6  24499572.195
 109099571.129 7  85012686.133 7  20760954.648
 109269999.030 8  85145551.78446  20793363.961                    20793370.254
 121620614.105 7  94769450.30744  23143615.766                    23143625.574
 108771348.105 8  84756998.689 7  20698485.484
 11  7 29  2 40 30.0000000  0  8G10G17G25G29G12G02G04G05
 112324079.573 7  87525363.92545  21374550.578                    21374558.980
 128297306.910 6  99972002.223 6  24414154.594
 118043269.246 7  91981793.103 7  22462884.656
 128665313.730 6 100258791.602 6  24484215.148
 109094721.717 8  85008907.375 7  20760031.820
 109292934.965 8  85163423.93246  20797729.008                    20797734.840
 121703486.957 7  94834026.54944  23159386.617                    23159396.145
 108721669.991 8  84718288.510 8  20689031.797
 11  7 29  2 41  0.0000000  0  8G10G17G25G29G12G02G04G05
 112379915.620 7  87568872.52545  21385175.797                    21385184.480
 128370102.340 6 100028725.917 6  24428006.922
 117975431.279 7  91928932.401 7  22449975.352
 128584551.078 6 100195859.634 6  24468847.063
 109090455.639 8  85005583.152 7  20759219.891
 109316056.618 8  85181440.78246  20802128.719                    20802135.016
 121786359.684 6  94898602.67744  23175156.766                    23175166.078
 108672519.982 8  84679989.809 7  20679678.984
 11  7 29  2 41 30.0000000  0  8G10G17G25G29G12G02G04G05
 112436284.775 7  87612796.54245  21395902.430                    21395910.898
 128443077.612 6 100085589.747 6  24441894.055
 117908033.778 7  91876414.931 7  22437149.969
 128503724.149 6 100132877.652 6  24453466.258
 109086773.104 8  85002713.649 7  20758519.289
 109339362.605 8  85199601.26746  20806563.523                    20806569.992
 121869231.282 7  94963177.92344  23190926.539                    23190936.246
 108623899.111 8  84642103.442 7  20670426.711
 11  7 29  2 42  0.0000000  0  8G10G17G25G29G12G02G04G05
 112493184.595 7  87657134.05845  21406730.414                    21406738.672
 128516232.668 6 100142593.715 6  24455814.781
 117841079.010 7  91824242.418 7  22424408.797
 128422833.807 6 100069846.258 6  24438072.891
 109083674.260 8  85000298.965 7  20757929.633
 109362851.889 8  85217904.59346  20811033.133                    20811039.371
 121952100.513 7  95027751.35944  23206696.438                    23206705.734
 108575809.190 8  84604630.797 8  20661275.453
 11  7 29  2 42 30.0000000  0  8G10G17G25G29G12G02G04G05
 112550613.282 7  87701883.66845  21417658.578                    21417666.961
 128589567.409 6 100199737.606 6  24469770.078
 117774569.442 8  91772416.816 7  22411752.430
 128341880.671 6 100006765.979 6  24422668.055
 109081159.677 8  84998339.551 7  20757450.820
 109386523.826 8  85236350.24446  20815538.039                    20815544.488
 122034966.558 7  95092322.29844  23222464.906                    23222473.938
 108528251.778 8  84567573.093 8  20652225.578
 11  7 29  2 43  0.0000000  0  8G10G17G25G29G12G02G04G05
 112608568.533 7  87747043.59445  21428686.672                    21428695.887
 128663081.479 6 100257021.308 6  24483759.664
 117708507.341 8  91720939.900 7  22399181.609
 128260865.344 6  99943637.259 6  24407251.563
 109079229.596 8  84996835.581 7  20757083.586
 109410377.016 8  85254937.13946  20820076.852                    20820083.391
 122117828.473 7  95156890.01244  23238233.055                    23238242.121
 108481228.330 8  84530931.472 7  20643277.328
 11  7 29  2 43 30.0000000  0  8G10G17G25G29G12G02G04G05
 112667048.117 7  87792612.08845  21439815.102                    21439823.852
 128736774.825 6 100314444.682 6  24497782.141
 117642894.846 7  91669813.307 7  22386695.805
 128179788.566 6  99880460.622 6  24391821.930
 109077884.004 8  84995787.074 7  20756827.539
 109434410.523 8  85273664.53846  20824650.352                    20824656.914
 122200685.309 7  95221453.74644  23253999.922                    23254009.563
 108434740.155 8  84494706.936 7  20634430.664
 11  7 29  2 44  0.0000000  0  8G10G17G25G29G12G02G04G05
 112726050.216 7  87838587.74445  21451043.320                    21451051.551
 128810647.871 6 100372008.068 6  24511840.359
 117577734.751 7  91619039.257 7  22374296.195
 128098651.247 6  99817236.867 6  24376382.453
 109077123.951 8  84995194.830 7  20756682.992
 109458623.998 8  85292532.17746  20829258.406                    20829264.617
 122283536.427 6  95286013.05844  23269765.781                    23269775.578
 108388789.181 8  84458901.007 8  20625686.781
 11  7 29  2 44 30.0000000  0  7G10G25G29G12G02G04G05
 112785572.517 7  87884968.74545  21462369.719                    21462378.504
 117513029.462 7  91568619.588 7  22361983.227
 128017454.456 6  99753966.737 6  24360931.281
 109076949.361 8  84995058.786 7  20756649.789
 109483016.575 8  85311539.39046  20833900.250                    20833906.105
 122366381.096 6  95350567.36043  23285530.820                    23285540.477
 108343377.043 8  84423514.945 8  20617044.938
 11  7 29  2 45  0.0000000  0  7G10G25G29G12G02G04G05
 112845612.085 7  87931752.81345  21473795.266                    21473803.840
 117448780.228 7  91518555.284 7  22349756.406
 127936197.892 6  99690650.028 6  24345469.031
 109077359.780 8  84995378.593 7  20756727.828
 109507586.165 8  85330684.53046  20838575.484                    20838582.055
 122449217.356 6  95415115.03443  23301293.789                    23301303.879
 108298504.325 8  84388549.209 8  20608506.102
 11  7 29  2 45 30.0000000  0  7G10G25G29G12G02G04G05
 112906166.406 7  87978937.98945  21485317.914                    21485326.730
 117384988.975 7  91468847.859 7  22337617.852
 127854881.832 6  99627286.990 6  24329994.898
 109078354.899 8  84996154.016 7  20756917.352
 109532331.105 8  85349966.31146  20843284.336                    20843290.398
 122532044.116 6  95479655.33543  23317055.578                    23317065.180
 108254171.797 8  84354004.405 8  20600070.000
 11  7 29  2 46  0.0000000  0  7G10G25G29G12G02G04G05
 112967233.859 7  88026522.99745  21496938.813                    21496946.910
 117321658.669 7  91419499.616 7  22325566.406
 127773507.930 6  99563878.830 5  24314510.484
 109079935.971 8  84997386.028 7  20757218.234
 109557251.651 8  85369384.93246  20848026.594                    20848032.422
 122614861.069 7  95544188.01044  23332815.383                    23332824.281
 108210381.406 8  84319882.046 8  20591736.383
 11  7 29  2 46 30.0000000  0  7G10G25G29G12G02G04G05
 113028811.493 7  88074505.55645  21508656.859                    21508665.078
 117258790.952 8  91370511.799 7  22313603.164
 127692076.282 6  99500425.715 6  24299013.719
 109082102.027 8  84999073.878 7  20757630.117
 109582346.319 8  85388939.24046  20852801.703                    20852808.234
 122697666.914 6  95608712.03643  23348572.773                    23348581.414
 108167134.448 8  84286183.130 8  20583507.250
 11  7 29  2 47  0.0000000  0  7G10G25G29G12G02G04G05
 113090897.996 7  88122884.65245  21520471.703                    21520479.734
 117196388.636 7  91321886.651 7  22301728.234
 127610587.997 6  99436928.493 5  24283506.047
 109084853.843 8  85001218.153 7  20758153.867
 109607614.790 8  85408628.99346  20857610.273                    20857616.523
 122780461.274 7  95673227.08944  23364327.344                    23364337.023
 108124432.563 8  84252908.959 8  20575381.234
 11  7 29  2 47 30.0000000  0  7G10G25G29G12G02G04G05
 113153490.492 7  88171658.00445  21532382.367                    21532390.652
 117134453.640 7  91273625.642 7  22289942.328
 127529043.808 6  99373387.628 6  24267989.438
 109088191.038 8  85003818.569 8  20758789.102
 109633056.049 8  85428453.38146  20862451.609                    20862457.410
 122863243.028 6  95737732.34043  23380080.461                    23380090.570
 108082276.980 8  84220060.479 8  20567358.914
 11  7 29  2 48  0.0000000  0  7G10G25G29G12G02G04G05
 113216586.284 7  88220823.55145  21544389.219                    21544397.820
 117072987.740 7  91225730.163 7  22278245.758
 127447444.199 6  99309803.657 6  24252461.031
 109092113.666 8  85006875.165 7  20759535.289
 109658668.130 8  85448410.89346  20867325.289                    20867331.754
 122946010.938 7  95802226.77643  23395831.125                    23395840.160
 108040668.169 8  84187638.044 8  20559441.109
 11  7 29  2 48 30.0000000  0  7G10G25G29G12G02G04G05
 113280183.379 7  88270379.72145  21556491.492                    21556499.961
 117011993.448 8  91178202.190 7  22266638.422
 127365790.048 6  99246177.162 6  24236923.297
 109096622.025 8  85010388.181 7  20760393.344
 109684450.664 8  85468501.23046  20872231.523                    20872237.762
 123028764.482 7  95866710.04843  23411578.125                    23411587.484
 107999607.821 8  84155642.992 8  20551627.516
 11  7 29  2 49  0.0000000  0  7G10G25G29G12G02G04G05
 113344279.046 7  88320324.38745  21568688.023                    21568696.617
 116951472.711 8  91131043.208 7  22255121.984
 127284081.803 6  99182508.533 6  24221374.555
 109101716.041 8  85014357.553 7  20761362.945
 109710402.515 8  85488723.51146  20877169.938                    20877175.996
 123111502.598 6  95931181.24744  23427323.836                    23427332.398
 107959097.182 8  84124076.277 8  20543918.438
 11  7 29  2 49 30.0000000  0  7G10G25G29G12G02G04G05
 113408870.795 7  88370655.59945  21580979.844                    21580987.930
 116891427.493 8  91084254.750 7  22243696.109
 127202320.365 6  99118798.407 6  24205816.266
 109107394.869 8  85018782.622 7  20762443.563
 109736522.712 8  85509076.97046  20882140.500                    20882146.813
 123194224.281 6  95995639.64644  23443064.906                    23443074.063
 107919137.298 8  84092938.733 8  20536314.672
 11  7 29  2 50  0.0000000  0  7G10G25G29G12G02G04G05
 113473956.225 7  88421371.50745  21593365.164                    21593373.512
 116831859.875 8  91037838.466 7  22232360.859
 127120505.997 6  99055047.108 6  24190247.945
 109113658.631 8  85023663.479 7  20763635.344
 109762810.047 8  85529560.67246  20887142.617                    20887148.707
 123276928.907 6  96060084.83744  23458802.484                    23458811.965
 107879729.180 8  84062231.140 8  20528815.383
 11  7 29  2 50 30.0000000  0  7G10G25G29G12G02G04G05
 113539533.299 7  88472470.51645  21605843.945                    21605852.676
 116772772.175 8  90991796.117 7  22221116.813
 127038640.437 6  98991255.892 6  24174668.156
 109120507.707 8  85029000.422 7  20764938.539
 109789264.225 8  85550174.39446  20892176.891                    20892182.707
 123359615.592 7  96124515.99644  23474537.641                    23474546.762
 107840874.301 8  84031954.638 8  20521421.453
 11  7 29  2 51  0.0000000  0  7G10G25G29G12G02G04G05
 113605599.319 7  88523950.50745  21618416.047                    21618424.238
 116714166.206 8  90946129.169 7  22209964.258
 126956724.129 6  98927425.119 6  24159080.258
 109127941.470 8  85034792.960 7  20766353.180
 109815883.832 8  85570917.03346  20897242.203                    20897248.066
 123442283.315 6  96188932.38344  23490268.992                    23490278.652
 107802573.280 8  84002109.701 8  20514133.156
 11  7 29  2 51 30.0000000  0  7G10G25G29G12G02G04G05
 113672151.019 7  88575808.95945  21631080.789                    21631088.461
 116656043.408 7  90900838.703 7  22198903.805
 126874757.117 6  98863554.878 6  24143481.063
 109135959.341 8  85041040.660 7  20767879.180
 109842667.133 8  85591787.22246  20902338.906                    20902344.984
 123524930.979 7  96253333.15544  23505995.914                    23506005.789
 107764827.085 8  83972697.106 8  20506950.203
 11  7 29  2 52  0.0000000  0  7G10G25G29G12G02G04G05
 113739187.229 7  88628044.93745  21643837.031                    21643845.281
 116598406.954 8  90855927.223 7  22187936.000
 126792741.254 6  98799646.497 6  24127874.406
 109144561.879 8  85047743.931 7  20769515.867
 109869614.798 8  85612785.46546  20907466.547                    20907472.895
 123607558.577 7  96317718.31044  23521719.438                    23521729.219
 107727637.516 8  83943718.238 8  20499873.102
 11  7 29  2 52 30.0000000  0  7G10G25G29G12G02G04G05
 113806704.958 7  88680656.16245  21656685.016                    21656693.234
 116541258.417 8  90811395.921 7  22177060.914
 126710677.176 6  98735700.607 6  24112258.055
 109153748.716 8  85054902.503 7  20771263.930
 109896725.262 8  85633910.56446  20912625.383                    20912631.777
 123690164.875 6  96382086.81743  23537439.055                    23537448.688
 107691005.244 8  83915173.637 8  20492902.727
 11  7 29  2 53  0.0000000  0  7G10G25G29G12G02G04G05
 113874701.721 7  88733640.64645  21669624.563                    21669633.129
 116484599.960 8  90767246.517 7  22166279.359
 126628565.688 6  98671717.701 6  24096632.898
 109163519.806 8  85062516.331 7  20773123.359
 109923997.851 8  85655162.00646  20917815.477                    20917821.520
 123772749.050 6  96446438.05243  23553154.352                    23553163.445
 107654931.410 8  83887064.171 8  20486037.734
 11  7 29  2 53 30.0000000  0  7G10G25G29G12G02G04G05
 113943174.651 7  88786996.16045  21682654.523                    21682663.195
 116428432.979 8  90723480.052 7  22155590.680
 126546406.941 6  98607698.012 6  24080998.039
 109173874.331 8  85070584.785 8  20775093.977
 109951430.727 8  85676538.34846  20923035.703                    20923041.820
 123855310.131 6  96510771.36543  23568864.797                    23568874.332
 107619416.611 8  83859390.323 8  20479279.672
 11  7 29  2 54  0.0000000  0  7G10G25G29G12G02G04G05
 114012121.197 7  88840720.72445  21695774.602                    21695782.777
 116372759.423 8  90680098.091 7  22144996.195
 126464202.006 6  98543642.305 6  24065355.695
 109184811.691 8  85079107.399 7  20777175.094
 109979023.103 8  85698038.96246  20928286.289                    20928292.559
 123937847.324 6  96575086.04343  23584571.148                    23584580.887
 107584461.617 8  83832152.680 8  20472627.773
 11  7 29  2 54 30.0000000  0  7G10G25G29G12G02G04G05
 114081538.891 7  88894812.41745  21708984.477                    21708993.160
 116317581.266 8  90637102.158 7  22134496.008
 126381951.721 6  98479551.247 6  24049704.508
 109196331.793 8  85088084.097 7  20779367.516
 110006774.150 8  85719663.20346  20933566.828                    20933573.273
 124020359.725 6  96639381.41243  23600273.156                    23600282.770
 107550067.782 8  83805352.305 8  20466082.719
 11  7 29  2 55  0.0000000  0  7G10G25G29G12G02G04G05
 114151425.359 7  88949269.38745  21722283.133                    21722291.680
 116262900.786 8  90594494.019 7  22124091.039
 126299657.451 6  98415425.889 6  24034044.047
 109208434.545 8  85097514.809 8  20781670.555
 110034683.417 8  85741410.72146  20938878.164                    20938884.262
 124102847.048 6  96703657.25743  23615970.461                    23615978.828
 107516235.617 8  83778989.592 8  20459644.891
 11  7 29  2 55 30.0000000  0  7G10G25G29G12G02G04G05
 114221777.957 7  89004089.57545  21735671.188                    21735679.426
 116208719.756 8  90552275.053 7  22113780.602
 126217319.556 6  98351266.574 6  24018374.797
 109221119.321 8  85107399.048 7  20784084.414
 110062749.726 8  85763280.59546  20944218.672                    20944224.820
 124185308.292 6  96767912.75443  23631661.500                    23631670.914
 107482966.349 8  83753065.489 8  20453313.750
 11  7 29  2 56  0.0000000  0  7G10G25G29G12G02G04G05
 114292594.372 7  89059271.18645  21749147.242                    21749155.301
 116155039.958 8  90510446.659 7  22103565.836
 126134938.952 6  98287073.814 6  24002699.305
 109234385.773 8  85117736.536 7  20786608.984
 110090972.048 8  85785272.04146  20949589.305                    20949595.711
 124267742.643 7  96832147.29043  23647348.641                    23647357.762
 107450260.790 8  83727580.637 8  20447090.125
 11  7 29  2 56 30.0000000  0  7G10G25G29G12G02G04G05
 114363871.779 7  89114812.01645  21762710.078                    21762719.273
 116101863.554 8  90469010.534 7  22093446.594
 126052516.817 6  98222848.865 6  23987014.039
 109248233.642 8  85128527.084 7  20789244.164
 110119350.109 8  85807384.83846  20954989.320                    20954995.113
 124350149.749 7  96896360.59543  23663029.836                    23663038.895
 107418119.919 8  83702535.812 8  20440973.773
 11  7 29  2 57  0.0000000  0  7G10G25G29G12G02G04G05
 114435607.726 7  89170710.13645  21776361.219                    21776369.926
 116049192.469 8  90427968.176 7  22083423.695
 125970054.305 6  98158592.347 6  23971322.445
 109262662.777 8  85139770.560 7  20791990.109
 110147883.005 8  85829618.26946  20960418.828                    20960425.277
 124432528.849 7  96960552.11243  23678706.211                    23678714.676
 107386544.290 8  83677931.423 8  20434965.430
 11  7 29  2 57 30.0000000  0  7G10G25G29G12G02G04G05
 114507798.835 7  89226962.94045  21790098.633                    21790107.438
 115997027.601 8  90387320.241 7  22073496.883
 125887551.410 6  98094304.434 6  23955622.930
 109277671.375 8  85151465.571 7  20794845.758
 110176568.631 8  85851970.70046  20965877.336                    20965883.668
 124514878.497 7  97024720.62943  23694377.758                    23694386.207
 107355534.445 8  83653767.915 8  20429064.352
 11  7 29  2 58  0.0000000  0  7G10G25G29G12G02G04G05
 114580443.364 7  89283569.06745  21803922.883                    21803931.188
 115945371.438 8  90347068.702 7  22063667.055
 125805009.590 6  98029986.147 6  23939915.945
 109293259.802 8  85163612.390 7  20797812.391
 110205406.923 8  85874442.09446  20971365.383                    20971371.574
 124597198.462 7  97088866.02643  23710042.320                    23710050.660
 107325091.256 8  83630045.949 8  20423271.211
 11  7 29  2 58 30.0000000  0  7G10G25G29G12G02G04G05
 114653538.293 7  89340526.12845  21817832.344                    21817840.605
 115894225.874 8  90307215.024 7  22053934.273
 125722429.926 6  97965638.450 6  23924201.195
 109309427.178 8  85176210.348 7  20800889.023
 110234397.282 8  85897031.98546  20976882.078                    20976888.582
 124679488.250 7  97152987.92943  23725701.391                    23725710.625
 107295215.759 8  83606766.337 8  20417586.086
 11  7 29  2 59  0.0000000  0  7G10G25G29G12G02G04G05
 114727080.882 7  89397832.03845  21831827.055                    21831835.824
 115843592.371 8  90267760.371 7  22044299.219
 125639812.829 7  97901261.530 6  23908479.414
 109326172.821 8  85189258.900 7  20804075.445
 110263538.262 8  85919739.25446  20982427.055                    20982433.336
 124761746.872 7  97217085.52043  23741354.523                    23741364.020
 107265908.607 8  83583929.601 8  20412009.164
 11  7 29  2 59 30.0000000  0  7G10G25G29G12G02G04G05
 114801069.184 7  89455485.25245  21845906.555                    21845915.313
 115793473.213 8  90228706.505 7  22034761.672
 125557159.970 6  97836856.763 6  23892751.273
 109343496.978 8  85202758.232 7  20807372.258
 110292829.771 8  85942563.80046  20988001.414                    20988007.805
 124843973.941 7  97281158.55843  23757001.820                    23757010.758
 107237170.692 8  83561536.426 8  20406540.633
 11  7 29  3  0  0.0000000  0  7G10G25G29G12G02G04G05
 114875499.807 7  89513483.13045  21860070.102                    21860078.520
 115743869.528 8  90190054.313 7  22025322.359
 125474471.866 6  97772424.529 6  23877016.172
 109361398.176 8  85216707.235 7  20810778.602
 110322270.235 8  85965504.39346  20993603.906                    20993610.113
 124926168.432 6  97345206.21343  23772642.766                    23772652.426
 107209002.064 8  83539586.843 8  20401179.867
 11  7 29  3  0 30.0000000  0  7G10G25G29G12G02G04G05
 114950369.883 7  89571823.44445  21874317.016                    21874325.613
 115694782.969 8  90151805.064 7  22015981.641
 125391749.544 6  97707965.564 6  23861274.469
 109379875.591 8  85231105.210 7  20814294.898
 110351858.700 8  85988560.32346  20999234.273                    20999240.398
 125008329.616 6  97409227.89443  23788277.023                    23788287.164
 107181403.402 8  83518081.397 8  20395928.250
 11  7 29  3  1  0.0000000  0  7G10G25G29G12G02G04G05
 115025676.857 7  89630504.21045  21888647.680                    21888656.625
 115646215.481 8  90113960.291 7  22006739.594
 125308993.809 7  97643480.652 6  23845526.234
 109398929.027 8  85245952.049 7  20817920.625
 110381594.457 8  86011731.06046  21004892.898                    21004899.063
 125090456.942 6  97473223.18544  23803905.867                    23803916.086
 107154375.330 8  83497020.567 8  20390785.094
 11  7 29  3  1 30.0000000  0  7G10G25G29G12G02G04G05
 115101418.106 7  89689523.37645  21903061.125                    21903069.484
 115598168.732 8  90076521.288 7  21997596.414
 125226205.746 6  97578970.518 6  23829772.781
 109418557.935 8  85261247.297 7  20821655.727
 110411476.817 8  86035016.01346  21010579.563                    21010585.742
 125172549.881 6  97537191.68443  23819528.359                    23819537.781
 107127918.199 8  83476404.616 8  20385750.367
 11  7 29  3  2  0.0000000  0  7G10G25G29G12G02G04G05
 115177590.637 7  89748878.58445  21917556.289                    21917565.031
 115550644.041 8  90039489.085 7  21988552.664
 125143386.165 7  97514435.847 6  23814012.289
 109438760.604 8  85276989.631 7  20825500.453
 110441504.344 8  86058414.06646  21016293.516                    21016299.328
 125254607.262 6  97601132.47543  23835142.789                    23835152.156
 107102033.201 8  83456234.486 8  20380824.641
 11  7 29  3  2 30.0000000  0  7G10G25G29G12G02G04G05
 115254192.440 7  89808568.29445  21932133.172                    21932141.648
 115503643.543 8  90002865.352 7  21979608.703
 125060536.379 6  97449877.598 6  23798247.250
 109459537.278 8  85293179.246 7  20829453.719
 110471676.997 8  86081925.21146  21022035.195                    21022040.855
 125336629.161 6  97665045.60643  23850751.102                    23850760.980
 107076720.641 8  83436510.414 8  20376007.773
 11  7 29  3  3  0.0000000  0  7G10G25G29G12G02G04G05
 115331221.245 7  89868590.75845  21946791.172                    21946799.484
 115457169.418 8  89966651.769 7  21970765.063
 124977657.883 6  97385297.047 6  23782475.578
 109480887.225 8  85309815.564 7  20833516.758
 110501994.740 8  86105549.39846  21027804.313                    21027810.652
 125418615.365 6  97728930.89743  23866352.453                    23866362.551
 107051981.686 8  83417233.308 8  20371300.234
 11  7 29  3  3 30.0000000  0  7G10G25G29G12G02G04G05
 115408673.800 7  89928943.42945  21961529.391                    21961538.023
 115411222.833 8  89930849.259 7  21962021.734
 124894751.216 7  97320694.481 6  23766698.695
 109502809.217 8  85326897.642 7  20837688.188
 110532456.022 8  86129285.45746  21033601.023                    21033607.371
 125500564.805 6  97792787.60743  23881946.680                    23881956.727
 107027816.181 8  83398403.047 8  20366701.594
 11  7 29  3  4  0.0000000  0  7G10G25G29G12G02G04G05
 115486547.025 7  89989623.85545  21976348.703                    21976357.223
 115365804.972 8  89895458.739 7  21953378.977
 124811817.066 6  97256070.549 6  23750916.602
 109525302.418 8  85344424.811 7  20841968.539
 110563059.674 8  86153132.44146  21039425.219                    21039430.680
 125582476.751 6  97856615.09543  23897534.063                    23897544.043
 107004224.456 8  83380019.899 8  20362212.234
 11  7 29  3  4 30.0000000  0  7G10G25G29G12G02G04G05
 115564838.369 7  90050630.10445  21991246.656                    21991255.801
 115320917.713 8  89860481.683 7  21944837.453
 124728857.182 7  97191426.529 6  23735130.109
 109548366.148 8  85362396.537 7  20846357.492
 110593805.179 8  86177089.96546  21045275.430                    21045281.148
 125664350.618 6  97920412.90643  23913114.180                    23913124.242
 106981207.011 8  83362084.243 8  20357832.055
 11  7 29  3  5  0.0000000  0  7G10G25G29G12G02G04G05
 115643544.437 7  90111959.50145  22006223.953                    22006232.504
 115276562.122 8  89825918.895 7  21936396.344
 124645872.012 7  97126762.834 6  23719337.883
 109571998.948 8  85380811.707 7  20850854.539
 110624691.165 8  86201156.95346  21051152.828                    21051158.734
 125746185.501 6  97984180.34943  23928687.773                    23928696.426
 106958764.051 8  83344596.242 8  20353561.477
 11  7 29  3  5 30.0000000  0  7G10G25G29G12G02G04G05
 115722663.283 7  90173610.54145  22021280.328                    22021288.254
 115232740.468 8  89791772.182 7  21928057.383
 124562863.168 7  97062080.706 6  23703542.016
 109596200.662 8  85399670.183 7  20855460.047
 110655717.852 8  86225333.58146  21057056.586                    21057062.867
 125827981.354 6  98047917.40543  23944252.063                    23944260.980
 106936896.615 8  83327556.709 8  20349400.336
 11  7 29  3  6  0.0000000  0  7G10G25G29G12G02G04G05
 115802192.296 7  90235581.19145  22036413.836                    22036422.684
 115189454.049 7  89758042.538 7  21919820.188
 124479831.452 7  96997380.701 6  23687741.547
 109620970.008 8  85418970.948 7  20860173.773
 110686884.144 8  86249618.99546  21062987.766                    21062993.672
 125909737.739 6  98111623.67043  23959810.102                    23959818.797
 106915604.589 8  83310965.554 8  20345348.367
 11  7 29  3  6 30.0000000  0  7G10G25G29G12G02G04G05
 115882127.977 7  90297868.71845  22051625.078                    22051633.691
 115146703.814 8  89724730.690 7  21911685.578
 124396777.600 7  96932663.501 6  23671937.242
 109646306.071 8  85438713.328 7  20864994.797
 110718188.483 8  86274011.97946  21068944.891                    21068950.773
 125991453.251 6  98175298.06943  23975359.797                    23975369.289
 106894888.082 8  83294822.869 8  20341406.227
 11  7 29  3  7  0.0000000  0  7G10G25G29G12G02G04G05
 115962467.813 7  90360471.17545  22066913.195                    22066921.746
 115104491.671 8  89691838.139 7  21903652.719
 124313702.910 7  96867930.000 6  23656128.164
 109672207.651 8  85458896.359 7  20869923.945
 110749630.839 8  86298512.51246  21074928.063                    21074934.113
 126073128.128 6  98238940.81643  23990901.922                    23990911.535
 106874748.013 8  83279129.366 8  20337573.672
 11  7 29  3  7 30.0000000  0  7G10G25G29G12G02G04G05
 116043208.956 7  90423386.34945  22082278.180                    22082286.309
 115062819.054 8  89659365.985 7  21895722.555
 124230608.743 7  96803181.355 6  23640315.914
 109698673.899 8  85479519.401 7  20874960.125
 110781210.387 8  86323119.94246  21080937.570                    21080943.367
 126154761.635 6  98302551.37243  24006436.492                    24006446.410
 106855184.221 8  83263884.905 8  20333850.648
 11  7 29  3  8  0.0000000  0  7G10G25G29G12G02G04G05
 116124348.882 7  90486612.24645  22097717.961                    22097726.813
 115021687.311 8  89627315.301 7  21887895.500
 124147496.067 7  96738418.300 6  23624501.039
 109725703.904 8  85500581.728 7  20880103.750
 110812926.216 8  86347833.56346  21086972.664                    21086978.699
 126236353.097 6  98366129.09543  24021962.492                    24021971.887
 106836196.898 8  83249089.652 8  20330237.164
 11  7 29  3  8 30.0000000  0  7G10G25G29G12G02G04G05
 116205884.891 7  90550146.80145  22113234.242                    22113242.449
 114981097.939 8  89595687.246 7  21880171.539
 124064366.120 7  96673641.764 6  23608681.047
 109753296.247 8  85522082.243 7  20885354.219
 110844777.778 8  86372652.95146  21093033.734                    21093039.758
 126317902.268 6  98429673.87043  24037480.852                    24037491.094
 106817786.456 8  83234743.921 8  20326733.969
 11  7 29  3  9  0.0000000  0  7G10G25G29G12G02G04G05
 116287813.821 7  90613987.51345  22128824.586                    22128833.207
 114941052.268 8  89564482.853 7  21872551.281
 123981219.953 7  96608852.653 6  23592858.883
 109781450.118 7  85544020.327 7  20890711.984
 110876764.120 7  86397577.35946  21099120.680                    21099126.910
 126399408.446 6  98493185.16643  24052991.469                    24053000.840
 106799953.175 8  83220847.913 8  20323340.500
 11  7 29  3  9 30.0000000  0  7G10G25G29G12G02G04G05
 116370133.003 7  90678132.32545  22144489.914                    22144497.922
 114901551.672 8  89533703.187 7  21865034.320
 123898058.687 7  96544051.773 6  23577033.648
 109810164.339 8  85566395.045 7  20896175.711
 110908884.872 8  86422606.49946  21105233.031                    21105238.684
 126480871.295 6  98556662.69343  24068492.914                    24068502.613
 106782697.037 7  83207401.635 8  20320056.867
 11  7 29  3 10  0.0000000  0  7G10G25G29G12G02G04G05
 116452839.347 7  90742578.83245  22160227.914                    22160236.250
 114862597.308 8  89503349.156 7  21857621.547
 123814883.473 6  96479240.003 6  23561206.695
 109839437.672 8  85589205.426 7  20901746.547
 110941138.846 8  86447739.47046  21111370.938                    21111377.020
 126562290.100 6  98620105.97243  24083986.805                    24083995.703
 106766018.206 8  83194405.221 8  20316882.664
 11  7 29  3 10 30.0000000  0  7G10G25G29G12G02G04G05
 116535930.446 7  90807325.11244  22176039.648                    22176047.957
 114824190.599 8  89473421.878 7  21850312.977
 123731695.494 7  96414418.280 6  23545375.336
 109869268.925 8  85612450.546 7  20907423.250
 110973525.327 8  86472975.68046  21117533.609                    21117540.117
 126643664.386 6  98683514.51643  24099471.883                    24099481.520
 106749916.891 7  83181858.808 8  20313818.516
 11  7 29  3 11  0.0000000  0  7G10G25G29G12G02G04G05
 116619403.486 7  90872369.01544  22191923.953                    22191932.285
 114786333.296 8  89443922.692 7  21843108.914
 123648496.448 7  96349587.922 6  23529543.742
 109899657.269 7  85636129.771 7  20913205.867
 111006044.307 7  86498315.13246  21123721.805                    21123727.844
 126724994.042 6  98746888.27843  24114947.750                    24114958.020
 106734393.558 8  83169762.768 8  20310864.766
 11  7 29  3 11 30.0000000  0  7G10G25G29G12G02G04G05
 116703255.050 7  90937707.86645  22207880.789                    22207889.164
 114749025.803 8  89414851.960 7  21836009.594
 123565286.388 7  96284749.018 6  23513708.891
 109930601.043 8  85660241.806 7  20919094.398
 111038694.010 8  86523756.45346  21129934.992                    21129941.125
 126806277.996 6  98810226.39143  24130415.359                    24130425.539
 106719447.473 8  83158116.529 8  20308020.625
 11  7 29  3 12  0.0000000  0  7G10G25G29G12G02G04G05
 116787482.842 7  91003339.91245  22223908.688                    22223917.352
 114712269.791 8  89386210.935 7  21829015.273
 123482067.222 7  96219902.949 6  23497872.805
 109962099.140 8  85684785.764 7  20925088.273
 111071474.247 8  86549299.49546  21136172.719                    21136178.785
 126887516.131 6  98873528.81243  24145875.273                    24145884.465
 106705079.149 8  83146920.489 8  20305285.922
 11  7 29  3 12 30.0000000  0  7G10G25G29G12G02G04G05
 116872083.487 7  91069262.47744  22240007.289                    22240015.809
 114676066.278 8  89358000.432 7  21822125.680
 123398839.789 7  96155050.510 6  23482035.016
 109994150.336 8  85709760.731 7  20931187.297
 111104383.937 8  86574943.40446  21142435.422                    21142441.582
 126968707.586 6  98936794.86143  24161326.063                    24161335.297
 106691288.348 8  83136174.473 8  20302661.914
 11  7 29  3 13  0.0000000  0  7G10G25G29G12G02G04G05
 116957054.935 7  91135474.01444  22256177.422                    22256185.770
 114640417.004 8  89330221.800 7  21815342.125
 123315606.033 7  96090193.132 6  23466195.914
 110026753.436 8  85735165.728 7  20937391.602
 111137423.420 8  86600688.44446  21148722.719                    21148728.855
 127049852.664 6  99000024.79243  24176766.359                    24176776.242
 106678075.157 8  83125878.534 8  20300147.445
 11  7 29  3 13 30.0000000  0  7G10G25G29G12G02G04G05
 117042393.724 7  91201971.75944  22272416.461                    22272425.039
 114605322.974 8  89302875.829 7  21808663.844
 123232366.903 7  96025331.519 6  23450356.109
 110059907.173 8  85760999.806 7  20943700.922
 111170591.389 8  86626533.60946  21155033.930                    21155040.500
 127130950.593 6  99063217.97543  24192198.320                    24192209.125
 106665439.900 8  83116032.929 8  20297742.836
 11  7 29  3 14  0.0000000  0  7G10G25G29G12G02G04G05
 117128096.709 7  91268753.28844  22288725.234                    22288733.871
 114570784.827 8  89275963.010 7  21802091.461
 123149123.112 7  95960466.288 6  23434515.531
 110093609.960 8  85787261.721 7  20950114.281
 111203886.848 8  86652478.11446  21161370.266                    21161376.500
 127212000.723 6  99126373.85343  24207623.375                    24207632.277
 106653382.075 8  83106637.259 8  20295448.273
 11  7 29  3 14 30.0000000  0  7G10G25G29G12G02G04G05
 117214161.845 7  91335817.03644  22305103.031                    22305111.160
 114536804.442 8  89249484.803 7  21795625.570
 123065876.553 7  95895598.954 6  23418673.828
 110127860.640 8  85813950.565 7  20956631.750
 111237309.748 8  86678521.92546  21167730.086                    21167736.211
 127293003.000 6  99189492.48943  24223036.922                    24223046.457
 106641902.243 8  83097691.958 8  20293263.867
 11  7 29  3 15  0.0000000  0  7G10G25G29G12G02G04G05
 117300585.758 7  91403160.34644  22321549.070                    22321557.555
 114503382.247 8  89223441.558 7  21789265.289
 122982627.938 7  95830729.938 6  23402832.266
 110162657.577 8  85841065.060 7  20963253.008
 111270858.797 8  86704664.03046  21174114.469                    21174120.902
 127373956.669 6  99252573.25443  24238442.359                    24238451.543
 106630999.433 8  83089196.276 8  20291188.914
 11  7 29  3 15 30.0000000  0  7G10G25G29G12G02G04G05
 117387365.792 7  91470781.11744  22338062.477                    22338071.387
 114470519.763 8  89197834.433 7  21783011.820
 122899378.895 7  95765860.607 6  23386990.742
 110197999.723 8  85868604.394 7  20969978.898
 111304533.850 7  86730904.32746  21180522.531                    21180528.898
 127454861.495 6  99315615.90543  24253837.008                    24253846.926
 106620674.153 8  83081150.616 8  20289224.148
 11  7 29  3 16  0.0000000  0  7G10G25G29G12G02G04G05
 117474499.061 7  91538677.17344  22354643.539                    22354651.660
 114438217.931 8  89172664.200 7  21776864.539
 122816130.633 7  95700991.917 6  23371149.016
 110233885.364 8  85896567.229 7  20976807.594
 111338334.159 8  86757242.22846  21186954.641                    21186960.840
 127535717.116 6  99378620.27043  24269223.969                    24269233.078
 106610925.940 7  83073554.624 8  20287369.148
 11  7 29  3 16 30.0000000  0  7G10G25G29G12G02G04G05
 117561982.286 7  91606845.91944  22371291.414                    22371299.465
 114406477.295 8  89147931.246 7  21770824.445
 122732884.000 7  95636124.479 6  23355307.305
 110270313.094 8  85924952.462 7  20983739.391
 111372258.395 8  86783676.68646  21193409.945                    21193416.336
 127616522.692 6  99441585.64243  24284600.906                    24284610.211
 106601754.259 8  83066407.861 8  20285623.859
 11  7 29  3 17  0.0000000  0  7G10G25G29G12G02G04G05
 117649813.699 7  91675285.99844  22388004.906                    22388013.105
 114375300.039 8  89123637.310 7  21764891.789
 122649641.147 6  95571259.996 6  23339467.148
 110307281.639 8  85953759.119 7  20990774.461
 111406307.196 8  86810208.22046  21199889.383                    21199895.262
 127697278.761 6  99504512.41643  24299968.031                    24299977.676
 106593159.992 7  83059711.034 8  20283988.188
 11  7 29  3 17 30.0000000  0  7G10G25G29G12G02G04G05
 117737989.423 7  91743994.34644  22404784.242                    22404792.711
 114344686.300 8  89099782.455 7  21759066.078
 122566402.780 7  95506398.995 6  23323626.719
 110344789.291 8  85982985.869 7  20997911.891
 111440478.929 8  86836835.54646  21206392.117                    21206398.352
 127777984.279 6  99567399.82643  24315326.234                    24315335.238
 106585142.123 8  83053463.352 8  20282462.867
 11  7 29  3 18  0.0000000  0  7G10G25G29G12G02G04G05
 117826506.471 7  91812968.66044  22421627.508                    22421636.914
 114314636.739 8  89076367.241 7  21753348.211
 122483169.982 7  95441542.352 6  23307788.563
 110382834.537 8  86012631.505 7  21005151.695
 111474772.836 8  86863558.06346  21212918.328                    21212924.340
 127858638.729 6  99630247.44342  24330673.992                    24330683.313
 106577700.315 8  83047664.536 8  20281046.297
 11  7 29  3 18 30.0000000  0  7G10G25G29G12G02G04G05
 117915362.821 7  91882207.36644  22438536.820                    22438545.285
 114285153.402 8  89053393.228 7  21747737.414
 122399945.185 7  95376691.923 6  23291951.555
 110421415.964 8  86042694.958 7  21012493.617
 111509189.530 8  86890376.26246  21219467.258                    21219473.430
 127939242.639 6  99693055.68542  24346012.063                    24346021.926
 106570835.057 8  83042314.994 8  20279740.000
 11  7 29  3 19  0.0000000  0  8G10G26G25G29G12G02G04G05
 118004554.883 7  91951707.66544  22455509.695                    22455518.129
 130168908.12815                  24770331.102
 114256236.344 8  89030860.469 7  21742234.672
 122316728.758 7  95311848.023 6  23276115.438
 110460531.996 8  86073174.989 7  21019937.195
 111543727.284 8  86917288.78846  21226039.414                    21226045.770
 128019794.859 5  99755823.63342  24361340.125                    24361350.449
 106564545.083 8  83037413.725 8  20278543.172
 11  7 29  3 19 30.0000000  0  8G10G26G25G29G12G02G04G05
 118094080.231 7  92021467.68044  22472546.219                    22472554.129
 130074074.053 5 101356497.74752  24752284.641                    24752294.367
 114227887.178 8  89008770.225 7  21736839.945
 122233522.736 7  95247012.237 6  23260281.680
 110500181.218 8  86104070.469 7  21027482.203
 111578386.144 8  86944295.68746  21232635.070                    21232641.023
 128100295.810 6  99818551.67942  24376659.531                    24376669.031
 106558830.813 8  83032961.038 8  20277455.758
 11  7 29  3 20  0.0000000  0  8G10G26G25G29G12G02G04G05
 118183935.873 7  92091485.06644  22489644.945                    22489653.680
 129979124.075 6 101282510.91643  24734216.055                    24734226.680
 114200106.313 8  88987122.817 7  21731553.586
 122150327.943 7  95182185.174 6  23244450.422
 110540361.765 8  86135379.984 7  21035128.258
 111613165.208 7  86971396.25446  21239253.125                    21239259.238
 128180744.529 6  99881238.94342  24391967.930                    24391978.496
 106553691.455 8  83028956.352 8  20276477.758
 11  7 29  3 20 30.0000000  0  8G10G26G25G29G12G02G04G05
 118274118.766 7  92161757.46944  22506806.141                    22506814.336
 129884061.731 6 101208436.47243  24716126.742                    24716136.695
 114172894.778 8  88965919.056 7  21726375.266
 122067145.882 7  95117368.054 6  23228621.750
 110581072.108 8  86167102.321 7  21042874.688
 111648064.128 8  86998590.21446  21245894.094                    21245900.832
 128261140.900 5  99943885.46642  24407266.125                    24407277.629
 106549127.230 8  83025399.816 8  20275609.211
 11  7 29  3 21  0.0000000  0  8G10G26G25G29G12G02G04G05
 118364626.079 7  92232282.63744  22524028.867                    22524037.391
 129788889.478 6 101134276.35643  24698015.781                    24698026.215
 114146253.082 8  88945159.307 7  21721305.273
 121983978.116 7  95052562.079 6  23212794.469
 110622310.556 8  86199236.165 7  21050722.477
 111683082.161 8  87025876.99246  21252557.766                    21252564.238
 128341484.54016 100006490.85552  24422556.203                    24422566.898
 106545137.147 8  83022290.658 8  20274850.094
 11  7 29  3 21 30.0000000  0  8G10G26G25G29G12G02G04G05
 118455454.672 7  92303058.16344  22541312.945                    22541321.586
 129693610.151 6 101060032.78442  24679884.211                    24679894.922
 114120182.045 8  88924844.223 7  21716344.695
 121900825.540 7  94987767.926 6  23196971.523
 110664075.183 8  86231780.030 7  21058669.961
 111718218.507 8  87053255.94846  21259244.438                    21259250.133
 128421774.96016 100069054.76053  24437834.930                    24437844.793
 106541720.488 8  83019628.315 8  20274199.813
 11  7 29  3 22  0.0000000  0  8G10G26G25G29G12G02G04G05
 118546601.972 7  92374082.01944  22558657.711                    22558666.152
 129598227.076 6 100985708.36542  24661733.969                    24661743.730
 114094682.587 8  88904974.542 7  21711492.117
 121817689.813 7  94922986.900 6  23181151.188
 110706364.681 8  86264732.873 7  21066717.617
 111753472.776 8  87080726.79446  21265952.773                    21265958.762
 128502011.980 6 100131577.08843  24453103.438                    24453113.414
 106538877.322 8  83017412.864 8  20273658.789
 11  7 29  3 22 30.0000000  0  8G10G26G25G29G12G02G04G05
 118638065.068 7  92445351.96644  22576062.844                    22576071.121
 129502743.017 6 100911305.27042  24643563.594                    24643573.797
 114069755.686 8  88885550.991 7  21706748.703
 121734572.555 7  94858220.263 6  23165334.242
 110749177.389 8  86298093.406 7  21074864.406
 111788844.434 8  87108289.11346  21272683.570                    21272690.215
 128582195.509 6 100194057.68843  24468361.914                    24468371.715
 106536607.443 8  83015644.132 8  20273226.836
 11  7 29  3 23  0.0000000  0  8G10G26G25G29G12G02G04G05
 118729840.565 7  92516865.32744  22593527.117                    22593535.344
 129407160.908 6 100836825.80742  24625374.922                    24625385.113
 114045401.693 8  88866573.867 7  21702114.086
 121651475.029 7  94793468.994 6  23149521.656
 110792511.237 8  86331860.035 7  21083110.539
 111824332.809 8  87135942.39046  21279436.891                    21279443.371
 128662324.869 7 100256496.13244  24483610.648                    24483620.367
 106534909.735 8  83014321.251 8  20272903.508
 11  7 29  3 23 30.0000000  0  8G10G26G25G29G12G02G04G05
 118821925.844 7  92588620.05944  22611050.219                    22611058.395
 129311483.839 6 100762272.27542  24607168.328                    24607178.977
 114021621.326 8  88848043.722 7  21697588.719
 121568398.608 7  94728734.192 6  23133712.234
 110836364.391 8  86366031.310 7  21091455.602
 111859937.376 8  87163686.20646  21286212.281                    21286218.637
 128742400.079 7 100318892.35044  24498848.688                    24498858.402
 106533783.872 8  83013443.965 8  20272689.469
 11  7 29  3 24  0.0000000  0  8G10G26G25G29G12G02G04G05
 118914318.043 6  92660614.02644  22628631.297                    22628640.156
 129215714.533 6 100687646.82442  24588944.414                    24588954.520
 113998415.174 8  88829961.024 7  21693172.938
 121485344.413 7  94664016.715 6  23117907.891
 110880735.091 8  86400605.860 7  21099899.188
 111895657.271 8  87191519.88146  21293009.898                    21293015.949
 128822420.480 7 100381245.87444  24514075.617                    24514085.652
 106533228.753 8  83013011.408 8  20272583.727
 11  7 29  3 24 30.0000000  0  8G10G26G25G29G12G02G04G05
 119007014.303 7  92732844.87144  22646271.164                    22646279.813
 129119856.431 5 100612952.31742  24570702.891                    24570713.551
 113975784.274 8  88812326.562 7  21688866.305
 121402314.172 7  94599317.887 6  23102108.234
 110925621.761 8  86435582.477 7  21108440.672
 111931492.594 8  87219443.50246  21299829.078                    21299835.094
 128902386.580 7 100443557.09443  24529292.656                    24529303.055
 106533244.754 8  83013023.886 8  20272586.875
 11  7 29  3 25  0.0000000  0  8G10G26G25G29G12G02G04G05
 119100011.601 7  92805310.27244  22663968.023                    22663976.582
 129023912.126 5 100538190.62052  24552443.750                    24552456.703
 113953728.803 8  88795140.483 7  21684669.273
 121319309.338 7  94534638.825 6  23086312.633
 110971022.299 8  86470959.513 7  21117080.164
 111967442.320 8  87247456.28046  21306669.680                    21306675.840
 128982297.207 6 100505825.09144  24544499.609                    24544509.504
 106533830.658 8  83013480.444 8  20272698.711
 11  7 29  3 25 30.0000000  0  8G10G26G25G29G12G02G04G05
 119193307.288 7  92878008.21444  22681721.984                    22681729.930
 128927884.977 5                  24534170.313
 113932249.858 8  88778403.659 7  21680582.109
 121236331.698 7  94469980.985 6  23070521.578
 111016934.964 8  86506735.611 7  21125817.117
 112003506.702 7  87275558.39346  21313533.031                    21313538.781
 129062152.815 6 100568050.21443  24559695.586                    24559704.918
 106534986.404 8  83014381.039 8  20272918.141
 11  7 29  3 26  0.0000000  0  8G10G26G25G29G12G02G04G05
 119286898.236 7  92950936.21944  22699531.398                    22699540.191
 128831777.744 5                  24515882.672
 113911347.734 8  88762116.304 7  21676604.406
 121153382.653 7  94405345.434 6  23054737.906
 111063358.199 8  86542909.548 7  21134651.391
 112039684.315 8  87303748.74646  21320417.492                    21320422.949
 129141952.927 6 100630232.07643  24574880.555                    24574890.488
 106536711.027 8  83015724.912 8  20273246.641
 11  7 29  3 26 30.0000000  0  8G10G26G25G29G12G02G04G05
 119380782.291 7  93024092.60944  22717397.039                    22717405.133
 128735594.545 6 100313536.76552  24497580.727                    24497590.035
 113891023.747 8  88746279.447 7  21672736.586
 121070463.843 7  94340733.460 6  23038958.195
 111110290.426 8  86579480.109 7  21143581.836
 112075975.666 8  87332027.71246  21327323.211                    21327329.113
 129221697.841 6 100692370.91143  24590055.672                    24590066.293
 106539004.598 8  83017512.132 8  20273682.906
 11  7 29  3 27  0.0000000  0  8G10G26G25G29G12G02G04G05
 119474955.935 7  93097474.68044  22735317.656                    22735326.645
 128639337.573 6 100238531.35042  24479263.242                    24479272.957
 113871277.641 8  88730892.893 7  21668979.414
 120987576.376 7  94276145.884 6  23023185.586
 111157729.495 8  86616445.614 7  21152609.430
 112112379.739 8  87360394.49646  21334250.602                    21334256.914
 129301386.934 5 100754466.25342  24605218.898                    24605229.953
 106541865.726 8  83019741.606 8  20274227.250
 11  7 29  3 27 30.0000000  0  8G10G26G25G29G12G02G04G05
 119569415.790 7  93171079.74244  22753292.508                    22753301.281
 128543009.598 6 100163470.68742  24460931.711                    24460942.285
 113852109.756 8  88715956.898 7  21665331.594
 120904721.697 7  94211583.845 6  23007418.891
 111205672.556 8  86653803.831 7  21161732.508
 112148895.540 8  87388848.36546  21341199.578                    21341205.395
 129381019.755 5 100816517.85842  24620373.086                    24620383.348
 106545293.252 8  83022412.416 8  20274879.602
 11  7 29  3 28  0.0000000  0  8G10G26G25G29G12G02G04G05
 119664159.808 7  93244906.21944  22771321.906                    22771331.141
 128446614.104 6 100088357.34243  24442588.891                    24442598.320
 113833521.051 8  88701472.209 7  21661794.570
 120821901.464 7  94147048.672 6  22991658.930
 111254118.756 8  86691554.099 7  21170951.547
 112185523.459 8  87417389.62846  21348169.297                    21348175.758
 129460596.291 5 100878525.44442  24635516.164                    24635526.848
 106549286.985 8  83025524.443 8  20275639.539
 11  7 29  3 28 30.0000000  0  8G10G26G25G29G12G02G04G05
 119759184.733 7  93318951.59644  22789404.656                    22789413.805
 128350153.878 6 100013193.57743  24424233.086                    24424242.816
 113815511.378 8  88687438.723 7  21658367.016
 120739117.169 7  94082541.490 6  22975904.672
 111303065.295 8  86729694.251 7  21180265.992
 112222262.095 8  87446017.15146  21355160.586                    21355166.359
 129540115.706 5                  24650647.984
 106553845.498 8  83029076.542 8  20276507.047
 11  7 29  3 29  0.0000000  0  8G10G26G25G29G12G02G04G05
 119854487.971 7  93393213.84444  22807540.125                    22807548.512
 128253632.427 6  99937982.17143  24405865.477                    24405875.348
 113798081.797 8  88673857.253 7  21655050.539
 120656370.524 7  94018063.678 6  22960158.586
 111352510.951 8  86768223.321 7  21189675.242
 112259111.779 8  87474731.20846  21362172.883                    21362178.813
 129619578.81415                  24665770.352
 106558969.208 8  83033069.063 8  20277481.781
 11  7 29  3 29 30.0000000  0  8G10G26G25G29G12G02G04G05
 119950066.349 7  93467690.47944  22825728.391                    22825737.207
 128157052.661 6  99862725.23243  24387487.391                    24387496.430
 113781232.431 8  88660727.901 7  21651843.977
 120573663.169 7  93953616.494 6  22944420.492
 111402453.324 8  86807139.448 7  21199179.063
 112296071.763 8  87503531.20246  21369205.930                    21369212.191
 129698984.749 6                  24680879.898
 106564656.497 8  83037500.724 8  20278564.102
 11  7 29  3 30  0.0000000  0  7G10G26G25G29G12G02G05
 120045916.881 7  93542379.19244  22843968.000                    22843976.785
 128060417.393 6  99787425.07943  24369097.734                    24369107.348
 113764963.624 8  88648050.921 7  21648748.422
 120490996.304 7  93889200.830 6  22928689.188
 111452890.333 8  86846441.011 7  21208776.867
 112333141.517 8  87532416.73346  21376260.102                    21376266.824
 106570906.634 8  83042370.974 8  20279753.453
 11  7 29  3 30 30.0000000  0  7G10G26G25G29G12G02G05
 120142036.757 7  93617277.76444  22862259.461                    22862268.000
 127963730.526 6  99712084.68443  24350699.633                    24350707.621
 113749275.906 8  88635826.749 7  21645762.898
 120408371.735 7  93824818.099 6  22912965.906
 111503820.203 8  86886126.620 7  21218468.477
 112370320.852 8  87561387.65146  21383334.742                    21383341.129
 106577719.079 8  83047679.383 8  20281049.844
 11  7 29  3 31  0.0000000  0  7G10G26G25G29G12G02G05
 120238422.983 7  93692383.91644  22880600.625                    22880609.391
 127866994.50516  99636706.06652  24332289.352                    24332299.680
 113734169.333 8  88624055.426 7  21642888.406
 120325790.712 7  93760469.321 6  22897250.898
 111555240.582 8  86926194.427 7  21228253.195
 112407608.899 8  87590443.28046  21390430.625                    21390437.191
 106585092.486 8  83053424.922 8  20282453.016
 11  7 29  3 31 30.0000000  0  7G10G26G25G29G12G02G05
 120335072.987 7  93767695.57744  22898992.883                    22899000.891
 127770212.985 6  99561291.93042  24313873.492                    24313883.133
 113719644.535 8  88612737.423 7  21640124.484
 120243255.333 7  93696156.131 6  22881545.250
 111607149.892 7  86966643.236 7  21238131.195
 112445005.748 8  87619583.67946  21397547.531                    21397553.676
 106593026.444 8  83059607.239 8  20283962.688
 11  7 29  3 32  0.0000000  0  7G10G26G25G29G12G02G05
 120431983.811 7  93843210.49544  22917434.789                    22917443.039
 127673388.981 6  99485844.75743  24295447.938                    24295458.254
 113705701.606 8  88601872.836 7  21637470.672
 120160767.051 7  93631879.642 7  22865848.570
 111659545.474 8  87007470.938 7  21248101.828
 112482510.910 8  87648808.49546  21404684.148                    21404690.164
 106601519.921 8  83066225.543 8  20285579.016
 11  7 29  3 32 30.0000000  0  7G10G26G25G29G12G02G05
 120529152.730 7  93918926.54644  22935924.664                    22935933.258
 127576525.675 6  99410366.88042  24277016.250                    24277025.336
 113692340.860 8  88591461.891 7  21634928.164
 120078327.321 7  93567640.974 6  22850160.219
 111712425.664 8  87048676.287 7  21258164.383
 112520123.940 8  87678117.35946  21411842.047                    21411847.754
 106610571.887 8  83073279.034 8  20287301.578
 11  7 29  3 33  0.0000000  0  7G10G26G25G29G12G02G05
 120626576.518 7  93994841.18344  22954464.180                    22954472.516
 127479625.93816  99334860.62652  24258575.875                    24258585.676
 113679562.098 8  88581504.426 7  21632496.773
 119995937.650 7  93503441.338 6  22834482.195
 111765787.746 8  87090257.125 7  21268318.641
 112557843.735 8  87707509.42646  21419019.531                    21419025.578
 106620180.944 8  83080766.622 8  20289129.984
 11  7 29  3 33 30.0000000  0  7G10G26G25G29G12G02G05
 120724252.345 7  94070952.19444  22973051.164                    22973059.746
 127382692.833 6  99259328.42542  24240130.406                    24240139.605
 113667365.613 8  88572000.689 7  21630175.586
 119913599.525 7  93439281.864 6  22818813.695
 111819629.669 8  87132211.856 7  21278564.719
 112595670.000 8  87736984.45746  21426217.516                    21426223.859
 106630345.659 8  83088687.185 8  20291064.117
 11  7 29  3 34  0.0000000  0  7G10G26G25G29G12G02G05
 120822177.718 6  94147257.67444  22991685.359                    22991694.270
 127285730.341 6  99183773.33043  24221679.547                    24221688.793
 113655751.999 8  88562951.140 7  21627965.539
 119831315.015 7  93375164.193 6  22803155.727
 111873949.772 8  87174539.205 7  21288901.570
 112633603.028 8  87766542.65846  21433436.156                    21433441.980
 106641066.480 8  83097041.081 8  20293104.336
 11  7 29  3 34 30.0000000  0  7G10G26G25G29G12G02G05
 120920349.278 6  94223754.96144  23010367.461                    23010375.121
 127188741.118 6  99108197.36143  24203221.719                    24203232.578
 113644721.022 8  88554355.603 7  21625866.641
 119749085.567 7  93311089.440 6  22787507.125
 111928745.298 8  87217237.007 7  21299328.695
 112671642.159 8  87796183.54946  21440674.836                    21440680.703
 106652341.357 8  83105826.711 8  20295250.063
 11  7 29  3 35  0.0000000  0  7G10G26G25G29G12G02G05
 121018764.678 6  94300442.27244  23029094.922                    23029103.273
 127091728.992 6  99032603.56643  24184762.688                    24184771.676
 113634273.420 8  88546214.628 7  21623878.773
 119666913.252 7  93247059.182 6  22771870.750
 111984015.033 8  87260304.325 7  21309846.445
 112709787.511 8  87825907.20646  21447933.383                    21447939.383
 106664170.316 8  83115044.085 8  20297501.063
 11  7 29  3 35 30.0000000  0  7G10G26G25G29G12G02G05
 121117420.797 7  94377317.16244  23047868.469                    23047876.938
 126994696.666 6  98956994.00243  24166297.117                    24166305.953
 113624408.772 8  88538527.897 7  21622000.914
 119584799.473 7  93183074.524 7  22756244.406
 112039755.932 8  87303738.780 7  21320453.563
 112748038.126 8  87855712.88046  21455212.445                    21455218.453
 106676551.618 8  83124691.866 8  20299857.242
 11  7 29  3 36  0.0000000  0  7G10G26G25G29G12G02G05
 121216314.791 7  94454377.38044  23066687.391                    23066696.004
 126897647.424 6  98881371.27143  24147829.336                    24147839.008
 113615127.009 8  88531295.378 7  21620235.227
 119502745.734 7  93119136.682 7  22740630.336
 112095965.551 8  87347538.464 7  21331149.633
 112786393.563 8  87885600.24646  21462511.078                    21462517.203
 106689483.815 8  83134768.915 8  20302317.703
 11  7 29  3 36 30.0000000  0  7G10G26G25G29G12G02G05
 121315443.901 7  94531620.83144  23085550.773                    23085559.375
 126800584.797 6  98805738.12843  24129358.555                    24129368.199
 113606428.573 8  88524517.388 7  21618579.570
 119420753.643 7  93055246.826 6  22725027.414
 112152642.239 7  87391702.116 7  21341935.219
 112824853.835 8  87915569.30046  21469829.859                    21469835.785
 106702966.378 8  83145274.819 8  20304883.539
 11  7 29  3 37  0.0000000  0  7G10G26G25G29G12G02G05
 121414805.027 7  94609045.09044  23104458.883                    23104467.809
 126703511.747 6  98730096.84043  24110887.109                    24110895.965
 113598313.093 8  88518193.641 7  21617035.688
 119338825.186 7  92991406.591 7  22709437.352
 112209783.456 8  87436227.728 7  21352808.719
 112863418.216 8  87945619.47946  21477168.375                    21477174.367
 106716997.794 8  83156208.396 8  20307553.664
 11  7 29  3 37 30.0000000  0  7G10G26G25G29G12G02G05
 121514395.463 7  94686647.98844  23123410.359                    23123419.316
 126606431.523 6  98654449.91043  24092412.523                    24092421.605
 113590780.697 8  88512324.270 7  21615601.828
 119256962.034 7  92927617.208 6  22693858.797
 112267387.016 7  87481113.614 7  21363770.547
 112902086.592 8  87975750.68646  21484526.680                    21484533.098
 106731576.945 8  83167568.797 8  20310327.852
 11  7 29  3 38  0.0000000  0  7G10G26G25G29G12G02G05
 121614212.458 7  94764427.43444  23142404.781                    23142413.738
 126509347.630 6  98578800.17444  24073938.258                    24073947.594
 113583831.331 7  88506909.182 7  21614279.953
 119175165.748 7  92863879.914 7  22678293.938
 112325450.374 7  87526357.780 7  21374819.453
 112940858.515 8  88005962.57046  21491904.875                    21491910.691
 106746702.606 8  83179355.024 8  20313206.164
 11  7 29  3 38 30.0000000  0  7G10G26G25G29G12G02G05
 121714253.367 7  94842381.37744  23161442.219                    23161451.020
 126412263.364 6  98503150.15343  24055463.656                    24055473.289
 113577464.970 8  88501948.384 7  21613068.117
 119093437.971 7  92800196.063 6  22662741.500
 112383971.273 7  87571958.480 7  21385955.320
 112979733.710 8  88036254.93046  21499302.750                    21499308.844
 106762373.870 8  83191566.419 8  20316188.633
 11  7 29  3 39  0.0000000  0  7G10G26G25G29G12G02G05
 121814514.880 7  94920507.21444  23180521.266                    23180529.809
 126315182.048 6  98427502.41544  24036989.367                    24036999.156
 113571681.376 8  88497441.698 7  21611967.766
 119011780.480 7  92736566.915 7  22647202.516
 112442947.410 7  87617913.920 7  21397178.195
 113018711.786 8  88066627.46446  21506719.672                    21506725.625
 106778589.164 8  83204201.729 8  20319274.141
 11  7 29  3 39 30.0000000  0  7G10G26G25G29G12G02G05
 121914994.689 7  94998803.16044  23199642.320                    23199650.059
 126218106.896 6  98351859.50943  24018516.555                    24018526.133
 113566480.770 8  88493389.281 7  21610977.828
 118930195.341 7  92672994.168 7  22631677.141
 112502376.756 7  87664222.498 7  21408487.188
 113057792.817 8  88097080.21946  21514156.617                    21514162.785
 106795347.692 8  83217260.344 8  20322463.148
 11  7 29  3 40  0.0000000  0  7G10G26G25G29G12G02G05
 122015689.729 7  95077266.80544  23218803.453                    23218812.352
 126121041.265 6  98276223.96543  24000045.031                    24000055.156
 113561862.696 8  88489790.797 7  21610099.234
 118848683.809 7  92609478.782 6  22616165.836
 112562256.568 8  87710882.076 7  21419881.703
 113096976.044 8  88127612.60146  21521613.008                    21521619.051
 106812647.761 8  83230740.933 8  20325755.266
 11  7 29  3 40 30.0000000  0  7G10G26G25G29G12G02G05
 122116596.956 7  95155895.80943  23238005.727                    23238014.070
 126023988.388 6  98200598.36344  23981577.469                    23981586.898
 113557826.941 8  88486646.039 7  21609331.125
 118767247.893 7  92546022.311 7  22600668.984
 112622584.837 8  87757891.086 7  21431362.336
 113136261.221 8  88158224.42646  21529088.789                    21529095.023
 106830487.902 8  83244642.363 8  20329150.008
 11  7 29  3 41  0.0000000  0  7G10G26G25G29G12G02G05
 122217713.920 6  95234688.22744  23257247.172                    23257256.074
 125926951.957 6  98124985.59144  23963111.516                    23963121.629
 113554373.731 8  88483955.242 7  21608673.906
 118685889.840 7  92482626.495 7  22585187.219
 112683358.811 8  87805247.418 7  21442927.148
 113175648.452 8  88188915.77446  21536583.836                    21536590.008
 106848867.856 8  83258964.421 8  20332647.375
 11  7 29  3 41 30.0000000  0  7G10G26G25G29G12G02G05
 122319037.331 7  95313641.51243  23276528.602                    23276537.543
 125829934.794 6  98049387.84643  23944649.383                    23944659.645
 113551502.070 8  88481717.592 7  21608127.711
 118604610.596 7  92419292.127 7  22569720.508
 112744575.613 8  87852948.818 7  21454576.289
 113215136.751 8  88219685.87546  21544098.180                    21544104.363
 106867784.878 8  83273704.977 8  20336247.352
 11  7 29  3 42  0.0000000  0  7G10G26G25G29G12G02G05
 122420564.984 6  95392753.93043  23295848.227                    23295857.953
 125732940.854 6  97973808.21344  23926192.609                    23926201.629
 113549212.541 8  88479933.548 7  21607691.758
 118523412.595 7  92356021.047 7  22554268.672
 112806233.769 8  87900994.136 7  21466309.594
 113254726.643 8  88250535.13346  21551631.859                    21551638.016
 106887238.808 8  83288863.900 8  20339949.266
 11  7 29  3 42 30.0000000  0  7G10G26G25G29G12G02G05
 122522293.603 6  95472022.98943  23315207.484                    23315215.617
 125635972.947 6  97898248.82043  23907740.320                    23907749.641
 113547504.074 8  88478602.279 7  21607366.633
 118442296.980 7  92292814.138 7  22538832.430
 112868330.240 8  87949381.002 7  21478126.219
 113294416.990 8  88281462.67946  21559185.039                    21559191.195
 106907227.271 8  83304439.344 8  20343752.789
 11  7 29  3 43  0.0000000  0  7G10G26G25G29G12G02G05
 122624220.298 6  95551446.37043  23334602.992                    23334611.625
 125539034.693 6  97822712.57844  23889293.164                    23889303.410
 113546376.644 8  88477723.761 7  21607152.242
 118361266.035 7  92229673.202 7  22523412.906
 112930862.632 8  87998107.546 7  21490025.563
 113334207.990 8  88312468.64246  21566757.055                    21566762.660
 106927749.191 8  83320430.471 8  20347658.164
 11  7 29  3 43 30.0000000  0  7G10G26G25G29G12G02G05
 122726343.082 6  95631022.53844  23354036.141                    23354045.480
 125442129.807 6  97747202.33544  23870853.078                    23870862.668
 113545830.494 8  88477298.201 7  21607048.172
 118280321.724 7  92166599.780 7  22508009.586
 112993828.977 8  88047172.236 7  21502007.461
 113374099.744 8  88343553.13446  21574347.867                    21574353.828
 106948804.231 8  83336837.005 8  20351664.859
 11  7 29  3 44  0.0000000  0  7G10G26G25G29G12G02G05
 122828658.610 6  95710748.90543  23373506.836                    23373514.973
 125345261.165 6  97671720.33743  23852419.344                    23852428.871
 113545864.522 7  88477324.722 7  21607055.109
 118199465.483 7  92103594.937 7  22492623.180
 113057226.088 8  88096572.600 7  21514071.609
 113414091.340 8  88374715.42345  21581958.156                    21581963.684
 106970389.798 8  83353656.945 8  20355772.281
 11  7 29  3 44 30.0000000  0  7G10G26G25G29G12G02G05
 122931164.308 6  95790623.47544  23393013.086                    23393021.531
 125248432.396 6  97596269.41743  23833993.797                    23834002.867
 113546478.719 7  88477803.324 7  21607171.383
 118118699.245 7  92040660.254 7  22477254.398
 113121052.056 8  88146307.113 7  21526217.172
 113454183.024 8  88405955.69746  21589587.016                    21589593.449
 106992504.881 8  83370889.489 8  20359980.867
 11  7 29  3 45  0.0000000  0  7G10G26G25G29G12G02G05
 123033857.092 6  95870643.80843  23412554.563                    23412563.469
 125151646.776 6  97520852.11143  23815575.875                    23815584.367
 113547672.385 8  88478733.469 7  21607399.094
 118038024.735 7  91977796.973 7  22461902.086
 113185303.902 7  88196373.507 7  21538444.008
 113494374.183 8  88437273.48546  21597235.422                    21597241.512
 107015147.551 8  83388533.145 8  20364289.352
 11  7 29  3 45 30.0000000  0  7G10G26G25G29G12G02G05
 123136734.513 7  95950807.98944  23432131.813                    23432140.188
 125054908.096 6  97445471.35243  23797166.977                    23797176.043
 113549445.338 8  88480114.996 7  21607736.172
 117957443.907 7  91915006.664 7  22446568.195
 113249979.374 8  88246769.968 7  21550751.258
 113534664.988 8  88468668.92645  21604902.156                    21604908.375
 107038316.910 8  83406587.207 8  20368698.250
 11  7 29  3 46  0.0000000  0  7G10G26G25G29G12G02G05
 123239793.399 6  96031113.62643  23451742.875                    23451751.453
 124958218.890 6  97370129.14143  23778767.328                    23778776.254
 113551796.519 8  88481947.094 7  21608183.914
 117876958.131 7  91852290.419 7  22431252.219
 113315075.131 8  88297493.935 7  21563138.594
 113575054.322 8  88500141.13846  21612588.266                    21612594.082
 107062010.227 8  83425049.545 8  20373207.094
 11  7 29  3 46 30.0000000  0  7G10G26G25G29G12G02G05
 123343031.363 7  96111558.77044  23471388.352                    23471397.828
 124861583.456 6  97294828.86743  23760378.922                    23760387.684
 113554726.016 8  88484229.826 7  21608741.070
 117796570.054 7  91789650.293 7  22415955.086
 113380589.234 7  88348543.890 7  21575605.945
 113615542.747 8  88531690.57845  21620292.922                    21620298.984
 107086227.273 8  83443919.993 8  20377815.344
 11  7 29  3 47  0.0000000  0  7G10G26G25G29G12G02G05
 123446445.579 7  96192141.26543  23491067.656                    23491076.223
 124765005.241 7  97219573.15343  23742000.836                    23742009.645
 113558233.375 8  88486962.838 7  21609408.453
 117716281.442 7  91727087.700 7  22400676.758
 113446519.608 7  88399918.216 7  21588151.992
 113656130.123 8  88563317.10345  21628016.547                    21628022.395
 107110966.463 8  83463197.305 8  20382523.133
 11  7 29  3 47 30.0000000  0  7G10G26G25G29G12G02G05
 123550033.063 7  96272858.75044  23510779.805                    23510788.129
 124668487.308 6  97144364.45443  23723633.406                    23723642.711
 113562317.714 8  88490145.449 7  21610186.008
 117636094.050 7  91664603.983 7  22385417.820
 113512863.043 8  88451614.392 7  21600776.367
 113696815.894 8  88595020.32746  21635758.672                    21635764.945
 107136225.771 8  83482879.891 8  20387329.656
 11  7 29  3 48  0.0000000  0  7G10G26G25G29G12G02G05
 123653791.586 6  96353709.52143  23530523.719                    23530533.180
 124572033.633 6  97069205.77743  23705279.117                    23705288.078
 113566978.957 8  88493777.587 7  21611072.680
 117556010.099 7  91602200.898 7  22370177.930
 113579617.296 7  88503630.710 7  21613479.609
 113737600.575 8  88626800.60845  21643519.805                    21643526.109
 107162004.495 8  83502967.218 8  20392235.273
 11  7 29  3 48 30.0000000  0  7G10G26G25G29G12G02G05
 123757718.233 6  96434691.32343  23550300.867                    23550309.875
 124475647.043 6  96994099.39343  23686937.492                    23686946.648
 113572216.013 8  88497858.411 7  21612069.398
 117476030.985 7  91539879.502 7  22354958.359
 113646779.801 7  88555965.146 7  21626259.844
 113778482.795 8  88658656.89545  21651299.281                    21651305.445
 107188300.095 8  83523457.312 8  20397239.258
 11  7 29  3 49  0.0000000  0  7G10G26G25G29G12G02G05
 123861810.222 6  96515801.92043  23570108.617                    23570117.836
 124379331.370 6  96919048.23444  23668608.828                    23668618.113
 113578028.422 8  88502387.559 7  21613175.383
 117396158.888 7  91477641.497 7  22339759.273
 113714347.490 7  88608615.288 7  21639117.516
 113819463.185 8  88690589.67145  21659097.750                    21659103.559
 107215111.339 8  83544349.194 8  20402341.078
 11  7 29  3 49 30.0000000  0  8G10G26G25G29G12G02G15G05
 123966064.703 6  96597039.16643  23589947.586                    23589957.008
 124283089.806 6  96844054.85044  23650294.250                    23650304.496
 113584415.278 8  88507364.330 7  21614390.820
 117316395.579 7  91415488.267 7  22324580.906
 113782317.657 7  88661579.062 7  21652051.875
 113860541.196 7  88722598.52746  21666914.867                    21666920.625
 129386449.98815 100820689.35215  24621431.328
 107242436.091 8  83565641.209 8  20407540.938
 11  7 29  3 50  0.0000000  0  8G10G26G25G29G12G02G15G05
 124070479.450 6  96678401.29243  23609817.023                    23609825.824
 124186926.568 7  96769122.53344  23631995.297                    23632005.199
 113591376.509 8  88512788.659 7  21615715.313
 117236743.362 7  91353421.617 7  22309423.867
 113850688.306 7  88714854.897 7  21665062.109
 113901717.059 8  88754683.62445  21674749.852                    21674755.918
 129291543.321 5 100746736.218 5  24603371.148
 107270273.499 8  83587332.711 8  20412838.211
 11  7 29  3 50 30.0000000  0  8G10G26G25G29G12G02G15G05
 124175051.402 6  96759885.90743  23629716.891                    23629725.656
 124090844.688 6  96694253.56343  23613711.625                    23613720.891
 113598911.188 8  88518659.846 7  21617149.570
 117157203.719 7  91291442.688 7  22294287.766
 113919456.439 7  88768440.454 7  21678148.563
 113942990.653 7  88786844.87645  21682604.094                    21682610.289
 129196517.425 6 100672690.119 5  24585288.797
 107298621.590 8  83609422.143 8  20418232.539
 11  7 29  3 51  0.0000000  0  8G10G26G25G29G12G02G15G05
 124279777.747 6  96841490.85043  23649645.258                    23649653.852
 123994847.726 7  96619450.79343  23595443.539                    23595453.570
 113607018.555 8  88524977.285 7  21618692.258
 117077778.917 7  91229553.236 7  22279173.727
 113988619.608 7  88822333.847 7  21691309.875
 113984361.710 7  88819082.08045  21690476.680                    21690482.254
 129101374.877 6 100598553.149 5  24567182.859
 107327478.928 8  83631908.385 8  20423724.172
 11  7 29  3 51 30.0000000  0  8G10G26G25G29G12G02G15G05
 124384656.098 6  96923214.23643  23669602.633                    23669611.566
 123898939.194 7  96544716.91543  23577192.938                    23577202.398
 113615697.651 8  88531740.215 7  21620343.727
 116998470.530 7  91167754.506 7  22264081.602
 114058174.820 8  88876532.710 7  21704545.883
 114025829.980 8  88851395.00445  21698367.859                    21698373.707
 129006117.883 6 100524327.080 5  24549055.766
 107356843.495 8  83654789.863 8  20429311.727
 11  7 29  3 52  0.0000000  0  8G10G26G25G29G12G02G15G05
 124489683.370 7  97005053.63443  23689589.109                    23689598.020
 123803122.423 6  96470054.55544  23558959.609                    23558969.109
 113624947.647 8  88538947.981 7  21622103.891
 116919280.634 7  91106048.085 7  22249012.445
 114128119.424 7  88931035.007 7  21717855.914
 114067395.133 7  88883783.44345  21706277.398                    21706283.418
 128910748.886 6 100450013.665 5  24530907.586
 107386713.217 8  83678064.976 8  20434995.859
 11  7 29  3 52 30.0000000  0  8G10G26G25G29G12G02G15G05
 124594857.232 6  97087007.33843  23709603.086                    23709611.258
 123707401.136 7  96395466.60243  23540744.141                    23540753.418
 113634767.983 8  88546600.157 7  21623972.664
 116840211.534 7  91044435.819 7  22233966.516
 114198450.804 8  88985838.682 7  21731239.586
 114109057.326 7  88916247.49545  21714205.555                    21714212.078
 128815270.857 6 100375615.229 5  24512737.867
 107417087.176 8  83701733.007 8  20440775.875
 11  7 29  3 53  0.0000000  0  8G10G26G25G29G12G02G15G05
 124700174.710 6  97169072.89043  23729644.805                    23729652.953
 123611778.701 6  96320955.63743  23522547.570                    23522557.621
 113645157.438 8  88554695.849 7  21625949.633
 116761264.644 7  90982918.780 7  22218942.477
 114269166.052 8  89040941.480 7  21744696.305
 114150815.720 8  88948786.50545  21722152.227                    21722157.867
 128719685.755 5 100301133.331 5  24494549.133
 107447962.581 8  83725791.767 8  20446651.148
 11  7 29  3 53 30.0000000  0  8G10G26G25G29G12G02G15G05
 124805633.491 6  97251248.55743  23749713.406                    23749721.598
 123516258.618 6  96246524.47244  23504370.680                    23504380.219
 113656115.398 8  88563234.527 7  21628034.867
 116682442.231 7  90921498.751 7  22203943.328
 114340262.422 8  89096341.251 7  21758225.141
 114192670.833 8  88981400.89145  21730116.734                    21730122.500
 128623996.583 6 100226570.398 5  24476341.023
 107479338.450 8  83750240.502 8  20452622.156
 11  7 29  3 54  0.0000000  0  8G10G26G25G29G12G02G15G05
 124911230.844 6  97333532.20143  23769806.898                    23769816.250
 123420844.687 7  96172175.99144  23486214.969                    23486223.219
 113667641.074 8  88572215.580 7  21630228.117
 116603746.276 8  90860177.233 7  22188968.266
 114411737.090 8  89152035.800 7  21771826.813
 114234622.504 8  89014090.50745  21738099.453                    21738105.941
 128528205.894 6 100151928.414 5  24458112.852
 107511212.944 8  83775077.783 8  20458687.359
 11  7 29  3 54 30.0000000  0  8G10G26G25G29G12G02G15G05
 125016963.880 6  97415921.55643  23789927.445                    23789936.598
 123325540.164 7  96097912.79443  23468079.125                    23468088.031
 113679733.278 8  88581638.087 7  21632528.758
 116525178.588 7  90798955.669 7  22174017.297
 114483587.461 8  89208023.093 7  21785499.297
 114276670.520 8  89046855.20145  21746100.914                    21746107.477
 128432316.405 6 100077209.394 5  24439864.898
 107543584.049 7  83800302.027 8  20464847.359
 11  7 29  3 55  0.0000000  0  8G10G26G25G29G12G02G15G05
 125122830.292 6  97498414.84843  23810073.484                    23810082.461
 123230348.785 7  96023737.69944  23449964.586                    23449973.090
 113692391.326 8  88591501.507 7  21634938.016
 116446741.715 7  90737836.041 7  22159091.297
 114555810.839 8  89264301.056 7  21799243.008
 114318814.773 8  89079694.88145  21754121.063                    21754126.859
 128336330.242 6 100002414.998 5  24421598.641
 107576450.209 7  83825912.040 8  20471101.813
 11  7 29  3 55 30.0000000  0  8G10G26G25G29G12G02G15G05
 125228827.164 6  97581009.80043  23830243.898                    23830253.512
 123135274.070 7  95949653.55443  23431872.406                    23431881.281
 113705614.096 8  88601804.964 7  21637454.141
 116368437.356 7  90676819.662 7  22144190.609
 114628404.433 8  89320867.497 7  21813057.039
 114361055.359 8  89112609.62145  21762158.805                    21762164.906
 128240250.597 5  99927547.871 5  24403315.977
 107609809.414 8  83851906.233 8  20477449.578
 11  7 29  3 56  0.0000000  0  8G10G26G25G29G12G02G15G05
 125334951.864 6  97663704.32343  23850438.727                    23850447.332
 123040319.620 7  95875663.12144  23413802.758                    23413811.348
 113719400.627 8  88612547.716 7  21640077.789
 116290267.314 7  90615907.972 7  22129314.992
 114701365.390 8  89377720.178 7  21826941.398
 114403391.992 7  89145599.20745  21770215.656                    21770222.266
 128144079.688 6  99852609.629 5  24385015.164
 107643659.668 8  83878283.069 8  20483891.398
 11  7 29  3 56 30.0000000  0  8G10G26G25G29G12G02G15G05
 125441202.107 6  97746496.76843  23870656.531                    23870665.730
 122945489.172 7  95801769.25044  23395757.195                    23395765.898
 113733750.089 8  88623729.111 7  21642808.359
 116212233.790 7  90555102.640 7  22114465.563
 114774691.173 8  89434857.142 7  21840894.961
 114445824.415 7  89178663.39845  21778289.977                    21778296.652
 128047820.438 6  99777602.490 5  24366697.797
 107677999.472 8  83905041.366 8  20490425.766
 11  7 29  3 57  0.0000000  0  8G10G26G25G29G12G02G15G05
 125547575.045 6  97829384.77043  23890898.477                    23890907.855
 122850786.162 6  95727974.74543  23377735.781                    23377745.449
 113748661.269 8  88635348.227 7  21645645.891
 116134339.058 7  90494405.471 7  22099642.813
 114848378.650 7  89492275.955 7  21854916.773
 114488352.881 7  89211802.49745  21786383.016                    21786389.145
 127951475.371 6  99702528.452 5  24348364.547
 107712826.892 8  83932179.615 8  20497053.156
 11  7 29  3 57 30.0000000  0  8G10G26G25G29G12G02G15G05
 125654068.034 6  97912366.30243  23911163.859                    23911172.902
 122756213.972 7  95654282.17443  23359739.359                    23359748.266
 113764133.067 8  88647404.173 7  21648589.797
 116056584.885 7  90433817.822 7  22084846.734
 114922425.118 7  89549974.502 7  21869007.438
 114530977.410 8  89245016.42945  21794494.305                    21794500.059
 127855046.898 6  99627389.450 5  24330014.352
 107748139.796 8  83959696.181 8  20503773.227
 11  7 29  3 58  0.0000000  0  8G10G26G25G29G12G02G15G05
 125760679.009 6  97995439.78143  23931452.281                    23931460.738
 122661776.716 7  95580694.74944  23341768.328                    23341777.879
 113780164.754 8  88659896.388 7  21651640.711
 115978973.547 7  90373341.479 7  22070078.039
 114996827.947 7  89607950.704 7  21883165.539
 114573697.861 7  89278305.12245  21802623.414                    21802630.121
 127758537.981 6  99552187.817 5  24311649.156
 107783936.923 8  83987590.054 8  20510585.461
 11  7 29  3 58 30.0000000  0  8G10G26G25G29G12G02G15G05
 125867404.817 6  98078602.78143  23951761.555                    23951770.133
 122567477.479 7  95507214.87944  23323823.289                    23323832.973
 113796754.630 8  88672823.581 7  21654797.320
 115901506.715 7  90312977.744 7  22055336.320
 115071584.073 7  89666202.231 7  21897391.508
 114616513.729 7  89311668.13445  21810771.211                    21810777.313
 127661950.788 6  99476925.111 5  24293268.594
 107820215.487 8  84015859.076 8  20517488.453
 11  7 29  3 59  0.0000000  0  8G10G26G25G29G12G02G15G05
 125974242.971 6  98161853.32443  23972091.313                    23972100.559
 122473320.143 7  95433845.53443  23305905.586                    23305915.234
 113813901.975 8  88686185.157 7  21658060.664
 115824186.945 7  90252728.614 7  22040622.664
 115146690.823 7  89724726.967 7  21911683.609
 114659425.295 8  89345105.72945  21818937.281                    21818943.242
 127565288.604 6  99401603.955 5  24274874.797
 107856974.132 8  84044502.180 8  20524483.648
 11  7 29  3 59 30.0000000  0  8G10G26G25G29G12G02G15G05
 126081191.174 6  98245189.62743  23992443.000                    23992451.953
 122379308.311 7  95360589.60544  23288016.117                    23288025.746
 113831605.585 8  88699980.191 7  21661429.430
 115747015.988 7  90192595.418 7  22025937.508
 115222145.194 7  89783522.557 7  21926042.242
 114702432.592 8  89378617.90145  21827121.336                    21827127.371
 127468554.000 6  99326226.382 6  24256466.344
 107894210.933 8  84073517.885 8  20531569.813
 11  7 29  4  0  0.0000000  0  8G10G26G25G29G12G02G15G05
 126188246.450 6  98328609.38143  24012815.227                    24012824.148
 122285445.129 7  95287449.54243  23270154.398                    23270163.848
 113849863.921 8  88714207.484 7  21664903.695
 115669995.828 7  90132579.742 7  22011281.445
 115297944.179 7  89842586.700 7  21940466.008
 114745535.516 8  89412204.59545  21835322.984                    21835329.297
 127371749.249 6  99250794.202 6  24238044.797
 107931923.323 8  84102904.166 8  20538745.508
 11  7 29  4  0 30.0000000  0  8G10G26G25G29G12G02G15G05
 126295406.574 6  98412110.81343  24033207.344                    24033216.152
 122191734.952 7  95214428.63744  23252322.227                    23252331.145
 113868676.273 8  88728866.482 7  21668483.680
 115593128.782 7  90072683.385 7  21996653.953
 115374085.431 7  89901917.532 7  21954955.484
 114788733.985 8  89445865.75845  21843544.086                    21843549.664
 127274877.579 6  99175309.832 6  24219611.508
 107970110.037 8  84132660.055 8  20546012.672
 11  7 29  4  1  0.0000000  0  8G10G26G25G29G12G02G15G05
 126402668.891 6  98495691.87143  24053618.344                    24053626.684
 122098181.186 7  95141529.64544  23234518.953                    23234528.559
 113888041.294 8  88743956.127 7  21672168.445
 115516417.039 7  90012908.058 7  21982056.141
 115450566.141 7  89961512.865 7  21969509.234
 114832028.045 8  89479601.40445  21851782.336                    21851788.789
 127177941.610 6  99099775.301 6  24201165.367
 108008768.986 8  84162783.921 8  20553369.375
 11  7 29  4  1 30.0000000  0  8G10G26G25G29G12G02G15G05
 126510030.836 6  98579350.59243  24074047.320                    24074057.141
 122004787.212 7  95068755.13944  23216747.016                    23216756.074
 113907957.307 8  88759475.102 7  21675958.742
 115439862.506 7  89953255.214 7  21967488.188
 115527382.612 7  90021369.843 7  21984126.773
 114875417.411 8  89513411.28945  21860039.172                    21860045.391
 127080943.363 6  99024192.311 5  24182707.242
 108047897.350 8  84193273.566 8  20560815.078
 11  7 29  4  2  0.0000000  0  8G10G26G25G29G12G02G15G05
 126617490.224 6  98663085.19443  24094496.680                    24094507.242
 121911557.038 7  94996108.29344  23199005.625                    23199015.266
 113928423.541 8  88775422.815 7  21679853.164
 115363467.567 8  89893726.732 7  21952950.695
 115604532.668 7  90081486.760 7  21998807.914
 114918902.435 8  89547295.72345  21868313.836                    21868319.906
 126983886.207 6  98948563.392 5  24164236.500
 108087494.528 8  84224128.522 8  20568349.766
 11  7 29  4  2 30.0000000  0  8G10G26G25G29G12G02G15G05
 126725044.528 6  98746893.78143  24114963.570                    24114973.219
 121818494.246 7  94923591.87244  23181296.797                    23181306.281
 113949438.712 8  88791798.280 7  21683852.289
 115287234.372 8  89834324.287 7  21938443.898
 115682013.441 7  90141861.384 7  22013552.625
 114962483.473 8  89581254.97845  21876606.758                    21876613.438
 126886773.183 6  98872890.922 5  24145757.508
 108127558.069 8  84255346.872 8  20575974.008
 11  7 29  4  3  0.0000000  0  8G10G26G25G29G12G02G15G05
 126832690.789 6  98830774.00942  24135447.852                    24135457.082
 121725602.258 7  94851208.49644  23163619.391                    23163628.941
 113971001.102 8  88808600.144 7  21687955.570
 115211164.419 7  89775049.024 7  21923967.953
 115759821.693 7  90202491.185 7  22028359.156
 115006159.681 8  89615288.37445  21884918.422                    21884924.684
 126789606.570 6  98797176.739 5  24127266.859
 108168085.542 8  84286926.723 8  20583685.898
 11  7 29  4  3 30.0000000  0  8G10G26G25G29G12G02G15G05
 126940426.447 6  98914723.90043  24155949.953                    24155958.367
 121632884.525 7  94778960.93944  23145976.531                    23145985.586
 113993109.201 8  88825827.231 7  21692162.656
 115135260.250 7  89715902.971 7  21909524.852
 115837954.269 8  90263373.729 7  22043226.531
 115049931.181 7  89649396.04945  21893248.016                    21893253.691
 126692388.970 6  98721422.801 5  24108767.148
 108209074.501 8  84318866.182 8  20591485.688
 11  7 29  4  4  0.0000000  0  8G10G26G25G29G12G02G15G05
 127048249.340 6  98998741.75943  24176467.750                    24176476.207
 121540344.924 7  94706852.20144  23128366.672                    23128375.797
 114015761.944 8  88843478.744 7  21696473.063
 115059523.873 7  89656887.643 7  21895112.031
 115916408.582 7  90324506.965 7  22058155.992
 115093798.048 8  89683578.01845  21901595.227                    21901601.160
 126595123.231 6  98645631.360 5  24090258.211
 108250523.433 8  84351164.061 8  20599373.492
 11  7 29  4  4 30.0000000  0  8G10G26G25G29G12G02G15G05
 127156157.212 6  99082825.85543  24197003.289                    24197010.629
 121447987.309 7  94634885.23844  23110791.656                    23110800.492
 114038958.064 8  88861553.659 7  21700887.469
 114983957.625 7  89598004.885 7  21880732.125
 115995181.833 8  90385888.718 7  22073146.508
 115137760.788 7  89717834.69845  21909961.195                    21909967.242
 126497812.211 6  98569804.604 5  24071739.547
 108292430.524 7  84383818.947 8  20607348.023
 11  7 29  4  5  0.0000000  0  8G10G26G25G29G12G02G15G05
 127264147.441 6  99166974.13143  24217552.531                    24217560.227
 121355815.072 7  94563062.75444  23093251.711                    23093261.082
 114062695.919 8  88880050.696 7  21705404.406
 114908563.551 7  89539256.275 7  21866385.234
 116074270.710 8  90447516.414 7  22088196.383
 115181819.112 8  89752165.85845  21918344.813                    21918351.262
 126400458.560 6  98493944.661 6  24053214.945
 108334793.568 8  84416829.118 8  20615409.398
 11  7 29  4  5 30.0000000  0  8G10G26G25G29G12G02G15G05
 127372217.299 6  99251184.44143  24238116.758                    24238125.813
 121263831.790 7  94491387.46444  23075747.516                    23075756.645
 114086973.887 8  88898968.607 7  21710024.781
 114833343.538 7  89480643.307 7  21852071.320
 116153672.481 8  90509387.908 7  22103305.984
 115225972.754 8  89786571.30145  21926747.180                    21926753.496
 126303065.258 6  98418053.880 6  24034681.367
 108377610.114 8  84450192.669 8  20623557.563
 11  7 29  4  6  0.0000000  0  9G10G26G25G29G12G02G15G21G05
 127480364.872 6  99335455.28443  24258696.984                    24258705.707
 121172041.559 7  94419862.62244  23058280.430                    23058289.949
 114111790.957 8  88918306.586 7  21714746.820
 114758300.239 7  89422168.040 7  21837791.141
 116233384.982 7  90571501.551 7  22118475.391
 115270222.187 7  89821051.38045  21935167.477                    21935173.809
 126205635.040 6  98342134.301 6  24016140.953
 132276672.93216 103072791.41953  25171419.727                    25171429.215
 108420878.491 8  84483908.308 8  20631791.055
 11  7 29  4  6 30.0000000  0  9G10G26G25G29G12G02G15G21G05
 127588587.465 6  99419784.62343  24279290.813                    24279299.648
 121080448.358 7  94348491.35144  23040850.953                    23040860.660
 114137145.650 8  88938063.488 7  21719571.547
 114683435.966 7  89363832.256 7  21823544.742
 116313404.734 8  90633854.600 7  22133702.031
 115314567.586 7  89855606.24045  21943606.594                    21943612.391
 126108170.813 6  98266188.183 6  23997593.984
 132218025.911 6 103027092.53643  25160259.328                    25160268.672
 108464596.537 8  84517974.324 7  20640110.031
 11  7 29  4  7  0.0000000  0  9G10G26G25G29G12G02G15G21G05
 127696882.499 6  99504170.35743  24299898.977                    24299907.395
 120989055.098 7  94277275.80544  23023459.156                    23023468.320
 114163036.080 8  88958237.828 7  21724498.727
 114608752.481 7  89305637.347 7  21809333.055
 116393728.165 7  90696444.278 7  22148987.000
 115359008.632 7  89890235.63345  21952063.227                    21952069.254
 126010675.185 6  98190217.642 6  23979041.438
 132159392.144 5 102981403.95542  25149101.789                    25149111.188
 108508761.984 8  84552388.964 8  20648514.750
 11  7 29  4  7 30.0000000  0  9G10G26G25G29G12G02G15G21G05
 127805247.652 6  99588610.74643  24320520.070                    24320528.414
 120897865.713 7  94206219.16144  23006106.703                    23006115.941
 114189460.913 8  88978828.615 7  21729526.984
 114534252.266 7  89247585.251 7  21795156.250
 116474352.881 7  90759268.735 7  22164329.289
 115403545.607 7  89924939.77345  21960538.281                    21960544.727
 125913151.218 7  98114225.021 6  23960482.945
 132100771.293 5 102935725.46142  25137945.695                    25137956.207
 108553372.870 8  84587150.710 7  20657003.727
 11  7 29  4  8  0.0000000  0  9G10G26G25G29G12G02G15G21G05
 127913680.282 6  99673103.70142  24341153.742                    24341162.414
 120806883.599 7  94135324.04644  22988793.695                    22988802.887
 114216418.308 8  88999834.369 7  21734656.695
 114459937.319 8  89189677.526 7  21781014.633
 116555275.466 8  90822325.293 7  22179728.086
 115448178.087 7  89959718.35445  21969031.328                    21969037.699
 125815601.182 7  98038212.059 6  23941919.914
 132042162.915 5 102890056.79442  25126793.859                    25126802.898
 108598426.739 8  84622257.620 8  20665577.336
 11  7 29  4  8 30.0000000  0  9G10G26G25G29G12G02G15G21G05
 128022178.296 5  99757647.60142  24361799.695                    24361808.797
 120716113.035 7  94064593.73444  22971520.359                    22971529.074
 114243906.853 8  89021254.018 7  21739887.766
 114385809.654 8  89131915.734 7  21766908.406
 116636493.391 8  90885611.995 7  22195183.930
 115492906.662 7  89994571.79245  21977543.070                    21977549.148
 125718028.342 7  97962181.350 6  23923352.148
 131983566.125 5 102844397.09452  25115641.813                    25115651.992
 108643921.523 8  84657708.104 7  20674234.398
 11  7 29  4  9  0.0000000  0  9G10G26G25G29G12G02G15G21G05
 128130739.063 5  99842240.36542  24382458.297                    24382467.629
 120625557.045 7  93994030.67644  22954288.305                    22954296.855
 114271924.855 8  89043086.205 7  21745219.383
 114311871.352 8  89074301.503 7  21752838.578
 116718003.529 8  90949126.396 7  22210694.102
 115537731.062 8  90029499.90345  21986072.570                    21986078.953
 125620435.325 7  97886134.918 6  23904780.688
 131924980.625 6 102798746.08142  25104494.648                    25104503.594
 108689855.067 8  84693500.487 7  20682975.320
 11  7 29  4  9 30.0000000  0  9G10G26G25G29G12G02G15G21G05
 128239360.327 5  99926880.29242  24403128.719                    24403136.543
 120535219.678 7  93923637.94244  22937097.359                    22937106.602
 114300470.656 8  89065329.687 7  21750651.086
 114238124.973 8  89016836.816 7  21738804.688
 116799803.022 7  91012866.262 7  22226260.375
 115582651.362 7  90064502.74745  21994620.914                    21994626.867
 125522824.893 7  97810074.912 6  23886206.070
 131866406.100 6 102753103.75942  25093348.148                    25093356.938
 108736225.088 8  84729632.973 7  20691799.094
 11  7 29  4 10  0.0000000  0  9G10G26G25G29G12G02G15G21G05
 128348039.549 5 100011565.35942  24423809.930                    24423818.359
 120445104.445 7  93853418.32544  22919949.023                    22919957.672
 114329542.645 8  89087983.169 7  21756183.586
 114164572.699 7  88959523.390 7  21724808.492
 116881888.548 8  91076829.016 7  22241880.398
 115627667.621 7  90099580.34445  22003187.328                    22003193.258
 125425199.997 7  97734003.651 6  23867628.727
 131807841.915 6 102707469.41343  25082202.641                    25082212.305
 108783029.499 8  84766103.949 7  20700705.719
 11  7 29  4 10 30.0000000  0  9G10G26G25G29G12G02G15G21G05
 128456774.589 5 100096293.90143  24444501.031                    24444510.340
 120355215.107 7  93783374.72044  22902843.969                    22902852.539
 114359139.135 8  89111045.356 7  21761815.914
 114091216.510 8  88902362.754 7  21710848.930
 116964257.283 8  91141012.449 7  22257555.188
 115672779.995 8  90134732.85345  22011772.227                    22011777.824
 125327563.459 7  97657923.289 6  23849049.063
 131749287.536 6 102661842.75443  25071060.922                    25071069.676
 108830266.269 8  84802911.829 7  20709694.969
 11  7 29  4 11  0.0000000  0  9G10G26G25G29G12G02G15G21G05
 128565563.013 6 100181064.03042  24465202.164                    24465211.488
 120265555.393 7  93713510.04444  22885782.547                    22885791.352
 114389258.408 8  89134514.907 7  21767547.125
 114018058.678 8  88845356.673 7  21696927.711
 117046906.202 7  91205414.199 7  22273282.352
 115717988.736 7  90169960.44745  22020374.742                    22020380.902
 125229918.271 6  97581836.205 6  23830466.766
 131690742.418 6 102616223.26543  25059920.344                    25059928.852
 108877933.049 8  84840054.782 7  20718765.492
 11  7 29  4 11 30.0000000  0  9G10G26G25G29G12G02G15G21G05
 128674402.374 6 100265873.85743  24485914.961                    24485922.852
 120176128.952 7  93643827.13344  22868764.086                    22868773.688
 114419898.776 7  89158390.515 7  21773377.906
 113945101.452 7  88788506.918 7  21683044.031
 117129832.316 7  91270031.938 7  22289062.797
 115763293.934 7  90205263.20545  22028996.289                    22029002.117
 125132267.061 6  97505744.415 6  23811884.477
 131632206.011 6 102570610.58043  25048780.391                    25048789.918
 108926027.691 8  84877531.131 8  20727917.570
 11  7 29  4 12  0.0000000  0  9G10G26G25G29G12G02G15G21G05
 128783290.402 6 100350721.56843  24506635.836                    24506644.035
 120086939.459 7  93574328.89344  22851792.492                    22851801.066
 114451058.263 8  89182670.619 7  21779307.453
 113872347.020 7  88731815.192 7  21669199.500
 117213032.873 7  91334863.550 7  22304895.672
 115808695.400 7  90240640.97545  22037635.953                    22037641.457
 125034612.915 6  97429650.340 6  23793301.961
 131573677.641 6 102525004.21143  25037643.789                    25037652.852
 108974547.897 8  84915339.093 7  20737150.594
 11  7 29  4 12 30.0000000  0  9G10G26G25G29G12G02G15G21G05
 128892224.667 6 100435605.32943  24527364.742                    24527373.875
 119997990.648 7  93505018.14844  22834865.969                    22834875.145
 114482735.455 8  89207354.154 7  21785335.609
 113799797.832 7  88675283.367 7  21655393.352
 117296504.277 8  91399906.185 7  22320780.148
 115854193.362 7  90276093.92445  22046293.531                    22046299.906
 124936958.518 6  97353556.099 6  23774718.578
 131515157.153 6 102479403.92843  25026506.492                    25026515.816
 109023491.422 8  84953476.906 7  20746464.078
 11  7 29  4 13  0.0000000  0  9G10G26G25G29G12G02G15G21G05
 129001202.992 6 100520523.40943  24548103.500                    24548111.680
 119909286.178 7  93435897.82545  22817986.398                    22817995.363
 114514928.408 7  89232439.566 7  21791461.680
 113727456.151 7  88618913.277 7  21641627.656
 117380243.943 7  91465157.885 7  22336715.367
 115899788.005 7  90311622.21845  22054969.758                    22054976.020
 124839306.936 6  97277464.046 6  23756136.094
 131456643.810 6 102433809.21443  25015372.547                    25015381.039
 109072856.021 8  84991942.835 7  20755857.969
 11  7 29  4 13 30.0000000  0  9G10G26G25G29G12G02G15G21G05
 129110222.959 6 100605473.94943  24568848.883                    24568857.609
 119820829.859 7  93366970.86444  22801153.453                    22801162.836
 114547635.439 8  89257925.565 7  21797685.797
 113655324.137 7  88562706.553 7  21627901.234
 117464248.714 7  91530616.148 7  22352700.039
 115945479.615 8  90347226.05845  22063664.758                    22063670.930
 124741661.254 6  97201376.540 6  23737555.242
 131398137.194 6 102388219.81043  25004238.055                    25004247.578
 109122639.665 8  85030735.294 7  20765331.273
 11  7 29  4 14  0.0000000  0  9G10G26G25G29G12G02G15G21G05
 129219282.450 6 100690455.27443  24589602.375                    24589611.328
 119732625.286 7  93298240.09244  22784368.289                    22784377.855
 114580854.568 8  89283810.609 7  21804006.938
 113583403.970 7  88506664.911 7  21614214.852
 117548515.619 7  91596278.658 7  22368735.289
 115991268.126 7  90382905.42345  22072377.766                    22072384.219
 124644024.194 6  97125295.780 6  23718975.070
 131339636.739 6 102342635.15243  24993106.172                    24993115.418
 109172839.964 8  85069852.423 7  20774884.305
 11  7 29  4 14 30.0000000  0  8G26G25G29G12G02G15G21G05
 119644677.204 7  93229709.12944  22767632.555                    22767641.473
 114614585.019 8  89310094.072 7  21810425.188
 113511698.937 7  88450790.883 7  21600570.438
 117633042.832 7  91662144.015 7  22384820.836
 116037154.788 7  90418661.25845  22081110.555                    22081116.445
 124546399.392 6  97049224.589 6  23700398.406
 131281142.933 6 102297055.69943  24981975.641                    24981984.012
 109223455.420 8  85109293.048 7  20784516.102
 11  7 29  4 15  0.0000000  0  8G26G25G29G12G02G15G21G05
 119556988.383 7  93161380.24144  22750945.945                    22750955.289
 114648823.897 7  89336773.721 7  21816940.586
 113440210.466 7  88395085.612 7  21586966.281
 117717826.232 7  91728208.987 7  22400954.531
 116083138.639 7  90454492.83345  22089860.789                    22089866.477
 124448788.883 7  96973164.518 6  23681822.930
 131222654.387 6 102251480.32042  24970844.586                    24970854.078
 109274483.204 8  85149054.974 8  20794226.383
 11  7 29  4 15 30.0000000  0  8G26G25G29G12G02G15G21G05
 119469561.876 7  93093255.71544  22734309.016                    22734317.906
 114683568.719 8  89363847.605 7  21823552.695
 113368939.919 8  88339550.154 7  21573404.148
 117802862.021 7  91794470.662 7  22417135.984
 116129219.267 7  90490399.79645  22098629.688                    22098635.430
 124351195.431 7  96897117.734 6  23663251.820
 131164170.006 6 102205908.25243  24959715.742                    24959724.836
 109325920.002 8  85189135.594 7  20804014.461
 11  7 29  4 16  0.0000000  0  8G26G25G29G12G02G15G21G05
 119382402.107 7  93025339.04244  22717722.727                    22717732.203
 114718818.332 8  89391314.828 7  21830260.305
 113297890.407 7  88284186.929 7  21559883.820
 117888148.025 7  91860927.270 7  22433365.508
 116175397.381 7  90526382.75145  22107416.828                    22107422.664
 124253622.377 7  96821086.833 6  23644684.008
 131105689.753 5 102160339.40342  24948587.570                    24948596.715
 109377764.614 8  85229534.011 7  20813880.070
